<?xml version="1.0" encoding="UTF-8" standalone="no" ?>
<gpx xmlns="http://www.topografix.com/GPX/1/1" xmlns:xsi="http://www.w3.org/2001/XMLSchema-instance" xsi:schemaLocation="http://www.topografix.com/GPX/1/1 http://www.topografix.com/GPX/1/1/gpx.xsd" version="1.1" creator="VisuGPX - https://www.visugpx.com">
  <metadata>
    <name>Vercors Sud - Col de la Grimone</name>
    <desc><![CDATA[Ballade sympa sur les crêtes du Jocou. Sans difficulté. Départ Col de la Grimone > Col de Vente Cul > Le jocou (2051) > Col de Seysse > Col de Jiboui > Refuge de la tour.]]></desc>
  </metadata>
  <trk>
    <name><![CDATA[20-NOV-11 06:42:54]]></name>
    <trkseg>
      <trkpt lat="44.69147" lon="5.65414">
        <ele>1313.78</ele>
        <time>2011-11-19T10:11:52Z</time>
      </trkpt>
      <trkpt lat="44.69147" lon="5.65415">
        <ele>1311.38</ele>
        <time>2011-11-19T10:11:53Z</time>
      </trkpt>
      <trkpt lat="44.69148" lon="5.65418">
        <ele>1314.26</ele>
        <time>2011-11-19T10:11:58Z</time>
      </trkpt>
      <trkpt lat="44.69152" lon="5.65421">
        <ele>1317.62</ele>
        <time>2011-11-19T10:12:04Z</time>
      </trkpt>
      <trkpt lat="44.69158" lon="5.65428">
        <ele>1317.62</ele>
        <time>2011-11-19T10:12:12Z</time>
      </trkpt>
      <trkpt lat="44.69162" lon="5.65435">
        <ele>1319.55</ele>
        <time>2011-11-19T10:12:18Z</time>
      </trkpt>
      <trkpt lat="44.69166" lon="5.65439">
        <ele>1319.55</ele>
        <time>2011-11-19T10:12:24Z</time>
      </trkpt>
      <trkpt lat="44.69167" lon="5.65442">
        <ele>1320.03</ele>
        <time>2011-11-19T10:12:29Z</time>
      </trkpt>
      <trkpt lat="44.69165" lon="5.6544">
        <ele>1320.99</ele>
        <time>2011-11-19T10:12:31Z</time>
      </trkpt>
      <trkpt lat="44.69164" lon="5.6544">
        <ele>1320.51</ele>
        <time>2011-11-19T10:12:44Z</time>
      </trkpt>
      <trkpt lat="44.69172" lon="5.65447">
        <ele>1323.39</ele>
        <time>2011-11-19T10:12:53Z</time>
      </trkpt>
      <trkpt lat="44.69175" lon="5.65448">
        <ele>1323.39</ele>
        <time>2011-11-19T10:12:56Z</time>
      </trkpt>
      <trkpt lat="44.69176" lon="5.65451">
        <ele>1323.87</ele>
        <time>2011-11-19T10:12:59Z</time>
      </trkpt>
      <trkpt lat="44.69177" lon="5.65453">
        <ele>1323.87</ele>
        <time>2011-11-19T10:13:01Z</time>
      </trkpt>
      <trkpt lat="44.69179" lon="5.65457">
        <ele>1324.83</ele>
        <time>2011-11-19T10:13:06Z</time>
      </trkpt>
      <trkpt lat="44.69181" lon="5.65461">
        <ele>1326.28</ele>
        <time>2011-11-19T10:13:12Z</time>
      </trkpt>
      <trkpt lat="44.69182" lon="5.65463">
        <ele>1327.24</ele>
        <time>2011-11-19T10:13:14Z</time>
      </trkpt>
      <trkpt lat="44.69186" lon="5.65475">
        <ele>1328.68</ele>
        <time>2011-11-19T10:13:25Z</time>
      </trkpt>
      <trkpt lat="44.69185" lon="5.6548">
        <ele>1329.64</ele>
        <time>2011-11-19T10:13:29Z</time>
      </trkpt>
      <trkpt lat="44.69187" lon="5.65488">
        <ele>1330.6</ele>
        <time>2011-11-19T10:13:39Z</time>
      </trkpt>
      <trkpt lat="44.69187" lon="5.65489">
        <ele>1331.56</ele>
        <time>2011-11-19T10:13:40Z</time>
      </trkpt>
      <trkpt lat="44.69191" lon="5.65494">
        <ele>1333.49</ele>
        <time>2011-11-19T10:13:46Z</time>
      </trkpt>
      <trkpt lat="44.69192" lon="5.65499">
        <ele>1333.97</ele>
        <time>2011-11-19T10:13:50Z</time>
      </trkpt>
      <trkpt lat="44.69196" lon="5.65507">
        <ele>1334.93</ele>
        <time>2011-11-19T10:13:57Z</time>
      </trkpt>
      <trkpt lat="44.692" lon="5.65519">
        <ele>1337.33</ele>
        <time>2011-11-19T10:14:09Z</time>
      </trkpt>
      <trkpt lat="44.69203" lon="5.65522">
        <ele>1339.25</ele>
        <time>2011-11-19T10:14:19Z</time>
      </trkpt>
      <trkpt lat="44.69203" lon="5.65523">
        <ele>1340.7</ele>
        <time>2011-11-19T10:14:22Z</time>
      </trkpt>
      <trkpt lat="44.69205" lon="5.65533">
        <ele>1342.62</ele>
        <time>2011-11-19T10:14:33Z</time>
      </trkpt>
      <trkpt lat="44.69206" lon="5.65536">
        <ele>1343.58</ele>
        <time>2011-11-19T10:14:39Z</time>
      </trkpt>
      <trkpt lat="44.69207" lon="5.65542">
        <ele>1345.02</ele>
        <time>2011-11-19T10:14:51Z</time>
      </trkpt>
      <trkpt lat="44.69207" lon="5.65544">
        <ele>1345.5</ele>
        <time>2011-11-19T10:14:55Z</time>
      </trkpt>
      <trkpt lat="44.69207" lon="5.65547">
        <ele>1345.98</ele>
        <time>2011-11-19T10:14:57Z</time>
      </trkpt>
      <trkpt lat="44.69208" lon="5.65551">
        <ele>1346.94</ele>
        <time>2011-11-19T10:15:00Z</time>
      </trkpt>
      <trkpt lat="44.69207" lon="5.65559">
        <ele>1348.87</ele>
        <time>2011-11-19T10:15:12Z</time>
      </trkpt>
      <trkpt lat="44.69206" lon="5.65562">
        <ele>1349.83</ele>
        <time>2011-11-19T10:15:17Z</time>
      </trkpt>
      <trkpt lat="44.69205" lon="5.65567">
        <ele>1349.83</ele>
        <time>2011-11-19T10:15:21Z</time>
      </trkpt>
      <trkpt lat="44.69207" lon="5.65574">
        <ele>1352.71</ele>
        <time>2011-11-19T10:15:30Z</time>
      </trkpt>
      <trkpt lat="44.69208" lon="5.65583">
        <ele>1353.67</ele>
        <time>2011-11-19T10:15:39Z</time>
      </trkpt>
      <trkpt lat="44.69207" lon="5.65585">
        <ele>1354.15</ele>
        <time>2011-11-19T10:15:41Z</time>
      </trkpt>
      <trkpt lat="44.69208" lon="5.65595">
        <ele>1355.6</ele>
        <time>2011-11-19T10:15:54Z</time>
      </trkpt>
      <trkpt lat="44.69208" lon="5.65596">
        <ele>1356.08</ele>
        <time>2011-11-19T10:15:55Z</time>
      </trkpt>
      <trkpt lat="44.69207" lon="5.65602">
        <ele>1357.04</ele>
        <time>2011-11-19T10:16:00Z</time>
      </trkpt>
      <trkpt lat="44.69207" lon="5.65605">
        <ele>1357.04</ele>
        <time>2011-11-19T10:16:03Z</time>
      </trkpt>
      <trkpt lat="44.69206" lon="5.65609">
        <ele>1357.52</ele>
        <time>2011-11-19T10:16:15Z</time>
      </trkpt>
      <trkpt lat="44.69206" lon="5.6561">
        <ele>1357.52</ele>
        <time>2011-11-19T10:16:21Z</time>
      </trkpt>
      <trkpt lat="44.69208" lon="5.65613">
        <ele>1355.12</ele>
        <time>2011-11-19T10:16:24Z</time>
      </trkpt>
      <trkpt lat="44.69209" lon="5.65613">
        <ele>1358.96</ele>
        <time>2011-11-19T10:16:25Z</time>
      </trkpt>
      <trkpt lat="44.6921" lon="5.65613">
        <ele>1362.33</ele>
        <time>2011-11-19T10:16:27Z</time>
      </trkpt>
      <trkpt lat="44.69212" lon="5.65613">
        <ele>1359.44</ele>
        <time>2011-11-19T10:16:29Z</time>
      </trkpt>
      <trkpt lat="44.69214" lon="5.65613">
        <ele>1361.84</ele>
        <time>2011-11-19T10:16:32Z</time>
      </trkpt>
      <trkpt lat="44.69215" lon="5.65614">
        <ele>1357.04</ele>
        <time>2011-11-19T10:16:34Z</time>
      </trkpt>
      <trkpt lat="44.69215" lon="5.65614">
        <ele>1361.36</ele>
        <time>2011-11-19T10:16:35Z</time>
      </trkpt>
      <trkpt lat="44.69219" lon="5.65613">
        <ele>1364.25</ele>
        <time>2011-11-19T10:16:40Z</time>
      </trkpt>
      <trkpt lat="44.69219" lon="5.65613">
        <ele>1361.36</ele>
        <time>2011-11-19T10:16:41Z</time>
      </trkpt>
      <trkpt lat="44.69219" lon="5.65616">
        <ele>1362.81</ele>
        <time>2011-11-19T10:16:45Z</time>
      </trkpt>
      <trkpt lat="44.69219" lon="5.65624">
        <ele>1364.25</ele>
        <time>2011-11-19T10:16:57Z</time>
      </trkpt>
      <trkpt lat="44.6922" lon="5.65626">
        <ele>1365.69</ele>
        <time>2011-11-19T10:17:07Z</time>
      </trkpt>
      <trkpt lat="44.69221" lon="5.6563">
        <ele>1367.13</ele>
        <time>2011-11-19T10:17:17Z</time>
      </trkpt>
      <trkpt lat="44.6922" lon="5.65635">
        <ele>1369.05</ele>
        <time>2011-11-19T10:17:22Z</time>
      </trkpt>
      <trkpt lat="44.69219" lon="5.65644">
        <ele>1370.02</ele>
        <time>2011-11-19T10:17:30Z</time>
      </trkpt>
      <trkpt lat="44.6922" lon="5.65653">
        <ele>1372.42</ele>
        <time>2011-11-19T10:17:42Z</time>
      </trkpt>
      <trkpt lat="44.6922" lon="5.65657">
        <ele>1373.86</ele>
        <time>2011-11-19T10:17:49Z</time>
      </trkpt>
      <trkpt lat="44.69217" lon="5.65663">
        <ele>1374.34</ele>
        <time>2011-11-19T10:18:00Z</time>
      </trkpt>
      <trkpt lat="44.69218" lon="5.65674">
        <ele>1376.75</ele>
        <time>2011-11-19T10:18:15Z</time>
      </trkpt>
      <trkpt lat="44.69217" lon="5.65683">
        <ele>1379.63</ele>
        <time>2011-11-19T10:18:27Z</time>
      </trkpt>
      <trkpt lat="44.69217" lon="5.65697">
        <ele>1381.07</ele>
        <time>2011-11-19T10:18:41Z</time>
      </trkpt>
      <trkpt lat="44.69218" lon="5.65699">
        <ele>1382.03</ele>
        <time>2011-11-19T10:18:44Z</time>
      </trkpt>
      <trkpt lat="44.69218" lon="5.65703">
        <ele>1382.99</ele>
        <time>2011-11-19T10:18:47Z</time>
      </trkpt>
      <trkpt lat="44.69215" lon="5.65711">
        <ele>1383.47</ele>
        <time>2011-11-19T10:19:00Z</time>
      </trkpt>
      <trkpt lat="44.69214" lon="5.65721">
        <ele>1385.88</ele>
        <time>2011-11-19T10:19:11Z</time>
      </trkpt>
      <trkpt lat="44.69216" lon="5.65729">
        <ele>1387.8</ele>
        <time>2011-11-19T10:19:22Z</time>
      </trkpt>
      <trkpt lat="44.69216" lon="5.6573">
        <ele>1388.28</ele>
        <time>2011-11-19T10:19:24Z</time>
      </trkpt>
      <trkpt lat="44.69211" lon="5.65734">
        <ele>1388.76</ele>
        <time>2011-11-19T10:19:32Z</time>
      </trkpt>
      <trkpt lat="44.69211" lon="5.65735">
        <ele>1389.72</ele>
        <time>2011-11-19T10:19:34Z</time>
      </trkpt>
      <trkpt lat="44.69214" lon="5.65742">
        <ele>1391.65</ele>
        <time>2011-11-19T10:19:47Z</time>
      </trkpt>
      <trkpt lat="44.69216" lon="5.65746">
        <ele>1393.57</ele>
        <time>2011-11-19T10:20:00Z</time>
      </trkpt>
      <trkpt lat="44.69216" lon="5.65751">
        <ele>1395.49</ele>
        <time>2011-11-19T10:20:10Z</time>
      </trkpt>
      <trkpt lat="44.69217" lon="5.65759">
        <ele>1398.37</ele>
        <time>2011-11-19T10:20:22Z</time>
      </trkpt>
      <trkpt lat="44.69217" lon="5.65767">
        <ele>1399.82</ele>
        <time>2011-11-19T10:20:33Z</time>
      </trkpt>
      <trkpt lat="44.69214" lon="5.65774">
        <ele>1402.7</ele>
        <time>2011-11-19T10:20:45Z</time>
      </trkpt>
      <trkpt lat="44.69213" lon="5.65781">
        <ele>1403.66</ele>
        <time>2011-11-19T10:20:56Z</time>
      </trkpt>
      <trkpt lat="44.6921" lon="5.65786">
        <ele>1405.58</ele>
        <time>2011-11-19T10:21:06Z</time>
      </trkpt>
      <trkpt lat="44.69208" lon="5.65792">
        <ele>1408.47</ele>
        <time>2011-11-19T10:21:19Z</time>
      </trkpt>
      <trkpt lat="44.69206" lon="5.65795">
        <ele>1409.91</ele>
        <time>2011-11-19T10:21:29Z</time>
      </trkpt>
      <trkpt lat="44.69205" lon="5.65799">
        <ele>1410.87</ele>
        <time>2011-11-19T10:21:42Z</time>
      </trkpt>
      <trkpt lat="44.69205" lon="5.658">
        <ele>1411.83</ele>
        <time>2011-11-19T10:21:43Z</time>
      </trkpt>
      <trkpt lat="44.69202" lon="5.65807">
        <ele>1412.79</ele>
        <time>2011-11-19T10:21:53Z</time>
      </trkpt>
      <trkpt lat="44.69202" lon="5.65808">
        <ele>1412.79</ele>
        <time>2011-11-19T10:21:54Z</time>
      </trkpt>
      <trkpt lat="44.69201" lon="5.65816">
        <ele>1415.2</ele>
        <time>2011-11-19T10:22:04Z</time>
      </trkpt>
      <trkpt lat="44.692" lon="5.65818">
        <ele>1413.76</ele>
        <time>2011-11-19T10:22:06Z</time>
      </trkpt>
      <trkpt lat="44.69198" lon="5.65822">
        <ele>1412.31</ele>
        <time>2011-11-19T10:22:11Z</time>
      </trkpt>
      <trkpt lat="44.69197" lon="5.65822">
        <ele>1416.64</ele>
        <time>2011-11-19T10:22:13Z</time>
      </trkpt>
      <trkpt lat="44.69197" lon="5.65823">
        <ele>1415.68</ele>
        <time>2011-11-19T10:22:14Z</time>
      </trkpt>
      <trkpt lat="44.69198" lon="5.65824">
        <ele>1415.68</ele>
        <time>2011-11-19T10:22:18Z</time>
      </trkpt>
      <trkpt lat="44.69196" lon="5.65826">
        <ele>1419.52</ele>
        <time>2011-11-19T10:22:23Z</time>
      </trkpt>
      <trkpt lat="44.69196" lon="5.65827">
        <ele>1419.52</ele>
        <time>2011-11-19T10:22:24Z</time>
      </trkpt>
      <trkpt lat="44.69196" lon="5.65827">
        <ele>1419.52</ele>
        <time>2011-11-19T10:22:26Z</time>
      </trkpt>
      <trkpt lat="44.69194" lon="5.65834">
        <ele>1420.97</ele>
        <time>2011-11-19T10:22:36Z</time>
      </trkpt>
      <trkpt lat="44.69193" lon="5.65835">
        <ele>1421.93</ele>
        <time>2011-11-19T10:22:38Z</time>
      </trkpt>
      <trkpt lat="44.69192" lon="5.65837">
        <ele>1419.52</ele>
        <time>2011-11-19T10:22:41Z</time>
      </trkpt>
      <trkpt lat="44.69191" lon="5.65839">
        <ele>1420.97</ele>
        <time>2011-11-19T10:22:44Z</time>
      </trkpt>
      <trkpt lat="44.69191" lon="5.6584">
        <ele>1419.04</ele>
        <time>2011-11-19T10:22:46Z</time>
      </trkpt>
      <trkpt lat="44.6919" lon="5.65842">
        <ele>1420.49</ele>
        <time>2011-11-19T10:22:55Z</time>
      </trkpt>
      <trkpt lat="44.6919" lon="5.65841">
        <ele>1421.93</ele>
        <time>2011-11-19T10:23:12Z</time>
      </trkpt>
      <trkpt lat="44.69189" lon="5.65848">
        <ele>1423.85</ele>
        <time>2011-11-19T10:23:25Z</time>
      </trkpt>
      <trkpt lat="44.69189" lon="5.65853">
        <ele>1427.21</ele>
        <time>2011-11-19T10:23:34Z</time>
      </trkpt>
      <trkpt lat="44.69187" lon="5.65862">
        <ele>1426.73</ele>
        <time>2011-11-19T10:23:44Z</time>
      </trkpt>
      <trkpt lat="44.69186" lon="5.65866">
        <ele>1429.62</ele>
        <time>2011-11-19T10:23:59Z</time>
      </trkpt>
      <trkpt lat="44.69186" lon="5.65866">
        <ele>1429.14</ele>
        <time>2011-11-19T10:24:09Z</time>
      </trkpt>
      <trkpt lat="44.69184" lon="5.65871">
        <ele>1429.62</ele>
        <time>2011-11-19T10:24:13Z</time>
      </trkpt>
      <trkpt lat="44.69181" lon="5.65878">
        <ele>1432.02</ele>
        <time>2011-11-19T10:24:26Z</time>
      </trkpt>
      <trkpt lat="44.69181" lon="5.65879">
        <ele>1432.98</ele>
        <time>2011-11-19T10:24:39Z</time>
      </trkpt>
      <trkpt lat="44.69181" lon="5.6588">
        <ele>1432.98</ele>
        <time>2011-11-19T10:24:41Z</time>
      </trkpt>
      <trkpt lat="44.6918" lon="5.65883">
        <ele>1433.94</ele>
        <time>2011-11-19T10:24:44Z</time>
      </trkpt>
      <trkpt lat="44.6918" lon="5.65886">
        <ele>1434.91</ele>
        <time>2011-11-19T10:24:57Z</time>
      </trkpt>
      <trkpt lat="44.6918" lon="5.65887">
        <ele>1437.79</ele>
        <time>2011-11-19T10:24:58Z</time>
      </trkpt>
      <trkpt lat="44.69179" lon="5.6589">
        <ele>1432.02</ele>
        <time>2011-11-19T10:25:00Z</time>
      </trkpt>
      <trkpt lat="44.69179" lon="5.6589">
        <ele>1432.98</ele>
        <time>2011-11-19T10:25:01Z</time>
      </trkpt>
      <trkpt lat="44.69179" lon="5.65893">
        <ele>1435.87</ele>
        <time>2011-11-19T10:25:05Z</time>
      </trkpt>
      <trkpt lat="44.69179" lon="5.65893">
        <ele>1434.42</ele>
        <time>2011-11-19T10:25:07Z</time>
      </trkpt>
      <trkpt lat="44.69178" lon="5.65898">
        <ele>1437.79</ele>
        <time>2011-11-19T10:25:14Z</time>
      </trkpt>
      <trkpt lat="44.69176" lon="5.65905">
        <ele>1437.79</ele>
        <time>2011-11-19T10:25:25Z</time>
      </trkpt>
      <trkpt lat="44.69174" lon="5.65909">
        <ele>1438.75</ele>
        <time>2011-11-19T10:25:31Z</time>
      </trkpt>
      <trkpt lat="44.69174" lon="5.65911">
        <ele>1443.08</ele>
        <time>2011-11-19T10:25:33Z</time>
      </trkpt>
      <trkpt lat="44.69174" lon="5.65912">
        <ele>1441.63</ele>
        <time>2011-11-19T10:25:34Z</time>
      </trkpt>
      <trkpt lat="44.69174" lon="5.65914">
        <ele>1440.19</ele>
        <time>2011-11-19T10:25:40Z</time>
      </trkpt>
      <trkpt lat="44.69174" lon="5.65915">
        <ele>1442.11</ele>
        <time>2011-11-19T10:25:42Z</time>
      </trkpt>
      <trkpt lat="44.69174" lon="5.65917">
        <ele>1443.56</ele>
        <time>2011-11-19T10:25:45Z</time>
      </trkpt>
      <trkpt lat="44.69174" lon="5.65919">
        <ele>1441.15</ele>
        <time>2011-11-19T10:25:48Z</time>
      </trkpt>
      <trkpt lat="44.69173" lon="5.65921">
        <ele>1443.08</ele>
        <time>2011-11-19T10:25:51Z</time>
      </trkpt>
      <trkpt lat="44.69171" lon="5.65928">
        <ele>1445.96</ele>
        <time>2011-11-19T10:26:01Z</time>
      </trkpt>
      <trkpt lat="44.6917" lon="5.65935">
        <ele>1445.48</ele>
        <time>2011-11-19T10:26:12Z</time>
      </trkpt>
      <trkpt lat="44.69171" lon="5.65938">
        <ele>1447.88</ele>
        <time>2011-11-19T10:26:20Z</time>
      </trkpt>
      <trkpt lat="44.69171" lon="5.65938">
        <ele>1448.36</ele>
        <time>2011-11-19T10:26:29Z</time>
      </trkpt>
      <trkpt lat="44.69172" lon="5.6594">
        <ele>1447.88</ele>
        <time>2011-11-19T10:26:37Z</time>
      </trkpt>
      <trkpt lat="44.69171" lon="5.65943">
        <ele>1448.36</ele>
        <time>2011-11-19T10:26:40Z</time>
      </trkpt>
      <trkpt lat="44.69167" lon="5.65953">
        <ele>1449.32</ele>
        <time>2011-11-19T10:26:50Z</time>
      </trkpt>
      <trkpt lat="44.6916" lon="5.6596">
        <ele>1448.84</ele>
        <time>2011-11-19T10:27:02Z</time>
      </trkpt>
      <trkpt lat="44.69155" lon="5.65972">
        <ele>1448.84</ele>
        <time>2011-11-19T10:27:14Z</time>
      </trkpt>
      <trkpt lat="44.69151" lon="5.65984">
        <ele>1449.81</ele>
        <time>2011-11-19T10:27:27Z</time>
      </trkpt>
      <trkpt lat="44.69148" lon="5.65994">
        <ele>1451.25</ele>
        <time>2011-11-19T10:27:40Z</time>
      </trkpt>
      <trkpt lat="44.69145" lon="5.66002">
        <ele>1452.21</ele>
        <time>2011-11-19T10:27:50Z</time>
      </trkpt>
      <trkpt lat="44.69146" lon="5.66005">
        <ele>1453.65</ele>
        <time>2011-11-19T10:28:01Z</time>
      </trkpt>
      <trkpt lat="44.69145" lon="5.66012">
        <ele>1454.61</ele>
        <time>2011-11-19T10:28:08Z</time>
      </trkpt>
      <trkpt lat="44.69144" lon="5.66024">
        <ele>1455.09</ele>
        <time>2011-11-19T10:28:16Z</time>
      </trkpt>
      <trkpt lat="44.69143" lon="5.66029">
        <ele>1456.05</ele>
        <time>2011-11-19T10:28:21Z</time>
      </trkpt>
      <trkpt lat="44.69143" lon="5.66038">
        <ele>1457.02</ele>
        <time>2011-11-19T10:28:32Z</time>
      </trkpt>
      <trkpt lat="44.69141" lon="5.66047">
        <ele>1457.98</ele>
        <time>2011-11-19T10:28:44Z</time>
      </trkpt>
      <trkpt lat="44.6914" lon="5.66048">
        <ele>1458.94</ele>
        <time>2011-11-19T10:29:01Z</time>
      </trkpt>
      <trkpt lat="44.69139" lon="5.66057">
        <ele>1459.9</ele>
        <time>2011-11-19T10:29:12Z</time>
      </trkpt>
      <trkpt lat="44.69141" lon="5.66059">
        <ele>1460.38</ele>
        <time>2011-11-19T10:29:21Z</time>
      </trkpt>
      <trkpt lat="44.6914" lon="5.6606">
        <ele>1461.34</ele>
        <time>2011-11-19T10:29:31Z</time>
      </trkpt>
      <trkpt lat="44.69139" lon="5.66057">
        <ele>1458.94</ele>
        <time>2011-11-19T10:29:41Z</time>
      </trkpt>
      <trkpt lat="44.69139" lon="5.66057">
        <ele>1460.86</ele>
        <time>2011-11-19T10:30:10Z</time>
      </trkpt>
      <trkpt lat="44.69139" lon="5.66057">
        <ele>1461.34</ele>
        <time>2011-11-19T10:30:46Z</time>
      </trkpt>
      <trkpt lat="44.6914" lon="5.66057">
        <ele>1461.34</ele>
        <time>2011-11-19T10:31:21Z</time>
      </trkpt>
      <trkpt lat="44.69142" lon="5.66059">
        <ele>1461.82</ele>
        <time>2011-11-19T10:31:50Z</time>
      </trkpt>
      <trkpt lat="44.69142" lon="5.66058">
        <ele>1461.34</ele>
        <time>2011-11-19T10:32:12Z</time>
      </trkpt>
      <trkpt lat="44.6914" lon="5.66065">
        <ele>1462.3</ele>
        <time>2011-11-19T10:32:32Z</time>
      </trkpt>
      <trkpt lat="44.69141" lon="5.66067">
        <ele>1463.74</ele>
        <time>2011-11-19T10:32:40Z</time>
      </trkpt>
      <trkpt lat="44.69143" lon="5.6608">
        <ele>1465.67</ele>
        <time>2011-11-19T10:32:52Z</time>
      </trkpt>
      <trkpt lat="44.69144" lon="5.66094">
        <ele>1469.99</ele>
        <time>2011-11-19T10:33:05Z</time>
      </trkpt>
      <trkpt lat="44.69144" lon="5.66095">
        <ele>1469.99</ele>
        <time>2011-11-19T10:33:06Z</time>
      </trkpt>
      <trkpt lat="44.69143" lon="5.66096">
        <ele>1468.55</ele>
        <time>2011-11-19T10:33:12Z</time>
      </trkpt>
      <trkpt lat="44.69146" lon="5.66102">
        <ele>1471.44</ele>
        <time>2011-11-19T10:33:24Z</time>
      </trkpt>
      <trkpt lat="44.69149" lon="5.66099">
        <ele>1472.4</ele>
        <time>2011-11-19T10:33:31Z</time>
      </trkpt>
      <trkpt lat="44.6915" lon="5.66106">
        <ele>1473.84</ele>
        <time>2011-11-19T10:33:42Z</time>
      </trkpt>
      <trkpt lat="44.69149" lon="5.66111">
        <ele>1474.8</ele>
        <time>2011-11-19T10:33:54Z</time>
      </trkpt>
      <trkpt lat="44.69152" lon="5.66121">
        <ele>1476.72</ele>
        <time>2011-11-19T10:34:06Z</time>
      </trkpt>
      <trkpt lat="44.69152" lon="5.66123">
        <ele>1477.2</ele>
        <time>2011-11-19T10:34:19Z</time>
      </trkpt>
      <trkpt lat="44.69153" lon="5.66125">
        <ele>1477.68</ele>
        <time>2011-11-19T10:34:32Z</time>
      </trkpt>
      <trkpt lat="44.69159" lon="5.66122">
        <ele>1479.13</ele>
        <time>2011-11-19T10:34:44Z</time>
      </trkpt>
      <trkpt lat="44.69164" lon="5.66117">
        <ele>1482.01</ele>
        <time>2011-11-19T10:35:00Z</time>
      </trkpt>
      <trkpt lat="44.69169" lon="5.66116">
        <ele>1484.89</ele>
        <time>2011-11-19T10:35:08Z</time>
      </trkpt>
      <trkpt lat="44.69172" lon="5.66116">
        <ele>1485.37</ele>
        <time>2011-11-19T10:35:20Z</time>
      </trkpt>
      <trkpt lat="44.69174" lon="5.66114">
        <ele>1487.3</ele>
        <time>2011-11-19T10:35:32Z</time>
      </trkpt>
      <trkpt lat="44.69176" lon="5.66113">
        <ele>1489.22</ele>
        <time>2011-11-19T10:35:42Z</time>
      </trkpt>
      <trkpt lat="44.69182" lon="5.66109">
        <ele>1490.18</ele>
        <time>2011-11-19T10:35:54Z</time>
      </trkpt>
      <trkpt lat="44.69187" lon="5.66103">
        <ele>1490.66</ele>
        <time>2011-11-19T10:36:07Z</time>
      </trkpt>
      <trkpt lat="44.6919" lon="5.66102">
        <ele>1492.1</ele>
        <time>2011-11-19T10:36:19Z</time>
      </trkpt>
      <trkpt lat="44.69195" lon="5.66099">
        <ele>1494.51</ele>
        <time>2011-11-19T10:36:32Z</time>
      </trkpt>
      <trkpt lat="44.69202" lon="5.66094">
        <ele>1494.99</ele>
        <time>2011-11-19T10:36:45Z</time>
      </trkpt>
      <trkpt lat="44.69208" lon="5.66088">
        <ele>1496.91</ele>
        <time>2011-11-19T10:36:58Z</time>
      </trkpt>
      <trkpt lat="44.69213" lon="5.66087">
        <ele>1498.83</ele>
        <time>2011-11-19T10:37:10Z</time>
      </trkpt>
      <trkpt lat="44.69215" lon="5.66087">
        <ele>1499.79</ele>
        <time>2011-11-19T10:37:21Z</time>
      </trkpt>
      <trkpt lat="44.69219" lon="5.66086">
        <ele>1503.16</ele>
        <time>2011-11-19T10:37:34Z</time>
      </trkpt>
      <trkpt lat="44.69225" lon="5.66082">
        <ele>1504.6</ele>
        <time>2011-11-19T10:37:46Z</time>
      </trkpt>
      <trkpt lat="44.6923" lon="5.6608">
        <ele>1506.04</ele>
        <time>2011-11-19T10:37:57Z</time>
      </trkpt>
      <trkpt lat="44.69232" lon="5.6608">
        <ele>1507.48</ele>
        <time>2011-11-19T10:38:05Z</time>
      </trkpt>
      <trkpt lat="44.6924" lon="5.66077">
        <ele>1508.45</ele>
        <time>2011-11-19T10:38:19Z</time>
      </trkpt>
      <trkpt lat="44.69245" lon="5.66074">
        <ele>1510.85</ele>
        <time>2011-11-19T10:38:31Z</time>
      </trkpt>
      <trkpt lat="44.6925" lon="5.66075">
        <ele>1512.29</ele>
        <time>2011-11-19T10:38:41Z</time>
      </trkpt>
      <trkpt lat="44.6925" lon="5.66074">
        <ele>1513.25</ele>
        <time>2011-11-19T10:38:56Z</time>
      </trkpt>
      <trkpt lat="44.69256" lon="5.6607">
        <ele>1514.21</ele>
        <time>2011-11-19T10:39:11Z</time>
      </trkpt>
      <trkpt lat="44.69256" lon="5.6607">
        <ele>1514.21</ele>
        <time>2011-11-19T10:39:12Z</time>
      </trkpt>
      <trkpt lat="44.69266" lon="5.66069">
        <ele>1517.1</ele>
        <time>2011-11-19T10:39:25Z</time>
      </trkpt>
      <trkpt lat="44.69269" lon="5.66064">
        <ele>1519.02</ele>
        <time>2011-11-19T10:39:37Z</time>
      </trkpt>
      <trkpt lat="44.6927" lon="5.66063">
        <ele>1518.06</ele>
        <time>2011-11-19T10:39:47Z</time>
      </trkpt>
      <trkpt lat="44.6927" lon="5.66064">
        <ele>1518.06</ele>
        <time>2011-11-19T10:40:01Z</time>
      </trkpt>
      <trkpt lat="44.6927" lon="5.66063">
        <ele>1518.54</ele>
        <time>2011-11-19T10:40:11Z</time>
      </trkpt>
      <trkpt lat="44.69279" lon="5.66059">
        <ele>1520.46</ele>
        <time>2011-11-19T10:40:21Z</time>
      </trkpt>
      <trkpt lat="44.69284" lon="5.66055">
        <ele>1521.9</ele>
        <time>2011-11-19T10:40:31Z</time>
      </trkpt>
      <trkpt lat="44.69288" lon="5.66053">
        <ele>1522.87</ele>
        <time>2011-11-19T10:40:35Z</time>
      </trkpt>
      <trkpt lat="44.6929" lon="5.66052">
        <ele>1524.31</ele>
        <time>2011-11-19T10:40:39Z</time>
      </trkpt>
      <trkpt lat="44.69292" lon="5.66052">
        <ele>1525.75</ele>
        <time>2011-11-19T10:40:41Z</time>
      </trkpt>
      <trkpt lat="44.69297" lon="5.66049">
        <ele>1527.19</ele>
        <time>2011-11-19T10:40:49Z</time>
      </trkpt>
      <trkpt lat="44.69304" lon="5.66048">
        <ele>1529.11</ele>
        <time>2011-11-19T10:41:00Z</time>
      </trkpt>
      <trkpt lat="44.69305" lon="5.66048">
        <ele>1530.08</ele>
        <time>2011-11-19T10:41:04Z</time>
      </trkpt>
      <trkpt lat="44.69312" lon="5.66049">
        <ele>1531.04</ele>
        <time>2011-11-19T10:41:15Z</time>
      </trkpt>
      <trkpt lat="44.6932" lon="5.66046">
        <ele>1532.48</ele>
        <time>2011-11-19T10:41:26Z</time>
      </trkpt>
      <trkpt lat="44.69324" lon="5.66047">
        <ele>1535.36</ele>
        <time>2011-11-19T10:41:38Z</time>
      </trkpt>
      <trkpt lat="44.69328" lon="5.6605">
        <ele>1537.29</ele>
        <time>2011-11-19T10:41:44Z</time>
      </trkpt>
      <trkpt lat="44.69336" lon="5.66053">
        <ele>1538.25</ele>
        <time>2011-11-19T10:41:55Z</time>
      </trkpt>
      <trkpt lat="44.6934" lon="5.6605">
        <ele>1540.17</ele>
        <time>2011-11-19T10:42:08Z</time>
      </trkpt>
      <trkpt lat="44.69343" lon="5.66049">
        <ele>1542.09</ele>
        <time>2011-11-19T10:42:20Z</time>
      </trkpt>
      <trkpt lat="44.69343" lon="5.66049">
        <ele>1540.65</ele>
        <time>2011-11-19T10:42:41Z</time>
      </trkpt>
      <trkpt lat="44.69349" lon="5.66047">
        <ele>1542.57</ele>
        <time>2011-11-19T10:43:02Z</time>
      </trkpt>
      <trkpt lat="44.69355" lon="5.66046">
        <ele>1545.46</ele>
        <time>2011-11-19T10:43:08Z</time>
      </trkpt>
      <trkpt lat="44.69357" lon="5.66046">
        <ele>1546.42</ele>
        <time>2011-11-19T10:43:12Z</time>
      </trkpt>
      <trkpt lat="44.69361" lon="5.66044">
        <ele>1548.82</ele>
        <time>2011-11-19T10:43:25Z</time>
      </trkpt>
      <trkpt lat="44.69362" lon="5.66044">
        <ele>1549.3</ele>
        <time>2011-11-19T10:43:39Z</time>
      </trkpt>
      <trkpt lat="44.69362" lon="5.6604">
        <ele>1546.9</ele>
        <time>2011-11-19T10:43:56Z</time>
      </trkpt>
      <trkpt lat="44.69366" lon="5.66037">
        <ele>1546.42</ele>
        <time>2011-11-19T10:44:07Z</time>
      </trkpt>
      <trkpt lat="44.69366" lon="5.66036">
        <ele>1543.05</ele>
        <time>2011-11-19T10:44:26Z</time>
      </trkpt>
      <trkpt lat="44.69366" lon="5.66036">
        <ele>1545.46</ele>
        <time>2011-11-19T10:44:31Z</time>
      </trkpt>
      <trkpt lat="44.6937" lon="5.66036">
        <ele>1547.86</ele>
        <time>2011-11-19T10:44:35Z</time>
      </trkpt>
      <trkpt lat="44.69372" lon="5.66034">
        <ele>1548.82</ele>
        <time>2011-11-19T10:44:37Z</time>
      </trkpt>
      <trkpt lat="44.6938" lon="5.66026">
        <ele>1550.74</ele>
        <time>2011-11-19T10:44:45Z</time>
      </trkpt>
      <trkpt lat="44.69389" lon="5.6602">
        <ele>1554.59</ele>
        <time>2011-11-19T10:44:56Z</time>
      </trkpt>
      <trkpt lat="44.69391" lon="5.66018">
        <ele>1553.63</ele>
        <time>2011-11-19T10:45:08Z</time>
      </trkpt>
      <trkpt lat="44.69392" lon="5.66017">
        <ele>1552.67</ele>
        <time>2011-11-19T10:45:12Z</time>
      </trkpt>
      <trkpt lat="44.69394" lon="5.66016">
        <ele>1554.59</ele>
        <time>2011-11-19T10:45:16Z</time>
      </trkpt>
      <trkpt lat="44.69398" lon="5.66012">
        <ele>1555.07</ele>
        <time>2011-11-19T10:45:24Z</time>
      </trkpt>
      <trkpt lat="44.69401" lon="5.66008">
        <ele>1554.11</ele>
        <time>2011-11-19T10:45:27Z</time>
      </trkpt>
      <trkpt lat="44.69406" lon="5.66006">
        <ele>1554.11</ele>
        <time>2011-11-19T10:45:31Z</time>
      </trkpt>
      <trkpt lat="44.69408" lon="5.66005">
        <ele>1555.07</ele>
        <time>2011-11-19T10:45:34Z</time>
      </trkpt>
      <trkpt lat="44.69412" lon="5.66002">
        <ele>1555.07</ele>
        <time>2011-11-19T10:45:46Z</time>
      </trkpt>
      <trkpt lat="44.69422" lon="5.65989">
        <ele>1556.99</ele>
        <time>2011-11-19T10:46:00Z</time>
      </trkpt>
      <trkpt lat="44.69425" lon="5.65984">
        <ele>1557.95</ele>
        <time>2011-11-19T10:46:19Z</time>
      </trkpt>
      <trkpt lat="44.69428" lon="5.65981">
        <ele>1559.4</ele>
        <time>2011-11-19T10:46:24Z</time>
      </trkpt>
      <trkpt lat="44.6943" lon="5.65979">
        <ele>1560.36</ele>
        <time>2011-11-19T10:46:27Z</time>
      </trkpt>
      <trkpt lat="44.69437" lon="5.65976">
        <ele>1563.24</ele>
        <time>2011-11-19T10:46:35Z</time>
      </trkpt>
      <trkpt lat="44.69446" lon="5.65976">
        <ele>1567.09</ele>
        <time>2011-11-19T10:46:44Z</time>
      </trkpt>
      <trkpt lat="44.69451" lon="5.65975">
        <ele>1569.01</ele>
        <time>2011-11-19T10:46:56Z</time>
      </trkpt>
      <trkpt lat="44.69454" lon="5.65973">
        <ele>1567.57</ele>
        <time>2011-11-19T10:47:03Z</time>
      </trkpt>
      <trkpt lat="44.69456" lon="5.65972">
        <ele>1566.61</ele>
        <time>2011-11-19T10:47:05Z</time>
      </trkpt>
      <trkpt lat="44.69458" lon="5.65971">
        <ele>1569.01</ele>
        <time>2011-11-19T10:47:09Z</time>
      </trkpt>
      <trkpt lat="44.69458" lon="5.65971">
        <ele>1566.61</ele>
        <time>2011-11-19T10:47:11Z</time>
      </trkpt>
      <trkpt lat="44.69458" lon="5.65971">
        <ele>1569.49</ele>
        <time>2011-11-19T10:47:12Z</time>
      </trkpt>
      <trkpt lat="44.6946" lon="5.6597">
        <ele>1570.45</ele>
        <time>2011-11-19T10:47:14Z</time>
      </trkpt>
      <trkpt lat="44.69463" lon="5.6597">
        <ele>1569.01</ele>
        <time>2011-11-19T10:47:17Z</time>
      </trkpt>
      <trkpt lat="44.69469" lon="5.65964">
        <ele>1567.57</ele>
        <time>2011-11-19T10:47:26Z</time>
      </trkpt>
      <trkpt lat="44.69474" lon="5.65962">
        <ele>1569.01</ele>
        <time>2011-11-19T10:47:30Z</time>
      </trkpt>
      <trkpt lat="44.69476" lon="5.65962">
        <ele>1567.57</ele>
        <time>2011-11-19T10:47:32Z</time>
      </trkpt>
      <trkpt lat="44.69479" lon="5.65959">
        <ele>1567.57</ele>
        <time>2011-11-19T10:47:44Z</time>
      </trkpt>
      <trkpt lat="44.69479" lon="5.65959">
        <ele>1567.57</ele>
        <time>2011-11-19T10:47:45Z</time>
      </trkpt>
      <trkpt lat="44.69479" lon="5.65959">
        <ele>1569.01</ele>
        <time>2011-11-19T10:47:50Z</time>
      </trkpt>
      <trkpt lat="44.69485" lon="5.65954">
        <ele>1570.45</ele>
        <time>2011-11-19T10:47:56Z</time>
      </trkpt>
      <trkpt lat="44.69487" lon="5.65953">
        <ele>1568.05</ele>
        <time>2011-11-19T10:47:58Z</time>
      </trkpt>
      <trkpt lat="44.69492" lon="5.65948">
        <ele>1569.01</ele>
        <time>2011-11-19T10:48:04Z</time>
      </trkpt>
      <trkpt lat="44.69495" lon="5.65946">
        <ele>1568.53</ele>
        <time>2011-11-19T10:48:07Z</time>
      </trkpt>
      <trkpt lat="44.69498" lon="5.65943">
        <ele>1566.61</ele>
        <time>2011-11-19T10:48:11Z</time>
      </trkpt>
      <trkpt lat="44.69509" lon="5.65934">
        <ele>1566.12</ele>
        <time>2011-11-19T10:48:22Z</time>
      </trkpt>
      <trkpt lat="44.69511" lon="5.65931">
        <ele>1566.12</ele>
        <time>2011-11-19T10:48:25Z</time>
      </trkpt>
      <trkpt lat="44.69516" lon="5.6593">
        <ele>1566.12</ele>
        <time>2011-11-19T10:48:31Z</time>
      </trkpt>
      <trkpt lat="44.69521" lon="5.65928">
        <ele>1564.68</ele>
        <time>2011-11-19T10:48:41Z</time>
      </trkpt>
      <trkpt lat="44.69521" lon="5.65928">
        <ele>1564.68</ele>
        <time>2011-11-19T10:48:42Z</time>
      </trkpt>
      <trkpt lat="44.69531" lon="5.65929">
        <ele>1566.12</ele>
        <time>2011-11-19T10:48:54Z</time>
      </trkpt>
      <trkpt lat="44.69542" lon="5.65928">
        <ele>1565.64</ele>
        <time>2011-11-19T10:49:06Z</time>
      </trkpt>
      <trkpt lat="44.69548" lon="5.65929">
        <ele>1566.61</ele>
        <time>2011-11-19T10:49:17Z</time>
      </trkpt>
      <trkpt lat="44.69553" lon="5.65932">
        <ele>1568.53</ele>
        <time>2011-11-19T10:49:30Z</time>
      </trkpt>
      <trkpt lat="44.69554" lon="5.65932">
        <ele>1569.01</ele>
        <time>2011-11-19T10:49:40Z</time>
      </trkpt>
      <trkpt lat="44.69557" lon="5.65931">
        <ele>1568.53</ele>
        <time>2011-11-19T10:49:56Z</time>
      </trkpt>
      <trkpt lat="44.69564" lon="5.65929">
        <ele>1571.41</ele>
        <time>2011-11-19T10:50:14Z</time>
      </trkpt>
      <trkpt lat="44.69566" lon="5.65931">
        <ele>1569.97</ele>
        <time>2011-11-19T10:50:23Z</time>
      </trkpt>
      <trkpt lat="44.69567" lon="5.6593">
        <ele>1569.49</ele>
        <time>2011-11-19T10:50:37Z</time>
      </trkpt>
      <trkpt lat="44.69572" lon="5.65928">
        <ele>1568.53</ele>
        <time>2011-11-19T10:50:48Z</time>
      </trkpt>
      <trkpt lat="44.69579" lon="5.65925">
        <ele>1567.09</ele>
        <time>2011-11-19T10:50:59Z</time>
      </trkpt>
      <trkpt lat="44.69584" lon="5.65923">
        <ele>1567.57</ele>
        <time>2011-11-19T10:51:09Z</time>
      </trkpt>
      <trkpt lat="44.69585" lon="5.65921">
        <ele>1568.53</ele>
        <time>2011-11-19T10:51:19Z</time>
      </trkpt>
      <trkpt lat="44.69585" lon="5.6592">
        <ele>1566.61</ele>
        <time>2011-11-19T10:51:32Z</time>
      </trkpt>
      <trkpt lat="44.69584" lon="5.6592">
        <ele>1566.61</ele>
        <time>2011-11-19T10:51:44Z</time>
      </trkpt>
      <trkpt lat="44.69594" lon="5.65917">
        <ele>1565.64</ele>
        <time>2011-11-19T10:51:55Z</time>
      </trkpt>
      <trkpt lat="44.69602" lon="5.65915">
        <ele>1563.72</ele>
        <time>2011-11-19T10:52:08Z</time>
      </trkpt>
      <trkpt lat="44.69602" lon="5.65915">
        <ele>1563.72</ele>
        <time>2011-11-19T10:52:12Z</time>
      </trkpt>
      <trkpt lat="44.69607" lon="5.65911">
        <ele>1559.88</ele>
        <time>2011-11-19T10:52:22Z</time>
      </trkpt>
      <trkpt lat="44.69607" lon="5.65906">
        <ele>1558.92</ele>
        <time>2011-11-19T10:52:27Z</time>
      </trkpt>
      <trkpt lat="44.69609" lon="5.65902">
        <ele>1556.99</ele>
        <time>2011-11-19T10:52:41Z</time>
      </trkpt>
      <trkpt lat="44.69609" lon="5.65894">
        <ele>1555.55</ele>
        <time>2011-11-19T10:52:58Z</time>
      </trkpt>
      <trkpt lat="44.69611" lon="5.65887">
        <ele>1553.63</ele>
        <time>2011-11-19T10:53:03Z</time>
      </trkpt>
      <trkpt lat="44.69613" lon="5.65884">
        <ele>1552.67</ele>
        <time>2011-11-19T10:53:07Z</time>
      </trkpt>
      <trkpt lat="44.69615" lon="5.65881">
        <ele>1552.67</ele>
        <time>2011-11-19T10:53:09Z</time>
      </trkpt>
      <trkpt lat="44.69617" lon="5.65878">
        <ele>1552.19</ele>
        <time>2011-11-19T10:53:12Z</time>
      </trkpt>
      <trkpt lat="44.69622" lon="5.65873">
        <ele>1551.71</ele>
        <time>2011-11-19T10:53:17Z</time>
      </trkpt>
      <trkpt lat="44.69628" lon="5.65864">
        <ele>1551.71</ele>
        <time>2011-11-19T10:53:25Z</time>
      </trkpt>
      <trkpt lat="44.69636" lon="5.65851">
        <ele>1549.3</ele>
        <time>2011-11-19T10:53:37Z</time>
      </trkpt>
      <trkpt lat="44.6964" lon="5.65847">
        <ele>1548.82</ele>
        <time>2011-11-19T10:53:42Z</time>
      </trkpt>
      <trkpt lat="44.69651" lon="5.6584">
        <ele>1547.86</ele>
        <time>2011-11-19T10:53:54Z</time>
      </trkpt>
      <trkpt lat="44.69655" lon="5.65835">
        <ele>1548.34</ele>
        <time>2011-11-19T10:53:58Z</time>
      </trkpt>
      <trkpt lat="44.69659" lon="5.65832">
        <ele>1547.86</ele>
        <time>2011-11-19T10:54:01Z</time>
      </trkpt>
      <trkpt lat="44.69661" lon="5.65829">
        <ele>1548.34</ele>
        <time>2011-11-19T10:54:03Z</time>
      </trkpt>
      <trkpt lat="44.69664" lon="5.65825">
        <ele>1549.78</ele>
        <time>2011-11-19T10:54:16Z</time>
      </trkpt>
      <trkpt lat="44.69667" lon="5.6582">
        <ele>1550.26</ele>
        <time>2011-11-19T10:54:27Z</time>
      </trkpt>
      <trkpt lat="44.69671" lon="5.65817">
        <ele>1551.22</ele>
        <time>2011-11-19T10:54:31Z</time>
      </trkpt>
      <trkpt lat="44.69673" lon="5.65815">
        <ele>1551.22</ele>
        <time>2011-11-19T10:54:33Z</time>
      </trkpt>
      <trkpt lat="44.69675" lon="5.65815">
        <ele>1551.71</ele>
        <time>2011-11-19T10:54:35Z</time>
      </trkpt>
      <trkpt lat="44.69683" lon="5.65809">
        <ele>1552.67</ele>
        <time>2011-11-19T10:54:44Z</time>
      </trkpt>
      <trkpt lat="44.69685" lon="5.65808">
        <ele>1553.15</ele>
        <time>2011-11-19T10:54:46Z</time>
      </trkpt>
      <trkpt lat="44.6969" lon="5.65802">
        <ele>1553.63</ele>
        <time>2011-11-19T10:54:54Z</time>
      </trkpt>
      <trkpt lat="44.69693" lon="5.65801">
        <ele>1555.07</ele>
        <time>2011-11-19T10:54:56Z</time>
      </trkpt>
      <trkpt lat="44.69694" lon="5.658">
        <ele>1555.07</ele>
        <time>2011-11-19T10:54:57Z</time>
      </trkpt>
      <trkpt lat="44.69698" lon="5.65794">
        <ele>1556.03</ele>
        <time>2011-11-19T10:55:04Z</time>
      </trkpt>
      <trkpt lat="44.69704" lon="5.6579">
        <ele>1556.51</ele>
        <time>2011-11-19T10:55:19Z</time>
      </trkpt>
      <trkpt lat="44.69705" lon="5.65789">
        <ele>1556.51</ele>
        <time>2011-11-19T10:55:20Z</time>
      </trkpt>
      <trkpt lat="44.69716" lon="5.65786">
        <ele>1556.99</ele>
        <time>2011-11-19T10:55:31Z</time>
      </trkpt>
      <trkpt lat="44.69719" lon="5.65786">
        <ele>1557.95</ele>
        <time>2011-11-19T10:55:34Z</time>
      </trkpt>
      <trkpt lat="44.69725" lon="5.65784">
        <ele>1558.43</ele>
        <time>2011-11-19T10:55:41Z</time>
      </trkpt>
      <trkpt lat="44.69726" lon="5.65782">
        <ele>1559.88</ele>
        <time>2011-11-19T10:55:44Z</time>
      </trkpt>
      <trkpt lat="44.69734" lon="5.65783">
        <ele>1561.32</ele>
        <time>2011-11-19T10:55:53Z</time>
      </trkpt>
      <trkpt lat="44.69737" lon="5.65785">
        <ele>1561.32</ele>
        <time>2011-11-19T10:55:56Z</time>
      </trkpt>
      <trkpt lat="44.69743" lon="5.65785">
        <ele>1562.28</ele>
        <time>2011-11-19T10:56:03Z</time>
      </trkpt>
      <trkpt lat="44.69747" lon="5.65782">
        <ele>1561.32</ele>
        <time>2011-11-19T10:56:07Z</time>
      </trkpt>
      <trkpt lat="44.69753" lon="5.65778">
        <ele>1559.88</ele>
        <time>2011-11-19T10:56:13Z</time>
      </trkpt>
      <trkpt lat="44.69755" lon="5.65778">
        <ele>1560.36</ele>
        <time>2011-11-19T10:56:25Z</time>
      </trkpt>
      <trkpt lat="44.69755" lon="5.65775">
        <ele>1559.88</ele>
        <time>2011-11-19T10:56:45Z</time>
      </trkpt>
      <trkpt lat="44.69765" lon="5.65772">
        <ele>1561.32</ele>
        <time>2011-11-19T10:56:58Z</time>
      </trkpt>
      <trkpt lat="44.69775" lon="5.65772">
        <ele>1560.36</ele>
        <time>2011-11-19T10:57:11Z</time>
      </trkpt>
      <trkpt lat="44.69783" lon="5.6577">
        <ele>1560.84</ele>
        <time>2011-11-19T10:57:25Z</time>
      </trkpt>
      <trkpt lat="44.69789" lon="5.65769">
        <ele>1562.28</ele>
        <time>2011-11-19T10:57:38Z</time>
      </trkpt>
      <trkpt lat="44.69789" lon="5.65769">
        <ele>1563.24</ele>
        <time>2011-11-19T10:57:50Z</time>
      </trkpt>
      <trkpt lat="44.69795" lon="5.65769">
        <ele>1564.2</ele>
        <time>2011-11-19T10:57:59Z</time>
      </trkpt>
      <trkpt lat="44.69802" lon="5.65765">
        <ele>1563.72</ele>
        <time>2011-11-19T10:58:11Z</time>
      </trkpt>
      <trkpt lat="44.69808" lon="5.65759">
        <ele>1563.72</ele>
        <time>2011-11-19T10:58:24Z</time>
      </trkpt>
      <trkpt lat="44.69813" lon="5.65756">
        <ele>1565.16</ele>
        <time>2011-11-19T10:58:31Z</time>
      </trkpt>
      <trkpt lat="44.69816" lon="5.6575">
        <ele>1566.61</ele>
        <time>2011-11-19T10:58:39Z</time>
      </trkpt>
      <trkpt lat="44.69819" lon="5.65746">
        <ele>1568.05</ele>
        <time>2011-11-19T10:58:44Z</time>
      </trkpt>
      <trkpt lat="44.69826" lon="5.65742">
        <ele>1568.05</ele>
        <time>2011-11-19T10:58:54Z</time>
      </trkpt>
      <trkpt lat="44.6983" lon="5.65741">
        <ele>1572.37</ele>
        <time>2011-11-19T10:59:00Z</time>
      </trkpt>
      <trkpt lat="44.69832" lon="5.65739">
        <ele>1570.45</ele>
        <time>2011-11-19T10:59:03Z</time>
      </trkpt>
      <trkpt lat="44.6984" lon="5.65737">
        <ele>1572.37</ele>
        <time>2011-11-19T10:59:15Z</time>
      </trkpt>
      <trkpt lat="44.69841" lon="5.65737">
        <ele>1573.82</ele>
        <time>2011-11-19T10:59:17Z</time>
      </trkpt>
      <trkpt lat="44.69849" lon="5.65735">
        <ele>1576.22</ele>
        <time>2011-11-19T10:59:30Z</time>
      </trkpt>
      <trkpt lat="44.6985" lon="5.65735">
        <ele>1573.33</ele>
        <time>2011-11-19T10:59:31Z</time>
      </trkpt>
      <trkpt lat="44.69852" lon="5.65735">
        <ele>1576.22</ele>
        <time>2011-11-19T10:59:33Z</time>
      </trkpt>
      <trkpt lat="44.6986" lon="5.65736">
        <ele>1576.22</ele>
        <time>2011-11-19T10:59:44Z</time>
      </trkpt>
      <trkpt lat="44.69866" lon="5.65732">
        <ele>1576.7</ele>
        <time>2011-11-19T10:59:53Z</time>
      </trkpt>
      <trkpt lat="44.69875" lon="5.65731">
        <ele>1579.1</ele>
        <time>2011-11-19T11:00:05Z</time>
      </trkpt>
      <trkpt lat="44.69886" lon="5.65731">
        <ele>1581.99</ele>
        <time>2011-11-19T11:00:17Z</time>
      </trkpt>
      <trkpt lat="44.69893" lon="5.65729">
        <ele>1583.91</ele>
        <time>2011-11-19T11:00:26Z</time>
      </trkpt>
      <trkpt lat="44.69899" lon="5.65728">
        <ele>1583.43</ele>
        <time>2011-11-19T11:00:34Z</time>
      </trkpt>
      <trkpt lat="44.69904" lon="5.65728">
        <ele>1585.35</ele>
        <time>2011-11-19T11:00:41Z</time>
      </trkpt>
      <trkpt lat="44.69907" lon="5.65727">
        <ele>1585.83</ele>
        <time>2011-11-19T11:00:49Z</time>
      </trkpt>
      <trkpt lat="44.69912" lon="5.65726">
        <ele>1586.79</ele>
        <time>2011-11-19T11:00:55Z</time>
      </trkpt>
      <trkpt lat="44.69913" lon="5.65725">
        <ele>1586.79</ele>
        <time>2011-11-19T11:00:56Z</time>
      </trkpt>
      <trkpt lat="44.69922" lon="5.65721">
        <ele>1587.27</ele>
        <time>2011-11-19T11:01:09Z</time>
      </trkpt>
      <trkpt lat="44.69924" lon="5.6572">
        <ele>1588.24</ele>
        <time>2011-11-19T11:01:12Z</time>
      </trkpt>
      <trkpt lat="44.69927" lon="5.6572">
        <ele>1589.2</ele>
        <time>2011-11-19T11:01:15Z</time>
      </trkpt>
      <trkpt lat="44.6993" lon="5.6572">
        <ele>1589.2</ele>
        <time>2011-11-19T11:01:18Z</time>
      </trkpt>
      <trkpt lat="44.69935" lon="5.65718">
        <ele>1588.72</ele>
        <time>2011-11-19T11:01:23Z</time>
      </trkpt>
      <trkpt lat="44.69938" lon="5.65718">
        <ele>1588.72</ele>
        <time>2011-11-19T11:01:26Z</time>
      </trkpt>
      <trkpt lat="44.69951" lon="5.65713">
        <ele>1587.75</ele>
        <time>2011-11-19T11:01:38Z</time>
      </trkpt>
      <trkpt lat="44.69953" lon="5.65713">
        <ele>1587.27</ele>
        <time>2011-11-19T11:01:51Z</time>
      </trkpt>
      <trkpt lat="44.69958" lon="5.65712">
        <ele>1587.75</ele>
        <time>2011-11-19T11:02:07Z</time>
      </trkpt>
      <trkpt lat="44.69969" lon="5.65715">
        <ele>1586.79</ele>
        <time>2011-11-19T11:02:20Z</time>
      </trkpt>
      <trkpt lat="44.69976" lon="5.65717">
        <ele>1587.27</ele>
        <time>2011-11-19T11:02:28Z</time>
      </trkpt>
      <trkpt lat="44.69977" lon="5.65716">
        <ele>1586.79</ele>
        <time>2011-11-19T11:02:31Z</time>
      </trkpt>
      <trkpt lat="44.69987" lon="5.65718">
        <ele>1587.75</ele>
        <time>2011-11-19T11:02:42Z</time>
      </trkpt>
      <trkpt lat="44.69991" lon="5.65715">
        <ele>1588.72</ele>
        <time>2011-11-19T11:02:47Z</time>
      </trkpt>
      <trkpt lat="44.69994" lon="5.65715">
        <ele>1589.68</ele>
        <time>2011-11-19T11:02:50Z</time>
      </trkpt>
      <trkpt lat="44.69998" lon="5.65714">
        <ele>1590.64</ele>
        <time>2011-11-19T11:02:57Z</time>
      </trkpt>
      <trkpt lat="44.7" lon="5.65713">
        <ele>1591.12</ele>
        <time>2011-11-19T11:03:02Z</time>
      </trkpt>
      <trkpt lat="44.70013" lon="5.65716">
        <ele>1591.6</ele>
        <time>2011-11-19T11:03:15Z</time>
      </trkpt>
      <trkpt lat="44.70019" lon="5.65717">
        <ele>1590.64</ele>
        <time>2011-11-19T11:03:28Z</time>
      </trkpt>
      <trkpt lat="44.7003" lon="5.65718">
        <ele>1591.12</ele>
        <time>2011-11-19T11:03:39Z</time>
      </trkpt>
      <trkpt lat="44.70043" lon="5.65718">
        <ele>1592.08</ele>
        <time>2011-11-19T11:03:49Z</time>
      </trkpt>
      <trkpt lat="44.70055" lon="5.65719">
        <ele>1592.56</ele>
        <time>2011-11-19T11:04:01Z</time>
      </trkpt>
      <trkpt lat="44.70056" lon="5.65719">
        <ele>1592.56</ele>
        <time>2011-11-19T11:04:03Z</time>
      </trkpt>
      <trkpt lat="44.70063" lon="5.65722">
        <ele>1593.04</ele>
        <time>2011-11-19T11:04:10Z</time>
      </trkpt>
      <trkpt lat="44.70067" lon="5.65722">
        <ele>1593.52</ele>
        <time>2011-11-19T11:04:15Z</time>
      </trkpt>
      <trkpt lat="44.7007" lon="5.65723">
        <ele>1593.04</ele>
        <time>2011-11-19T11:04:18Z</time>
      </trkpt>
      <trkpt lat="44.70083" lon="5.65722">
        <ele>1594</ele>
        <time>2011-11-19T11:04:29Z</time>
      </trkpt>
      <trkpt lat="44.70087" lon="5.65723">
        <ele>1593.52</ele>
        <time>2011-11-19T11:04:34Z</time>
      </trkpt>
      <trkpt lat="44.70094" lon="5.65723">
        <ele>1594.96</ele>
        <time>2011-11-19T11:04:43Z</time>
      </trkpt>
      <trkpt lat="44.70103" lon="5.65723">
        <ele>1597.37</ele>
        <time>2011-11-19T11:04:55Z</time>
      </trkpt>
      <trkpt lat="44.70112" lon="5.65723">
        <ele>1598.81</ele>
        <time>2011-11-19T11:05:06Z</time>
      </trkpt>
      <trkpt lat="44.70119" lon="5.65722">
        <ele>1599.77</ele>
        <time>2011-11-19T11:05:17Z</time>
      </trkpt>
      <trkpt lat="44.70128" lon="5.65723">
        <ele>1601.21</ele>
        <time>2011-11-19T11:05:28Z</time>
      </trkpt>
      <trkpt lat="44.7013" lon="5.65723">
        <ele>1601.69</ele>
        <time>2011-11-19T11:05:30Z</time>
      </trkpt>
      <trkpt lat="44.70144" lon="5.65723">
        <ele>1602.66</ele>
        <time>2011-11-19T11:05:41Z</time>
      </trkpt>
      <trkpt lat="44.70149" lon="5.65722">
        <ele>1602.17</ele>
        <time>2011-11-19T11:05:45Z</time>
      </trkpt>
      <trkpt lat="44.70154" lon="5.65721">
        <ele>1602.66</ele>
        <time>2011-11-19T11:05:59Z</time>
      </trkpt>
      <trkpt lat="44.70155" lon="5.65721">
        <ele>1602.66</ele>
        <time>2011-11-19T11:06:14Z</time>
      </trkpt>
      <trkpt lat="44.70156" lon="5.65722">
        <ele>1602.66</ele>
        <time>2011-11-19T11:06:18Z</time>
      </trkpt>
      <trkpt lat="44.70164" lon="5.65726">
        <ele>1604.58</ele>
        <time>2011-11-19T11:06:27Z</time>
      </trkpt>
      <trkpt lat="44.70169" lon="5.65727">
        <ele>1606.98</ele>
        <time>2011-11-19T11:06:37Z</time>
      </trkpt>
      <trkpt lat="44.70176" lon="5.65729">
        <ele>1608.42</ele>
        <time>2011-11-19T11:06:49Z</time>
      </trkpt>
      <trkpt lat="44.70184" lon="5.65731">
        <ele>1608.42</ele>
        <time>2011-11-19T11:07:00Z</time>
      </trkpt>
      <trkpt lat="44.70185" lon="5.65732">
        <ele>1606.98</ele>
        <time>2011-11-19T11:07:02Z</time>
      </trkpt>
      <trkpt lat="44.70191" lon="5.65734">
        <ele>1608.9</ele>
        <time>2011-11-19T11:07:14Z</time>
      </trkpt>
      <trkpt lat="44.70195" lon="5.65734">
        <ele>1609.38</ele>
        <time>2011-11-19T11:07:18Z</time>
      </trkpt>
      <trkpt lat="44.70202" lon="5.65734">
        <ele>1611.31</ele>
        <time>2011-11-19T11:07:29Z</time>
      </trkpt>
      <trkpt lat="44.70209" lon="5.65738">
        <ele>1613.23</ele>
        <time>2011-11-19T11:07:40Z</time>
      </trkpt>
      <trkpt lat="44.70218" lon="5.65736">
        <ele>1613.23</ele>
        <time>2011-11-19T11:07:54Z</time>
      </trkpt>
      <trkpt lat="44.70219" lon="5.65735">
        <ele>1613.71</ele>
        <time>2011-11-19T11:07:56Z</time>
      </trkpt>
      <trkpt lat="44.70221" lon="5.65735">
        <ele>1614.19</ele>
        <time>2011-11-19T11:07:58Z</time>
      </trkpt>
      <trkpt lat="44.70231" lon="5.65734">
        <ele>1614.67</ele>
        <time>2011-11-19T11:08:10Z</time>
      </trkpt>
      <trkpt lat="44.70238" lon="5.65732">
        <ele>1615.15</ele>
        <time>2011-11-19T11:08:20Z</time>
      </trkpt>
      <trkpt lat="44.70242" lon="5.65729">
        <ele>1616.11</ele>
        <time>2011-11-19T11:08:25Z</time>
      </trkpt>
      <trkpt lat="44.70251" lon="5.6573">
        <ele>1617.56</ele>
        <time>2011-11-19T11:08:41Z</time>
      </trkpt>
      <trkpt lat="44.70251" lon="5.6573">
        <ele>1616.59</ele>
        <time>2011-11-19T11:08:43Z</time>
      </trkpt>
      <trkpt lat="44.70256" lon="5.65729">
        <ele>1616.11</ele>
        <time>2011-11-19T11:09:02Z</time>
      </trkpt>
      <trkpt lat="44.70262" lon="5.65731">
        <ele>1617.07</ele>
        <time>2011-11-19T11:09:10Z</time>
      </trkpt>
      <trkpt lat="44.70274" lon="5.6573">
        <ele>1617.56</ele>
        <time>2011-11-19T11:09:22Z</time>
      </trkpt>
      <trkpt lat="44.70278" lon="5.6573">
        <ele>1618.52</ele>
        <time>2011-11-19T11:09:26Z</time>
      </trkpt>
      <trkpt lat="44.70286" lon="5.6573">
        <ele>1619.96</ele>
        <time>2011-11-19T11:09:39Z</time>
      </trkpt>
      <trkpt lat="44.70295" lon="5.6573">
        <ele>1621.4</ele>
        <time>2011-11-19T11:09:51Z</time>
      </trkpt>
      <trkpt lat="44.70302" lon="5.65728">
        <ele>1621.88</ele>
        <time>2011-11-19T11:10:02Z</time>
      </trkpt>
      <trkpt lat="44.70311" lon="5.65726">
        <ele>1622.36</ele>
        <time>2011-11-19T11:10:12Z</time>
      </trkpt>
      <trkpt lat="44.70318" lon="5.65725">
        <ele>1622.84</ele>
        <time>2011-11-19T11:10:22Z</time>
      </trkpt>
      <trkpt lat="44.7033" lon="5.65723">
        <ele>1622.36</ele>
        <time>2011-11-19T11:10:33Z</time>
      </trkpt>
      <trkpt lat="44.70332" lon="5.65721">
        <ele>1623.32</ele>
        <time>2011-11-19T11:10:36Z</time>
      </trkpt>
      <trkpt lat="44.70334" lon="5.6572">
        <ele>1623.32</ele>
        <time>2011-11-19T11:10:38Z</time>
      </trkpt>
      <trkpt lat="44.70342" lon="5.65719">
        <ele>1624.28</ele>
        <time>2011-11-19T11:10:46Z</time>
      </trkpt>
      <trkpt lat="44.7035" lon="5.65716">
        <ele>1623.8</ele>
        <time>2011-11-19T11:10:56Z</time>
      </trkpt>
      <trkpt lat="44.70353" lon="5.65716">
        <ele>1624.28</ele>
        <time>2011-11-19T11:11:00Z</time>
      </trkpt>
      <trkpt lat="44.70359" lon="5.65714">
        <ele>1623.8</ele>
        <time>2011-11-19T11:11:05Z</time>
      </trkpt>
      <trkpt lat="44.70365" lon="5.65713">
        <ele>1624.28</ele>
        <time>2011-11-19T11:11:10Z</time>
      </trkpt>
      <trkpt lat="44.70367" lon="5.65711">
        <ele>1624.28</ele>
        <time>2011-11-19T11:11:13Z</time>
      </trkpt>
      <trkpt lat="44.70374" lon="5.6571">
        <ele>1623.32</ele>
        <time>2011-11-19T11:11:21Z</time>
      </trkpt>
      <trkpt lat="44.70377" lon="5.65709">
        <ele>1623.8</ele>
        <time>2011-11-19T11:11:24Z</time>
      </trkpt>
      <trkpt lat="44.70392" lon="5.65706">
        <ele>1623.32</ele>
        <time>2011-11-19T11:11:36Z</time>
      </trkpt>
      <trkpt lat="44.70401" lon="5.65704">
        <ele>1622.84</ele>
        <time>2011-11-19T11:11:44Z</time>
      </trkpt>
      <trkpt lat="44.70403" lon="5.65703">
        <ele>1622.84</ele>
        <time>2011-11-19T11:11:46Z</time>
      </trkpt>
      <trkpt lat="44.70421" lon="5.65698">
        <ele>1621.4</ele>
        <time>2011-11-19T11:12:01Z</time>
      </trkpt>
      <trkpt lat="44.70426" lon="5.65698">
        <ele>1621.88</ele>
        <time>2011-11-19T11:12:05Z</time>
      </trkpt>
      <trkpt lat="44.70427" lon="5.65697">
        <ele>1621.4</ele>
        <time>2011-11-19T11:12:07Z</time>
      </trkpt>
      <trkpt lat="44.70439" lon="5.65695">
        <ele>1620.44</ele>
        <time>2011-11-19T11:12:18Z</time>
      </trkpt>
      <trkpt lat="44.70442" lon="5.65693">
        <ele>1620.92</ele>
        <time>2011-11-19T11:12:22Z</time>
      </trkpt>
      <trkpt lat="44.70444" lon="5.65693">
        <ele>1620.92</ele>
        <time>2011-11-19T11:12:24Z</time>
      </trkpt>
      <trkpt lat="44.70447" lon="5.65692">
        <ele>1620.92</ele>
        <time>2011-11-19T11:12:29Z</time>
      </trkpt>
      <trkpt lat="44.7046" lon="5.65689">
        <ele>1621.88</ele>
        <time>2011-11-19T11:12:40Z</time>
      </trkpt>
      <trkpt lat="44.70471" lon="5.65684">
        <ele>1621.4</ele>
        <time>2011-11-19T11:12:51Z</time>
      </trkpt>
      <trkpt lat="44.70475" lon="5.65682">
        <ele>1620.92</ele>
        <time>2011-11-19T11:12:55Z</time>
      </trkpt>
      <trkpt lat="44.70483" lon="5.65677">
        <ele>1620.44</ele>
        <time>2011-11-19T11:13:04Z</time>
      </trkpt>
      <trkpt lat="44.70499" lon="5.65672">
        <ele>1618.52</ele>
        <time>2011-11-19T11:13:18Z</time>
      </trkpt>
      <trkpt lat="44.70503" lon="5.6567">
        <ele>1617.56</ele>
        <time>2011-11-19T11:13:22Z</time>
      </trkpt>
      <trkpt lat="44.70518" lon="5.65662">
        <ele>1616.59</ele>
        <time>2011-11-19T11:13:35Z</time>
      </trkpt>
      <trkpt lat="44.7052" lon="5.65662">
        <ele>1615.15</ele>
        <time>2011-11-19T11:13:37Z</time>
      </trkpt>
      <trkpt lat="44.70534" lon="5.65656">
        <ele>1614.19</ele>
        <time>2011-11-19T11:13:51Z</time>
      </trkpt>
      <trkpt lat="44.70549" lon="5.6565">
        <ele>1613.71</ele>
        <time>2011-11-19T11:14:04Z</time>
      </trkpt>
      <trkpt lat="44.7055" lon="5.65649">
        <ele>1613.23</ele>
        <time>2011-11-19T11:14:05Z</time>
      </trkpt>
      <trkpt lat="44.70553" lon="5.65649">
        <ele>1613.71</ele>
        <time>2011-11-19T11:14:11Z</time>
      </trkpt>
      <trkpt lat="44.70561" lon="5.65649">
        <ele>1614.19</ele>
        <time>2011-11-19T11:14:21Z</time>
      </trkpt>
      <trkpt lat="44.70565" lon="5.65647">
        <ele>1613.71</ele>
        <time>2011-11-19T11:14:26Z</time>
      </trkpt>
      <trkpt lat="44.70567" lon="5.65646">
        <ele>1615.15</ele>
        <time>2011-11-19T11:14:28Z</time>
      </trkpt>
      <trkpt lat="44.70581" lon="5.65645">
        <ele>1614.19</ele>
        <time>2011-11-19T11:14:41Z</time>
      </trkpt>
      <trkpt lat="44.70587" lon="5.65644">
        <ele>1614.19</ele>
        <time>2011-11-19T11:14:47Z</time>
      </trkpt>
      <trkpt lat="44.706" lon="5.65637">
        <ele>1613.23</ele>
        <time>2011-11-19T11:14:59Z</time>
      </trkpt>
      <trkpt lat="44.7061" lon="5.65633">
        <ele>1613.71</ele>
        <time>2011-11-19T11:15:10Z</time>
      </trkpt>
      <trkpt lat="44.70616" lon="5.6563">
        <ele>1614.67</ele>
        <time>2011-11-19T11:15:16Z</time>
      </trkpt>
      <trkpt lat="44.70624" lon="5.65628">
        <ele>1613.23</ele>
        <time>2011-11-19T11:15:23Z</time>
      </trkpt>
      <trkpt lat="44.70631" lon="5.65626">
        <ele>1613.71</ele>
        <time>2011-11-19T11:15:29Z</time>
      </trkpt>
      <trkpt lat="44.70638" lon="5.65625">
        <ele>1613.71</ele>
        <time>2011-11-19T11:15:37Z</time>
      </trkpt>
      <trkpt lat="44.70639" lon="5.65624">
        <ele>1614.67</ele>
        <time>2011-11-19T11:15:39Z</time>
      </trkpt>
      <trkpt lat="44.70645" lon="5.65621">
        <ele>1616.11</ele>
        <time>2011-11-19T11:15:49Z</time>
      </trkpt>
      <trkpt lat="44.70647" lon="5.65618">
        <ele>1616.11</ele>
        <time>2011-11-19T11:15:52Z</time>
      </trkpt>
      <trkpt lat="44.70649" lon="5.65616">
        <ele>1615.15</ele>
        <time>2011-11-19T11:15:54Z</time>
      </trkpt>
      <trkpt lat="44.70651" lon="5.65616">
        <ele>1615.63</ele>
        <time>2011-11-19T11:15:56Z</time>
      </trkpt>
      <trkpt lat="44.70655" lon="5.65616">
        <ele>1616.11</ele>
        <time>2011-11-19T11:16:01Z</time>
      </trkpt>
      <trkpt lat="44.70659" lon="5.65617">
        <ele>1616.59</ele>
        <time>2011-11-19T11:16:04Z</time>
      </trkpt>
      <trkpt lat="44.70667" lon="5.65617">
        <ele>1617.07</ele>
        <time>2011-11-19T11:16:11Z</time>
      </trkpt>
      <trkpt lat="44.70669" lon="5.65618">
        <ele>1617.56</ele>
        <time>2011-11-19T11:16:13Z</time>
      </trkpt>
      <trkpt lat="44.70675" lon="5.65617">
        <ele>1618.04</ele>
        <time>2011-11-19T11:16:19Z</time>
      </trkpt>
      <trkpt lat="44.70677" lon="5.65615">
        <ele>1618.52</ele>
        <time>2011-11-19T11:16:23Z</time>
      </trkpt>
      <trkpt lat="44.70678" lon="5.65615">
        <ele>1619</ele>
        <time>2011-11-19T11:16:25Z</time>
      </trkpt>
      <trkpt lat="44.70685" lon="5.65615">
        <ele>1619.96</ele>
        <time>2011-11-19T11:16:34Z</time>
      </trkpt>
      <trkpt lat="44.70687" lon="5.65616">
        <ele>1620.44</ele>
        <time>2011-11-19T11:16:36Z</time>
      </trkpt>
      <trkpt lat="44.70693" lon="5.65616">
        <ele>1621.4</ele>
        <time>2011-11-19T11:16:42Z</time>
      </trkpt>
      <trkpt lat="44.70701" lon="5.65616">
        <ele>1622.84</ele>
        <time>2011-11-19T11:16:50Z</time>
      </trkpt>
      <trkpt lat="44.70707" lon="5.65615">
        <ele>1623.8</ele>
        <time>2011-11-19T11:16:56Z</time>
      </trkpt>
      <trkpt lat="44.70709" lon="5.65614">
        <ele>1623.32</ele>
        <time>2011-11-19T11:16:58Z</time>
      </trkpt>
      <trkpt lat="44.70713" lon="5.65615">
        <ele>1624.77</ele>
        <time>2011-11-19T11:17:04Z</time>
      </trkpt>
      <trkpt lat="44.70715" lon="5.65614">
        <ele>1624.77</ele>
        <time>2011-11-19T11:17:06Z</time>
      </trkpt>
      <trkpt lat="44.70727" lon="5.65616">
        <ele>1626.21</ele>
        <time>2011-11-19T11:17:19Z</time>
      </trkpt>
      <trkpt lat="44.70735" lon="5.65616">
        <ele>1629.09</ele>
        <time>2011-11-19T11:17:30Z</time>
      </trkpt>
      <trkpt lat="44.70736" lon="5.65615">
        <ele>1629.09</ele>
        <time>2011-11-19T11:17:34Z</time>
      </trkpt>
      <trkpt lat="44.70737" lon="5.65615">
        <ele>1629.57</ele>
        <time>2011-11-19T11:17:36Z</time>
      </trkpt>
      <trkpt lat="44.70741" lon="5.65615">
        <ele>1630.53</ele>
        <time>2011-11-19T11:17:42Z</time>
      </trkpt>
      <trkpt lat="44.70746" lon="5.65616">
        <ele>1631.01</ele>
        <time>2011-11-19T11:17:47Z</time>
      </trkpt>
      <trkpt lat="44.70753" lon="5.65615">
        <ele>1632.46</ele>
        <time>2011-11-19T11:17:55Z</time>
      </trkpt>
      <trkpt lat="44.70757" lon="5.65613">
        <ele>1632.46</ele>
        <time>2011-11-19T11:18:04Z</time>
      </trkpt>
      <trkpt lat="44.70764" lon="5.65612">
        <ele>1633.9</ele>
        <time>2011-11-19T11:18:12Z</time>
      </trkpt>
      <trkpt lat="44.70769" lon="5.65612">
        <ele>1634.38</ele>
        <time>2011-11-19T11:18:17Z</time>
      </trkpt>
      <trkpt lat="44.70777" lon="5.65608">
        <ele>1634.38</ele>
        <time>2011-11-19T11:18:28Z</time>
      </trkpt>
      <trkpt lat="44.7078" lon="5.65609">
        <ele>1635.34</ele>
        <time>2011-11-19T11:18:31Z</time>
      </trkpt>
      <trkpt lat="44.70792" lon="5.6561">
        <ele>1635.82</ele>
        <time>2011-11-19T11:18:42Z</time>
      </trkpt>
      <trkpt lat="44.70795" lon="5.6561">
        <ele>1635.34</ele>
        <time>2011-11-19T11:18:45Z</time>
      </trkpt>
      <trkpt lat="44.70801" lon="5.65609">
        <ele>1635.82</ele>
        <time>2011-11-19T11:18:50Z</time>
      </trkpt>
      <trkpt lat="44.70807" lon="5.6561">
        <ele>1636.78</ele>
        <time>2011-11-19T11:18:57Z</time>
      </trkpt>
      <trkpt lat="44.70811" lon="5.6561">
        <ele>1636.78</ele>
        <time>2011-11-19T11:19:01Z</time>
      </trkpt>
      <trkpt lat="44.70823" lon="5.65608">
        <ele>1637.26</ele>
        <time>2011-11-19T11:19:15Z</time>
      </trkpt>
      <trkpt lat="44.70824" lon="5.65608">
        <ele>1637.26</ele>
        <time>2011-11-19T11:19:16Z</time>
      </trkpt>
      <trkpt lat="44.70829" lon="5.65609">
        <ele>1637.26</ele>
        <time>2011-11-19T11:19:20Z</time>
      </trkpt>
      <trkpt lat="44.70835" lon="5.65609">
        <ele>1637.26</ele>
        <time>2011-11-19T11:19:25Z</time>
      </trkpt>
      <trkpt lat="44.70844" lon="5.65609">
        <ele>1637.74</ele>
        <time>2011-11-19T11:19:37Z</time>
      </trkpt>
      <trkpt lat="44.70853" lon="5.6561">
        <ele>1639.67</ele>
        <time>2011-11-19T11:19:48Z</time>
      </trkpt>
      <trkpt lat="44.70864" lon="5.65607">
        <ele>1639.19</ele>
        <time>2011-11-19T11:20:02Z</time>
      </trkpt>
      <trkpt lat="44.70875" lon="5.65603">
        <ele>1640.15</ele>
        <time>2011-11-19T11:20:16Z</time>
      </trkpt>
      <trkpt lat="44.70887" lon="5.65602">
        <ele>1641.59</ele>
        <time>2011-11-19T11:20:29Z</time>
      </trkpt>
      <trkpt lat="44.70889" lon="5.65601">
        <ele>1641.11</ele>
        <time>2011-11-19T11:20:31Z</time>
      </trkpt>
      <trkpt lat="44.70894" lon="5.65599">
        <ele>1640.15</ele>
        <time>2011-11-19T11:20:35Z</time>
      </trkpt>
      <trkpt lat="44.70905" lon="5.65593">
        <ele>1637.74</ele>
        <time>2011-11-19T11:20:48Z</time>
      </trkpt>
      <trkpt lat="44.70907" lon="5.65593">
        <ele>1638.22</ele>
        <time>2011-11-19T11:20:50Z</time>
      </trkpt>
      <trkpt lat="44.70917" lon="5.65592">
        <ele>1638.7</ele>
        <time>2011-11-19T11:21:01Z</time>
      </trkpt>
      <trkpt lat="44.70923" lon="5.65592">
        <ele>1639.19</ele>
        <time>2011-11-19T11:21:09Z</time>
      </trkpt>
      <trkpt lat="44.70928" lon="5.65591">
        <ele>1639.67</ele>
        <time>2011-11-19T11:21:14Z</time>
      </trkpt>
      <trkpt lat="44.70937" lon="5.65589">
        <ele>1640.15</ele>
        <time>2011-11-19T11:21:25Z</time>
      </trkpt>
      <trkpt lat="44.70944" lon="5.65588">
        <ele>1640.63</ele>
        <time>2011-11-19T11:21:35Z</time>
      </trkpt>
      <trkpt lat="44.70948" lon="5.65586">
        <ele>1640.15</ele>
        <time>2011-11-19T11:21:42Z</time>
      </trkpt>
      <trkpt lat="44.70953" lon="5.65582">
        <ele>1641.59</ele>
        <time>2011-11-19T11:21:48Z</time>
      </trkpt>
      <trkpt lat="44.70965" lon="5.65579">
        <ele>1642.07</ele>
        <time>2011-11-19T11:22:00Z</time>
      </trkpt>
      <trkpt lat="44.70969" lon="5.65579">
        <ele>1642.07</ele>
        <time>2011-11-19T11:22:04Z</time>
      </trkpt>
      <trkpt lat="44.70975" lon="5.65576">
        <ele>1642.55</ele>
        <time>2011-11-19T11:22:12Z</time>
      </trkpt>
      <trkpt lat="44.7098" lon="5.65573">
        <ele>1642.07</ele>
        <time>2011-11-19T11:22:16Z</time>
      </trkpt>
      <trkpt lat="44.7099" lon="5.65567">
        <ele>1642.55</ele>
        <time>2011-11-19T11:22:28Z</time>
      </trkpt>
      <trkpt lat="44.71" lon="5.65563">
        <ele>1643.51</ele>
        <time>2011-11-19T11:22:39Z</time>
      </trkpt>
      <trkpt lat="44.71008" lon="5.65559">
        <ele>1643.51</ele>
        <time>2011-11-19T11:22:47Z</time>
      </trkpt>
      <trkpt lat="44.71017" lon="5.65552">
        <ele>1644.95</ele>
        <time>2011-11-19T11:23:00Z</time>
      </trkpt>
      <trkpt lat="44.71018" lon="5.65552">
        <ele>1645.91</ele>
        <time>2011-11-19T11:23:01Z</time>
      </trkpt>
      <trkpt lat="44.71028" lon="5.65548">
        <ele>1646.4</ele>
        <time>2011-11-19T11:23:12Z</time>
      </trkpt>
      <trkpt lat="44.71037" lon="5.65544">
        <ele>1646.4</ele>
        <time>2011-11-19T11:23:23Z</time>
      </trkpt>
      <trkpt lat="44.71044" lon="5.65542">
        <ele>1647.84</ele>
        <time>2011-11-19T11:23:30Z</time>
      </trkpt>
      <trkpt lat="44.71051" lon="5.65537">
        <ele>1647.36</ele>
        <time>2011-11-19T11:23:44Z</time>
      </trkpt>
      <trkpt lat="44.7106" lon="5.65535">
        <ele>1647.84</ele>
        <time>2011-11-19T11:23:55Z</time>
      </trkpt>
      <trkpt lat="44.7107" lon="5.65528">
        <ele>1647.36</ele>
        <time>2011-11-19T11:24:08Z</time>
      </trkpt>
      <trkpt lat="44.71077" lon="5.65524">
        <ele>1649.76</ele>
        <time>2011-11-19T11:24:20Z</time>
      </trkpt>
      <trkpt lat="44.71079" lon="5.65523">
        <ele>1650.24</ele>
        <time>2011-11-19T11:24:23Z</time>
      </trkpt>
      <trkpt lat="44.7109" lon="5.65516">
        <ele>1649.76</ele>
        <time>2011-11-19T11:24:36Z</time>
      </trkpt>
      <trkpt lat="44.71092" lon="5.65516">
        <ele>1650.24</ele>
        <time>2011-11-19T11:24:38Z</time>
      </trkpt>
      <trkpt lat="44.71101" lon="5.65514">
        <ele>1650.72</ele>
        <time>2011-11-19T11:24:49Z</time>
      </trkpt>
      <trkpt lat="44.71115" lon="5.65514">
        <ele>1650.72</ele>
        <time>2011-11-19T11:25:02Z</time>
      </trkpt>
      <trkpt lat="44.71129" lon="5.65515">
        <ele>1648.8</ele>
        <time>2011-11-19T11:25:16Z</time>
      </trkpt>
      <trkpt lat="44.71139" lon="5.65516">
        <ele>1646.4</ele>
        <time>2011-11-19T11:25:32Z</time>
      </trkpt>
      <trkpt lat="44.71141" lon="5.65515">
        <ele>1644.47</ele>
        <time>2011-11-19T11:25:43Z</time>
      </trkpt>
      <trkpt lat="44.71141" lon="5.65515">
        <ele>1644.95</ele>
        <time>2011-11-19T11:26:03Z</time>
      </trkpt>
      <trkpt lat="44.71141" lon="5.65515">
        <ele>1644.95</ele>
        <time>2011-11-19T11:26:25Z</time>
      </trkpt>
      <trkpt lat="44.71141" lon="5.65515">
        <ele>1643.99</ele>
        <time>2011-11-19T11:26:39Z</time>
      </trkpt>
      <trkpt lat="44.7114" lon="5.65516">
        <ele>1643.03</ele>
        <time>2011-11-19T11:27:01Z</time>
      </trkpt>
      <trkpt lat="44.7114" lon="5.65516">
        <ele>1643.51</ele>
        <time>2011-11-19T11:27:19Z</time>
      </trkpt>
      <trkpt lat="44.7114" lon="5.65516">
        <ele>1643.99</ele>
        <time>2011-11-19T11:27:38Z</time>
      </trkpt>
      <trkpt lat="44.7114" lon="5.65516">
        <ele>1644.47</ele>
        <time>2011-11-19T11:27:56Z</time>
      </trkpt>
      <trkpt lat="44.7114" lon="5.65516">
        <ele>1643.99</ele>
        <time>2011-11-19T11:28:13Z</time>
      </trkpt>
      <trkpt lat="44.7114" lon="5.65517">
        <ele>1643.51</ele>
        <time>2011-11-19T11:28:34Z</time>
      </trkpt>
      <trkpt lat="44.7114" lon="5.65517">
        <ele>1643.99</ele>
        <time>2011-11-19T11:28:55Z</time>
      </trkpt>
      <trkpt lat="44.71141" lon="5.65518">
        <ele>1643.99</ele>
        <time>2011-11-19T11:29:12Z</time>
      </trkpt>
      <trkpt lat="44.71141" lon="5.65518">
        <ele>1644.47</ele>
        <time>2011-11-19T11:29:33Z</time>
      </trkpt>
      <trkpt lat="44.71141" lon="5.65518">
        <ele>1643.51</ele>
        <time>2011-11-19T11:29:57Z</time>
      </trkpt>
      <trkpt lat="44.71141" lon="5.65519">
        <ele>1643.51</ele>
        <time>2011-11-19T11:30:19Z</time>
      </trkpt>
      <trkpt lat="44.71141" lon="5.65519">
        <ele>1643.51</ele>
        <time>2011-11-19T11:30:39Z</time>
      </trkpt>
      <trkpt lat="44.71141" lon="5.65519">
        <ele>1643.99</ele>
        <time>2011-11-19T11:31:03Z</time>
      </trkpt>
      <trkpt lat="44.71142" lon="5.65516">
        <ele>1644.95</ele>
        <time>2011-11-19T11:31:30Z</time>
      </trkpt>
      <trkpt lat="44.71141" lon="5.65516">
        <ele>1643.99</ele>
        <time>2011-11-19T11:31:56Z</time>
      </trkpt>
      <trkpt lat="44.71142" lon="5.65516">
        <ele>1645.43</ele>
        <time>2011-11-19T11:32:16Z</time>
      </trkpt>
      <trkpt lat="44.71142" lon="5.65516">
        <ele>1644.47</ele>
        <time>2011-11-19T11:32:36Z</time>
      </trkpt>
      <trkpt lat="44.71142" lon="5.65515">
        <ele>1644.95</ele>
        <time>2011-11-19T11:33:02Z</time>
      </trkpt>
      <trkpt lat="44.71141" lon="5.65516">
        <ele>1645.43</ele>
        <time>2011-11-19T11:33:13Z</time>
      </trkpt>
      <trkpt lat="44.71141" lon="5.65516">
        <ele>1644.47</ele>
        <time>2011-11-19T11:33:38Z</time>
      </trkpt>
      <trkpt lat="44.71141" lon="5.65516">
        <ele>1644.47</ele>
        <time>2011-11-19T11:34:01Z</time>
      </trkpt>
      <trkpt lat="44.71141" lon="5.65516">
        <ele>1644.47</ele>
        <time>2011-11-19T11:34:23Z</time>
      </trkpt>
      <trkpt lat="44.71141" lon="5.65516">
        <ele>1644.47</ele>
        <time>2011-11-19T11:34:46Z</time>
      </trkpt>
      <trkpt lat="44.71141" lon="5.65516">
        <ele>1644.47</ele>
        <time>2011-11-19T11:35:04Z</time>
      </trkpt>
      <trkpt lat="44.71141" lon="5.65516">
        <ele>1644.47</ele>
        <time>2011-11-19T11:35:23Z</time>
      </trkpt>
      <trkpt lat="44.71141" lon="5.65516">
        <ele>1644.95</ele>
        <time>2011-11-19T11:35:46Z</time>
      </trkpt>
      <trkpt lat="44.71141" lon="5.65516">
        <ele>1645.43</ele>
        <time>2011-11-19T11:36:05Z</time>
      </trkpt>
      <trkpt lat="44.71141" lon="5.65515">
        <ele>1644.47</ele>
        <time>2011-11-19T11:36:29Z</time>
      </trkpt>
      <trkpt lat="44.71141" lon="5.65515">
        <ele>1644.47</ele>
        <time>2011-11-19T11:36:53Z</time>
      </trkpt>
      <trkpt lat="44.71141" lon="5.65515">
        <ele>1644.95</ele>
        <time>2011-11-19T11:37:16Z</time>
      </trkpt>
      <trkpt lat="44.71141" lon="5.65515">
        <ele>1644.95</ele>
        <time>2011-11-19T11:37:33Z</time>
      </trkpt>
      <trkpt lat="44.71141" lon="5.65516">
        <ele>1644.95</ele>
        <time>2011-11-19T11:37:53Z</time>
      </trkpt>
      <trkpt lat="44.71141" lon="5.65516">
        <ele>1645.43</ele>
        <time>2011-11-19T11:38:12Z</time>
      </trkpt>
      <trkpt lat="44.71141" lon="5.65516">
        <ele>1645.43</ele>
        <time>2011-11-19T11:38:35Z</time>
      </trkpt>
      <trkpt lat="44.71141" lon="5.65516">
        <ele>1645.91</ele>
        <time>2011-11-19T11:38:57Z</time>
      </trkpt>
      <trkpt lat="44.71141" lon="5.65516">
        <ele>1644.47</ele>
        <time>2011-11-19T11:39:26Z</time>
      </trkpt>
      <trkpt lat="44.71141" lon="5.65516">
        <ele>1644.95</ele>
        <time>2011-11-19T11:40:00Z</time>
      </trkpt>
      <trkpt lat="44.71141" lon="5.65516">
        <ele>1644.95</ele>
        <time>2011-11-19T11:40:27Z</time>
      </trkpt>
      <trkpt lat="44.71141" lon="5.65516">
        <ele>1645.43</ele>
        <time>2011-11-19T11:40:53Z</time>
      </trkpt>
      <trkpt lat="44.71141" lon="5.65515">
        <ele>1645.43</ele>
        <time>2011-11-19T11:41:24Z</time>
      </trkpt>
      <trkpt lat="44.71141" lon="5.65515">
        <ele>1645.43</ele>
        <time>2011-11-19T11:41:45Z</time>
      </trkpt>
      <trkpt lat="44.71141" lon="5.65515">
        <ele>1645.43</ele>
        <time>2011-11-19T11:42:03Z</time>
      </trkpt>
      <trkpt lat="44.71141" lon="5.65515">
        <ele>1645.43</ele>
        <time>2011-11-19T11:42:25Z</time>
      </trkpt>
      <trkpt lat="44.71141" lon="5.65515">
        <ele>1645.43</ele>
        <time>2011-11-19T11:42:42Z</time>
      </trkpt>
      <trkpt lat="44.71141" lon="5.65515">
        <ele>1644.95</ele>
        <time>2011-11-19T11:43:08Z</time>
      </trkpt>
      <trkpt lat="44.71141" lon="5.65515">
        <ele>1645.91</ele>
        <time>2011-11-19T11:43:37Z</time>
      </trkpt>
      <trkpt lat="44.71141" lon="5.65515">
        <ele>1645.91</ele>
        <time>2011-11-19T11:44:02Z</time>
      </trkpt>
      <trkpt lat="44.71141" lon="5.65515">
        <ele>1644.95</ele>
        <time>2011-11-19T11:44:34Z</time>
      </trkpt>
      <trkpt lat="44.71141" lon="5.65515">
        <ele>1644.95</ele>
        <time>2011-11-19T11:45:03Z</time>
      </trkpt>
      <trkpt lat="44.71141" lon="5.65516">
        <ele>1645.43</ele>
        <time>2011-11-19T11:45:33Z</time>
      </trkpt>
      <trkpt lat="44.7114" lon="5.65519">
        <ele>1645.43</ele>
        <time>2011-11-19T11:45:57Z</time>
      </trkpt>
      <trkpt lat="44.71139" lon="5.65521">
        <ele>1645.43</ele>
        <time>2011-11-19T11:46:15Z</time>
      </trkpt>
      <trkpt lat="44.71139" lon="5.65521">
        <ele>1644.95</ele>
        <time>2011-11-19T11:46:43Z</time>
      </trkpt>
      <trkpt lat="44.71139" lon="5.65521">
        <ele>1644.95</ele>
        <time>2011-11-19T11:47:07Z</time>
      </trkpt>
      <trkpt lat="44.71139" lon="5.65521">
        <ele>1645.43</ele>
        <time>2011-11-19T11:47:27Z</time>
      </trkpt>
      <trkpt lat="44.7114" lon="5.6552">
        <ele>1645.43</ele>
        <time>2011-11-19T11:47:50Z</time>
      </trkpt>
      <trkpt lat="44.7114" lon="5.6552">
        <ele>1644.95</ele>
        <time>2011-11-19T11:48:15Z</time>
      </trkpt>
      <trkpt lat="44.7114" lon="5.65519">
        <ele>1645.43</ele>
        <time>2011-11-19T11:48:32Z</time>
      </trkpt>
      <trkpt lat="44.7114" lon="5.65519">
        <ele>1644.47</ele>
        <time>2011-11-19T11:48:57Z</time>
      </trkpt>
      <trkpt lat="44.7114" lon="5.65519">
        <ele>1644.95</ele>
        <time>2011-11-19T11:49:28Z</time>
      </trkpt>
      <trkpt lat="44.71139" lon="5.65518">
        <ele>1644.95</ele>
        <time>2011-11-19T11:50:00Z</time>
      </trkpt>
      <trkpt lat="44.7114" lon="5.65517">
        <ele>1643.99</ele>
        <time>2011-11-19T11:50:42Z</time>
      </trkpt>
      <trkpt lat="44.7114" lon="5.65517">
        <ele>1644.95</ele>
        <time>2011-11-19T11:51:12Z</time>
      </trkpt>
      <trkpt lat="44.7114" lon="5.65517">
        <ele>1644.47</ele>
        <time>2011-11-19T11:51:35Z</time>
      </trkpt>
      <trkpt lat="44.7114" lon="5.65517">
        <ele>1644.47</ele>
        <time>2011-11-19T11:52:11Z</time>
      </trkpt>
      <trkpt lat="44.71139" lon="5.65518">
        <ele>1644.95</ele>
        <time>2011-11-19T11:52:32Z</time>
      </trkpt>
      <trkpt lat="44.71139" lon="5.65518">
        <ele>1644.47</ele>
        <time>2011-11-19T11:52:51Z</time>
      </trkpt>
      <trkpt lat="44.71139" lon="5.65518">
        <ele>1644.47</ele>
        <time>2011-11-19T11:53:07Z</time>
      </trkpt>
      <trkpt lat="44.71139" lon="5.65518">
        <ele>1644.47</ele>
        <time>2011-11-19T11:53:28Z</time>
      </trkpt>
      <trkpt lat="44.7114" lon="5.65517">
        <ele>1644.47</ele>
        <time>2011-11-19T11:53:51Z</time>
      </trkpt>
      <trkpt lat="44.7114" lon="5.65517">
        <ele>1643.99</ele>
        <time>2011-11-19T11:54:18Z</time>
      </trkpt>
      <trkpt lat="44.71139" lon="5.65519">
        <ele>1644.47</ele>
        <time>2011-11-19T11:54:39Z</time>
      </trkpt>
      <trkpt lat="44.71139" lon="5.65519">
        <ele>1643.99</ele>
        <time>2011-11-19T11:55:07Z</time>
      </trkpt>
      <trkpt lat="44.71137" lon="5.65523">
        <ele>1644.47</ele>
        <time>2011-11-19T11:55:29Z</time>
      </trkpt>
      <trkpt lat="44.71137" lon="5.65524">
        <ele>1644.95</ele>
        <time>2011-11-19T11:55:45Z</time>
      </trkpt>
      <trkpt lat="44.71137" lon="5.65524">
        <ele>1643.99</ele>
        <time>2011-11-19T11:55:47Z</time>
      </trkpt>
      <trkpt lat="44.71136" lon="5.65526">
        <ele>1642.55</ele>
        <time>2011-11-19T11:56:02Z</time>
      </trkpt>
      <trkpt lat="44.71136" lon="5.65526">
        <ele>1646.4</ele>
        <time>2011-11-19T11:56:03Z</time>
      </trkpt>
      <trkpt lat="44.71136" lon="5.65525">
        <ele>1644.95</ele>
        <time>2011-11-19T11:56:19Z</time>
      </trkpt>
      <trkpt lat="44.71136" lon="5.65524">
        <ele>1644.47</ele>
        <time>2011-11-19T11:56:33Z</time>
      </trkpt>
      <trkpt lat="44.71137" lon="5.65522">
        <ele>1643.99</ele>
        <time>2011-11-19T11:56:51Z</time>
      </trkpt>
      <trkpt lat="44.71138" lon="5.65521">
        <ele>1643.99</ele>
        <time>2011-11-19T11:57:10Z</time>
      </trkpt>
      <trkpt lat="44.71138" lon="5.65521">
        <ele>1643.99</ele>
        <time>2011-11-19T11:57:28Z</time>
      </trkpt>
      <trkpt lat="44.71138" lon="5.6552">
        <ele>1644.47</ele>
        <time>2011-11-19T11:57:42Z</time>
      </trkpt>
      <trkpt lat="44.71138" lon="5.6552">
        <ele>1643.51</ele>
        <time>2011-11-19T11:58:00Z</time>
      </trkpt>
      <trkpt lat="44.71138" lon="5.65521">
        <ele>1644.95</ele>
        <time>2011-11-19T11:58:16Z</time>
      </trkpt>
      <trkpt lat="44.71138" lon="5.65521">
        <ele>1644.47</ele>
        <time>2011-11-19T11:58:30Z</time>
      </trkpt>
      <trkpt lat="44.71137" lon="5.65522">
        <ele>1644.95</ele>
        <time>2011-11-19T11:58:43Z</time>
      </trkpt>
      <trkpt lat="44.71138" lon="5.6552">
        <ele>1644.95</ele>
        <time>2011-11-19T11:58:54Z</time>
      </trkpt>
      <trkpt lat="44.71137" lon="5.65519">
        <ele>1644.95</ele>
        <time>2011-11-19T11:59:02Z</time>
      </trkpt>
      <trkpt lat="44.71137" lon="5.65519">
        <ele>1644.47</ele>
        <time>2011-11-19T11:59:18Z</time>
      </trkpt>
      <trkpt lat="44.71137" lon="5.65519">
        <ele>1643.99</ele>
        <time>2011-11-19T11:59:29Z</time>
      </trkpt>
      <trkpt lat="44.71137" lon="5.65519">
        <ele>1644.47</ele>
        <time>2011-11-19T11:59:31Z</time>
      </trkpt>
      <trkpt lat="44.71136" lon="5.6552">
        <ele>1642.55</ele>
        <time>2011-11-19T11:59:36Z</time>
      </trkpt>
      <trkpt lat="44.71136" lon="5.6552">
        <ele>1642.55</ele>
        <time>2011-11-19T12:00:06Z</time>
      </trkpt>
      <trkpt lat="44.71138" lon="5.65521">
        <ele>1643.99</ele>
        <time>2011-11-19T12:00:15Z</time>
      </trkpt>
      <trkpt lat="44.71138" lon="5.6552">
        <ele>1643.51</ele>
        <time>2011-11-19T12:00:25Z</time>
      </trkpt>
      <trkpt lat="44.71139" lon="5.65516">
        <ele>1644.95</ele>
        <time>2011-11-19T12:00:27Z</time>
      </trkpt>
      <trkpt lat="44.71136" lon="5.65515">
        <ele>1644.95</ele>
        <time>2011-11-19T12:00:36Z</time>
      </trkpt>
      <trkpt lat="44.71136" lon="5.65516">
        <ele>1644.95</ele>
        <time>2011-11-19T12:00:40Z</time>
      </trkpt>
      <trkpt lat="44.71136" lon="5.65517">
        <ele>1644.47</ele>
        <time>2011-11-19T12:00:50Z</time>
      </trkpt>
      <trkpt lat="44.71135" lon="5.6552">
        <ele>1644.95</ele>
        <time>2011-11-19T12:01:05Z</time>
      </trkpt>
      <trkpt lat="44.71135" lon="5.65519">
        <ele>1644.95</ele>
        <time>2011-11-19T12:01:06Z</time>
      </trkpt>
      <trkpt lat="44.71137" lon="5.65507">
        <ele>1645.91</ele>
        <time>2011-11-19T12:01:15Z</time>
      </trkpt>
      <trkpt lat="44.71137" lon="5.65507">
        <ele>1646.4</ele>
        <time>2011-11-19T12:01:16Z</time>
      </trkpt>
      <trkpt lat="44.71137" lon="5.65504">
        <ele>1646.88</ele>
        <time>2011-11-19T12:01:18Z</time>
      </trkpt>
      <trkpt lat="44.71142" lon="5.65497">
        <ele>1648.32</ele>
        <time>2011-11-19T12:01:24Z</time>
      </trkpt>
      <trkpt lat="44.71148" lon="5.65491">
        <ele>1649.28</ele>
        <time>2011-11-19T12:01:29Z</time>
      </trkpt>
      <trkpt lat="44.71148" lon="5.65487">
        <ele>1649.28</ele>
        <time>2011-11-19T12:01:34Z</time>
      </trkpt>
      <trkpt lat="44.71151" lon="5.65481">
        <ele>1650.72</ele>
        <time>2011-11-19T12:01:40Z</time>
      </trkpt>
      <trkpt lat="44.71153" lon="5.65479">
        <ele>1651.68</ele>
        <time>2011-11-19T12:01:42Z</time>
      </trkpt>
      <trkpt lat="44.71155" lon="5.65473">
        <ele>1652.64</ele>
        <time>2011-11-19T12:01:46Z</time>
      </trkpt>
      <trkpt lat="44.71157" lon="5.65467">
        <ele>1654.57</ele>
        <time>2011-11-19T12:01:52Z</time>
      </trkpt>
      <trkpt lat="44.71158" lon="5.65466">
        <ele>1655.05</ele>
        <time>2011-11-19T12:01:54Z</time>
      </trkpt>
      <trkpt lat="44.71159" lon="5.65464">
        <ele>1655.53</ele>
        <time>2011-11-19T12:01:56Z</time>
      </trkpt>
      <trkpt lat="44.71161" lon="5.6546">
        <ele>1656.01</ele>
        <time>2011-11-19T12:02:00Z</time>
      </trkpt>
      <trkpt lat="44.71164" lon="5.65454">
        <ele>1658.41</ele>
        <time>2011-11-19T12:02:05Z</time>
      </trkpt>
      <trkpt lat="44.71166" lon="5.6545">
        <ele>1657.93</ele>
        <time>2011-11-19T12:02:07Z</time>
      </trkpt>
      <trkpt lat="44.71168" lon="5.65447">
        <ele>1657.93</ele>
        <time>2011-11-19T12:02:09Z</time>
      </trkpt>
      <trkpt lat="44.71169" lon="5.65443">
        <ele>1658.41</ele>
        <time>2011-11-19T12:02:11Z</time>
      </trkpt>
      <trkpt lat="44.71171" lon="5.65442">
        <ele>1658.89</ele>
        <time>2011-11-19T12:02:13Z</time>
      </trkpt>
      <trkpt lat="44.71171" lon="5.65441">
        <ele>1659.85</ele>
        <time>2011-11-19T12:02:15Z</time>
      </trkpt>
      <trkpt lat="44.71173" lon="5.6544">
        <ele>1659.85</ele>
        <time>2011-11-19T12:02:18Z</time>
      </trkpt>
      <trkpt lat="44.71175" lon="5.65438">
        <ele>1660.33</ele>
        <time>2011-11-19T12:02:20Z</time>
      </trkpt>
      <trkpt lat="44.71179" lon="5.65434">
        <ele>1660.81</ele>
        <time>2011-11-19T12:02:24Z</time>
      </trkpt>
      <trkpt lat="44.7118" lon="5.65433">
        <ele>1660.81</ele>
        <time>2011-11-19T12:02:26Z</time>
      </trkpt>
      <trkpt lat="44.71184" lon="5.65429">
        <ele>1661.78</ele>
        <time>2011-11-19T12:02:30Z</time>
      </trkpt>
      <trkpt lat="44.7119" lon="5.65416">
        <ele>1661.78</ele>
        <time>2011-11-19T12:02:39Z</time>
      </trkpt>
      <trkpt lat="44.71192" lon="5.65411">
        <ele>1663.22</ele>
        <time>2011-11-19T12:02:42Z</time>
      </trkpt>
      <trkpt lat="44.71196" lon="5.65404">
        <ele>1664.66</ele>
        <time>2011-11-19T12:02:47Z</time>
      </trkpt>
      <trkpt lat="44.71199" lon="5.654">
        <ele>1663.7</ele>
        <time>2011-11-19T12:02:51Z</time>
      </trkpt>
      <trkpt lat="44.71208" lon="5.6539">
        <ele>1664.66</ele>
        <time>2011-11-19T12:03:00Z</time>
      </trkpt>
      <trkpt lat="44.71208" lon="5.65388">
        <ele>1664.66</ele>
        <time>2011-11-19T12:03:02Z</time>
      </trkpt>
      <trkpt lat="44.71215" lon="5.65374">
        <ele>1665.62</ele>
        <time>2011-11-19T12:03:14Z</time>
      </trkpt>
      <trkpt lat="44.71217" lon="5.6537">
        <ele>1665.62</ele>
        <time>2011-11-19T12:03:17Z</time>
      </trkpt>
      <trkpt lat="44.71221" lon="5.65364">
        <ele>1666.58</ele>
        <time>2011-11-19T12:03:21Z</time>
      </trkpt>
      <trkpt lat="44.71227" lon="5.65355">
        <ele>1667.54</ele>
        <time>2011-11-19T12:03:30Z</time>
      </trkpt>
      <trkpt lat="44.71231" lon="5.65349">
        <ele>1668.51</ele>
        <time>2011-11-19T12:03:36Z</time>
      </trkpt>
      <trkpt lat="44.71237" lon="5.65339">
        <ele>1670.43</ele>
        <time>2011-11-19T12:03:46Z</time>
      </trkpt>
      <trkpt lat="44.7124" lon="5.6533">
        <ele>1671.39</ele>
        <time>2011-11-19T12:03:53Z</time>
      </trkpt>
      <trkpt lat="44.7124" lon="5.65322">
        <ele>1672.35</ele>
        <time>2011-11-19T12:03:59Z</time>
      </trkpt>
      <trkpt lat="44.71242" lon="5.65315">
        <ele>1673.79</ele>
        <time>2011-11-19T12:04:04Z</time>
      </trkpt>
      <trkpt lat="44.71245" lon="5.65304">
        <ele>1674.75</ele>
        <time>2011-11-19T12:04:13Z</time>
      </trkpt>
      <trkpt lat="44.71246" lon="5.65297">
        <ele>1675.72</ele>
        <time>2011-11-19T12:04:19Z</time>
      </trkpt>
      <trkpt lat="44.71248" lon="5.65289">
        <ele>1676.68</ele>
        <time>2011-11-19T12:04:26Z</time>
      </trkpt>
      <trkpt lat="44.71245" lon="5.6528">
        <ele>1678.6</ele>
        <time>2011-11-19T12:04:39Z</time>
      </trkpt>
      <trkpt lat="44.71248" lon="5.65275">
        <ele>1680.52</ele>
        <time>2011-11-19T12:04:49Z</time>
      </trkpt>
      <trkpt lat="44.71253" lon="5.65268">
        <ele>1681.96</ele>
        <time>2011-11-19T12:05:01Z</time>
      </trkpt>
      <trkpt lat="44.71257" lon="5.65265">
        <ele>1684.37</ele>
        <time>2011-11-19T12:05:11Z</time>
      </trkpt>
      <trkpt lat="44.71259" lon="5.6526">
        <ele>1686.29</ele>
        <time>2011-11-19T12:05:21Z</time>
      </trkpt>
      <trkpt lat="44.71265" lon="5.65258">
        <ele>1688.69</ele>
        <time>2011-11-19T12:05:35Z</time>
      </trkpt>
      <trkpt lat="44.71268" lon="5.65257">
        <ele>1690.62</ele>
        <time>2011-11-19T12:05:47Z</time>
      </trkpt>
      <trkpt lat="44.71273" lon="5.65258">
        <ele>1692.54</ele>
        <time>2011-11-19T12:05:57Z</time>
      </trkpt>
      <trkpt lat="44.7128" lon="5.65256">
        <ele>1694.46</ele>
        <time>2011-11-19T12:06:09Z</time>
      </trkpt>
      <trkpt lat="44.71289" lon="5.6526">
        <ele>1695.9</ele>
        <time>2011-11-19T12:06:22Z</time>
      </trkpt>
      <trkpt lat="44.71295" lon="5.65258">
        <ele>1697.83</ele>
        <time>2011-11-19T12:06:33Z</time>
      </trkpt>
      <trkpt lat="44.713" lon="5.65259">
        <ele>1700.71</ele>
        <time>2011-11-19T12:06:46Z</time>
      </trkpt>
      <trkpt lat="44.71308" lon="5.65261">
        <ele>1702.15</ele>
        <time>2011-11-19T12:06:59Z</time>
      </trkpt>
      <trkpt lat="44.71312" lon="5.65259">
        <ele>1705.04</ele>
        <time>2011-11-19T12:07:12Z</time>
      </trkpt>
      <trkpt lat="44.71316" lon="5.65255">
        <ele>1706.48</ele>
        <time>2011-11-19T12:07:22Z</time>
      </trkpt>
      <trkpt lat="44.71319" lon="5.65255">
        <ele>1709.36</ele>
        <time>2011-11-19T12:07:34Z</time>
      </trkpt>
      <trkpt lat="44.71323" lon="5.65253">
        <ele>1712.25</ele>
        <time>2011-11-19T12:07:46Z</time>
      </trkpt>
      <trkpt lat="44.71331" lon="5.65255">
        <ele>1714.17</ele>
        <time>2011-11-19T12:07:57Z</time>
      </trkpt>
      <trkpt lat="44.71335" lon="5.65255">
        <ele>1717.05</ele>
        <time>2011-11-19T12:08:07Z</time>
      </trkpt>
      <trkpt lat="44.71341" lon="5.65256">
        <ele>1717.53</ele>
        <time>2011-11-19T12:08:16Z</time>
      </trkpt>
      <trkpt lat="44.71344" lon="5.65256">
        <ele>1718.01</ele>
        <time>2011-11-19T12:08:19Z</time>
      </trkpt>
      <trkpt lat="44.71353" lon="5.6526">
        <ele>1719.46</ele>
        <time>2011-11-19T12:08:31Z</time>
      </trkpt>
      <trkpt lat="44.71358" lon="5.6526">
        <ele>1720.42</ele>
        <time>2011-11-19T12:08:36Z</time>
      </trkpt>
      <trkpt lat="44.71362" lon="5.65261">
        <ele>1720.42</ele>
        <time>2011-11-19T12:08:49Z</time>
      </trkpt>
      <trkpt lat="44.71366" lon="5.65261">
        <ele>1722.82</ele>
        <time>2011-11-19T12:09:02Z</time>
      </trkpt>
      <trkpt lat="44.71372" lon="5.65258">
        <ele>1723.78</ele>
        <time>2011-11-19T12:09:13Z</time>
      </trkpt>
      <trkpt lat="44.71378" lon="5.65255">
        <ele>1725.7</ele>
        <time>2011-11-19T12:09:24Z</time>
      </trkpt>
      <trkpt lat="44.71384" lon="5.65253">
        <ele>1727.15</ele>
        <time>2011-11-19T12:09:34Z</time>
      </trkpt>
      <trkpt lat="44.71387" lon="5.65251">
        <ele>1728.11</ele>
        <time>2011-11-19T12:09:38Z</time>
      </trkpt>
      <trkpt lat="44.71391" lon="5.65246">
        <ele>1730.51</ele>
        <time>2011-11-19T12:09:51Z</time>
      </trkpt>
      <trkpt lat="44.71394" lon="5.65242">
        <ele>1732.91</ele>
        <time>2011-11-19T12:10:02Z</time>
      </trkpt>
      <trkpt lat="44.71396" lon="5.65238">
        <ele>1734.84</ele>
        <time>2011-11-19T12:10:14Z</time>
      </trkpt>
      <trkpt lat="44.71402" lon="5.65233">
        <ele>1735.32</ele>
        <time>2011-11-19T12:10:24Z</time>
      </trkpt>
      <trkpt lat="44.71405" lon="5.6523">
        <ele>1736.28</ele>
        <time>2011-11-19T12:10:35Z</time>
      </trkpt>
      <trkpt lat="44.71411" lon="5.65226">
        <ele>1738.68</ele>
        <time>2011-11-19T12:10:46Z</time>
      </trkpt>
      <trkpt lat="44.71414" lon="5.65223">
        <ele>1739.64</ele>
        <time>2011-11-19T12:10:52Z</time>
      </trkpt>
      <trkpt lat="44.71418" lon="5.65219">
        <ele>1739.64</ele>
        <time>2011-11-19T12:11:02Z</time>
      </trkpt>
      <trkpt lat="44.71424" lon="5.65219">
        <ele>1742.05</ele>
        <time>2011-11-19T12:11:13Z</time>
      </trkpt>
      <trkpt lat="44.7143" lon="5.65215">
        <ele>1743.97</ele>
        <time>2011-11-19T12:11:26Z</time>
      </trkpt>
      <trkpt lat="44.71437" lon="5.65211">
        <ele>1746.37</ele>
        <time>2011-11-19T12:11:39Z</time>
      </trkpt>
      <trkpt lat="44.71439" lon="5.6521">
        <ele>1746.85</ele>
        <time>2011-11-19T12:11:52Z</time>
      </trkpt>
      <trkpt lat="44.71444" lon="5.65203">
        <ele>1748.78</ele>
        <time>2011-11-19T12:12:02Z</time>
      </trkpt>
      <trkpt lat="44.71447" lon="5.65201">
        <ele>1751.18</ele>
        <time>2011-11-19T12:12:15Z</time>
      </trkpt>
      <trkpt lat="44.71447" lon="5.65201">
        <ele>1749.74</ele>
        <time>2011-11-19T12:12:42Z</time>
      </trkpt>
      <trkpt lat="44.71451" lon="5.65198">
        <ele>1750.7</ele>
        <time>2011-11-19T12:13:03Z</time>
      </trkpt>
      <trkpt lat="44.71455" lon="5.65193">
        <ele>1751.66</ele>
        <time>2011-11-19T12:13:13Z</time>
      </trkpt>
      <trkpt lat="44.7146" lon="5.65188">
        <ele>1754.54</ele>
        <time>2011-11-19T12:13:24Z</time>
      </trkpt>
      <trkpt lat="44.71467" lon="5.65182">
        <ele>1757.43</ele>
        <time>2011-11-19T12:13:36Z</time>
      </trkpt>
      <trkpt lat="44.71468" lon="5.65179">
        <ele>1757.43</ele>
        <time>2011-11-19T12:13:47Z</time>
      </trkpt>
      <trkpt lat="44.71471" lon="5.65176">
        <ele>1758.39</ele>
        <time>2011-11-19T12:13:57Z</time>
      </trkpt>
      <trkpt lat="44.71474" lon="5.65169">
        <ele>1760.79</ele>
        <time>2011-11-19T12:14:08Z</time>
      </trkpt>
      <trkpt lat="44.71481" lon="5.65161">
        <ele>1762.71</ele>
        <time>2011-11-19T12:14:21Z</time>
      </trkpt>
      <trkpt lat="44.71484" lon="5.65155">
        <ele>1764.64</ele>
        <time>2011-11-19T12:14:32Z</time>
      </trkpt>
      <trkpt lat="44.71488" lon="5.6515">
        <ele>1766.56</ele>
        <time>2011-11-19T12:14:43Z</time>
      </trkpt>
      <trkpt lat="44.71492" lon="5.65144">
        <ele>1768.48</ele>
        <time>2011-11-19T12:14:53Z</time>
      </trkpt>
      <trkpt lat="44.71493" lon="5.65145">
        <ele>1768.48</ele>
        <time>2011-11-19T12:14:54Z</time>
      </trkpt>
      <trkpt lat="44.71499" lon="5.65138">
        <ele>1769.92</ele>
        <time>2011-11-19T12:15:06Z</time>
      </trkpt>
      <trkpt lat="44.71502" lon="5.65133">
        <ele>1773.29</ele>
        <time>2011-11-19T12:15:17Z</time>
      </trkpt>
      <trkpt lat="44.71509" lon="5.65126">
        <ele>1774.25</ele>
        <time>2011-11-19T12:15:28Z</time>
      </trkpt>
      <trkpt lat="44.71513" lon="5.65119">
        <ele>1776.17</ele>
        <time>2011-11-19T12:15:39Z</time>
      </trkpt>
      <trkpt lat="44.71517" lon="5.65112">
        <ele>1777.61</ele>
        <time>2011-11-19T12:15:50Z</time>
      </trkpt>
      <trkpt lat="44.71523" lon="5.65104">
        <ele>1779.54</ele>
        <time>2011-11-19T12:16:02Z</time>
      </trkpt>
      <trkpt lat="44.71526" lon="5.65097">
        <ele>1780.5</ele>
        <time>2011-11-19T12:16:13Z</time>
      </trkpt>
      <trkpt lat="44.71527" lon="5.65095">
        <ele>1782.42</ele>
        <time>2011-11-19T12:16:22Z</time>
      </trkpt>
      <trkpt lat="44.7153" lon="5.6509">
        <ele>1782.42</ele>
        <time>2011-11-19T12:16:26Z</time>
      </trkpt>
      <trkpt lat="44.71535" lon="5.65085">
        <ele>1783.86</ele>
        <time>2011-11-19T12:16:36Z</time>
      </trkpt>
      <trkpt lat="44.71538" lon="5.6508">
        <ele>1784.82</ele>
        <time>2011-11-19T12:16:42Z</time>
      </trkpt>
      <trkpt lat="44.71542" lon="5.65077">
        <ele>1785.79</ele>
        <time>2011-11-19T12:16:51Z</time>
      </trkpt>
      <trkpt lat="44.71548" lon="5.65072">
        <ele>1787.23</ele>
        <time>2011-11-19T12:17:03Z</time>
      </trkpt>
      <trkpt lat="44.71552" lon="5.65064">
        <ele>1788.67</ele>
        <time>2011-11-19T12:17:14Z</time>
      </trkpt>
      <trkpt lat="44.71557" lon="5.65057">
        <ele>1790.11</ele>
        <time>2011-11-19T12:17:26Z</time>
      </trkpt>
      <trkpt lat="44.71562" lon="5.65051">
        <ele>1791.07</ele>
        <time>2011-11-19T12:17:33Z</time>
      </trkpt>
      <trkpt lat="44.71572" lon="5.6504">
        <ele>1792.52</ele>
        <time>2011-11-19T12:17:44Z</time>
      </trkpt>
      <trkpt lat="44.71574" lon="5.65035">
        <ele>1793</ele>
        <time>2011-11-19T12:17:48Z</time>
      </trkpt>
      <trkpt lat="44.71577" lon="5.65031">
        <ele>1793</ele>
        <time>2011-11-19T12:17:53Z</time>
      </trkpt>
      <trkpt lat="44.7158" lon="5.65025">
        <ele>1794.92</ele>
        <time>2011-11-19T12:18:03Z</time>
      </trkpt>
      <trkpt lat="44.71584" lon="5.65022">
        <ele>1795.4</ele>
        <time>2011-11-19T12:18:09Z</time>
      </trkpt>
      <trkpt lat="44.71592" lon="5.65014">
        <ele>1795.88</ele>
        <time>2011-11-19T12:18:18Z</time>
      </trkpt>
      <trkpt lat="44.71596" lon="5.65006">
        <ele>1797.32</ele>
        <time>2011-11-19T12:18:29Z</time>
      </trkpt>
      <trkpt lat="44.71596" lon="5.65004">
        <ele>1797.32</ele>
        <time>2011-11-19T12:18:32Z</time>
      </trkpt>
      <trkpt lat="44.71599" lon="5.64996">
        <ele>1799.24</ele>
        <time>2011-11-19T12:18:42Z</time>
      </trkpt>
      <trkpt lat="44.71604" lon="5.64985">
        <ele>1799.73</ele>
        <time>2011-11-19T12:18:51Z</time>
      </trkpt>
      <trkpt lat="44.71606" lon="5.64977">
        <ele>1801.65</ele>
        <time>2011-11-19T12:19:02Z</time>
      </trkpt>
      <trkpt lat="44.71608" lon="5.64973">
        <ele>1803.09</ele>
        <time>2011-11-19T12:19:08Z</time>
      </trkpt>
      <trkpt lat="44.71608" lon="5.64972">
        <ele>1802.61</ele>
        <time>2011-11-19T12:19:10Z</time>
      </trkpt>
      <trkpt lat="44.71609" lon="5.64966">
        <ele>1804.05</ele>
        <time>2011-11-19T12:19:20Z</time>
      </trkpt>
      <trkpt lat="44.71609" lon="5.64962">
        <ele>1805.01</ele>
        <time>2011-11-19T12:19:34Z</time>
      </trkpt>
      <trkpt lat="44.71607" lon="5.6496">
        <ele>1806.45</ele>
        <time>2011-11-19T12:19:44Z</time>
      </trkpt>
      <trkpt lat="44.71607" lon="5.6496">
        <ele>1805.97</ele>
        <time>2011-11-19T12:20:07Z</time>
      </trkpt>
      <trkpt lat="44.71607" lon="5.64959">
        <ele>1806.45</ele>
        <time>2011-11-19T12:20:28Z</time>
      </trkpt>
      <trkpt lat="44.71606" lon="5.64958">
        <ele>1807.9</ele>
        <time>2011-11-19T12:20:51Z</time>
      </trkpt>
      <trkpt lat="44.71605" lon="5.64957">
        <ele>1808.38</ele>
        <time>2011-11-19T12:21:04Z</time>
      </trkpt>
      <trkpt lat="44.71604" lon="5.64956">
        <ele>1808.86</ele>
        <time>2011-11-19T12:21:33Z</time>
      </trkpt>
      <trkpt lat="44.71601" lon="5.64956">
        <ele>1808.38</ele>
        <time>2011-11-19T12:21:58Z</time>
      </trkpt>
      <trkpt lat="44.71596" lon="5.64952">
        <ele>1810.78</ele>
        <time>2011-11-19T12:22:08Z</time>
      </trkpt>
      <trkpt lat="44.7159" lon="5.64947">
        <ele>1813.66</ele>
        <time>2011-11-19T12:22:19Z</time>
      </trkpt>
      <trkpt lat="44.71589" lon="5.64946">
        <ele>1813.66</ele>
        <time>2011-11-19T12:22:21Z</time>
      </trkpt>
      <trkpt lat="44.71587" lon="5.64943">
        <ele>1815.59</ele>
        <time>2011-11-19T12:22:26Z</time>
      </trkpt>
      <trkpt lat="44.71582" lon="5.6494">
        <ele>1817.51</ele>
        <time>2011-11-19T12:22:33Z</time>
      </trkpt>
      <trkpt lat="44.71577" lon="5.64933">
        <ele>1820.39</ele>
        <time>2011-11-19T12:22:43Z</time>
      </trkpt>
      <trkpt lat="44.71577" lon="5.64931">
        <ele>1821.35</ele>
        <time>2011-11-19T12:22:45Z</time>
      </trkpt>
      <trkpt lat="44.71577" lon="5.64928">
        <ele>1823.28</ele>
        <time>2011-11-19T12:22:49Z</time>
      </trkpt>
      <trkpt lat="44.71575" lon="5.64925">
        <ele>1824.24</ele>
        <time>2011-11-19T12:22:57Z</time>
      </trkpt>
      <trkpt lat="44.71573" lon="5.64917">
        <ele>1826.64</ele>
        <time>2011-11-19T12:23:04Z</time>
      </trkpt>
      <trkpt lat="44.71571" lon="5.64915">
        <ele>1826.16</ele>
        <time>2011-11-19T12:23:06Z</time>
      </trkpt>
      <trkpt lat="44.71569" lon="5.6491">
        <ele>1827.12</ele>
        <time>2011-11-19T12:23:10Z</time>
      </trkpt>
      <trkpt lat="44.71568" lon="5.64908">
        <ele>1827.6</ele>
        <time>2011-11-19T12:23:13Z</time>
      </trkpt>
      <trkpt lat="44.71566" lon="5.64905">
        <ele>1829.05</ele>
        <time>2011-11-19T12:23:19Z</time>
      </trkpt>
      <trkpt lat="44.71565" lon="5.64904">
        <ele>1830.01</ele>
        <time>2011-11-19T12:23:22Z</time>
      </trkpt>
      <trkpt lat="44.71561" lon="5.64898">
        <ele>1832.89</ele>
        <time>2011-11-19T12:23:32Z</time>
      </trkpt>
      <trkpt lat="44.71557" lon="5.64891">
        <ele>1834.33</ele>
        <time>2011-11-19T12:23:43Z</time>
      </trkpt>
      <trkpt lat="44.71556" lon="5.6489">
        <ele>1835.29</ele>
        <time>2011-11-19T12:23:46Z</time>
      </trkpt>
      <trkpt lat="44.71557" lon="5.64881">
        <ele>1838.18</ele>
        <time>2011-11-19T12:23:57Z</time>
      </trkpt>
      <trkpt lat="44.7156" lon="5.64874">
        <ele>1840.1</ele>
        <time>2011-11-19T12:24:06Z</time>
      </trkpt>
      <trkpt lat="44.7156" lon="5.64868">
        <ele>1840.58</ele>
        <time>2011-11-19T12:24:11Z</time>
      </trkpt>
      <trkpt lat="44.71562" lon="5.6486">
        <ele>1842.5</ele>
        <time>2011-11-19T12:24:22Z</time>
      </trkpt>
      <trkpt lat="44.71564" lon="5.64851">
        <ele>1844.91</ele>
        <time>2011-11-19T12:24:33Z</time>
      </trkpt>
      <trkpt lat="44.71565" lon="5.64846">
        <ele>1845.87</ele>
        <time>2011-11-19T12:24:37Z</time>
      </trkpt>
      <trkpt lat="44.71568" lon="5.64838">
        <ele>1847.31</ele>
        <time>2011-11-19T12:24:46Z</time>
      </trkpt>
      <trkpt lat="44.71572" lon="5.64834">
        <ele>1848.27</ele>
        <time>2011-11-19T12:24:54Z</time>
      </trkpt>
      <trkpt lat="44.71576" lon="5.64833">
        <ele>1848.27</ele>
        <time>2011-11-19T12:25:04Z</time>
      </trkpt>
      <trkpt lat="44.71576" lon="5.64833">
        <ele>1852.6</ele>
        <time>2011-11-19T12:25:05Z</time>
      </trkpt>
      <trkpt lat="44.71576" lon="5.64833">
        <ele>1849.23</ele>
        <time>2011-11-19T12:25:06Z</time>
      </trkpt>
      <trkpt lat="44.71576" lon="5.64833">
        <ele>1852.6</ele>
        <time>2011-11-19T12:25:08Z</time>
      </trkpt>
      <trkpt lat="44.71576" lon="5.64833">
        <ele>1848.75</ele>
        <time>2011-11-19T12:25:09Z</time>
      </trkpt>
      <trkpt lat="44.7158" lon="5.6483">
        <ele>1845.39</ele>
        <time>2011-11-19T12:25:18Z</time>
      </trkpt>
      <trkpt lat="44.71581" lon="5.64828">
        <ele>1849.71</ele>
        <time>2011-11-19T12:25:20Z</time>
      </trkpt>
      <trkpt lat="44.71581" lon="5.64827">
        <ele>1848.75</ele>
        <time>2011-11-19T12:25:21Z</time>
      </trkpt>
      <trkpt lat="44.71587" lon="5.64821">
        <ele>1850.19</ele>
        <time>2011-11-19T12:25:31Z</time>
      </trkpt>
      <trkpt lat="44.71595" lon="5.64813">
        <ele>1852.12</ele>
        <time>2011-11-19T12:25:41Z</time>
      </trkpt>
      <trkpt lat="44.716" lon="5.64806">
        <ele>1852.12</ele>
        <time>2011-11-19T12:25:53Z</time>
      </trkpt>
      <trkpt lat="44.71601" lon="5.64805">
        <ele>1852.6</ele>
        <time>2011-11-19T12:25:55Z</time>
      </trkpt>
      <trkpt lat="44.71604" lon="5.64803">
        <ele>1854.04</ele>
        <time>2011-11-19T12:26:00Z</time>
      </trkpt>
      <trkpt lat="44.71605" lon="5.648">
        <ele>1854.04</ele>
        <time>2011-11-19T12:26:03Z</time>
      </trkpt>
      <trkpt lat="44.71611" lon="5.64798">
        <ele>1855</ele>
        <time>2011-11-19T12:26:11Z</time>
      </trkpt>
      <trkpt lat="44.71618" lon="5.6479">
        <ele>1855.96</ele>
        <time>2011-11-19T12:26:22Z</time>
      </trkpt>
      <trkpt lat="44.71619" lon="5.64789">
        <ele>1855.48</ele>
        <time>2011-11-19T12:26:24Z</time>
      </trkpt>
      <trkpt lat="44.71623" lon="5.64788">
        <ele>1856.44</ele>
        <time>2011-11-19T12:26:28Z</time>
      </trkpt>
      <trkpt lat="44.71625" lon="5.64784">
        <ele>1857.4</ele>
        <time>2011-11-19T12:26:33Z</time>
      </trkpt>
      <trkpt lat="44.71627" lon="5.64782">
        <ele>1857.4</ele>
        <time>2011-11-19T12:26:36Z</time>
      </trkpt>
      <trkpt lat="44.71633" lon="5.64777">
        <ele>1858.37</ele>
        <time>2011-11-19T12:26:47Z</time>
      </trkpt>
      <trkpt lat="44.7164" lon="5.64771">
        <ele>1859.81</ele>
        <time>2011-11-19T12:26:58Z</time>
      </trkpt>
      <trkpt lat="44.71647" lon="5.64765">
        <ele>1861.73</ele>
        <time>2011-11-19T12:27:09Z</time>
      </trkpt>
      <trkpt lat="44.71648" lon="5.64765">
        <ele>1861.73</ele>
        <time>2011-11-19T12:27:10Z</time>
      </trkpt>
      <trkpt lat="44.71652" lon="5.64758">
        <ele>1862.69</ele>
        <time>2011-11-19T12:27:18Z</time>
      </trkpt>
      <trkpt lat="44.7166" lon="5.6475">
        <ele>1864.13</ele>
        <time>2011-11-19T12:27:30Z</time>
      </trkpt>
      <trkpt lat="44.71666" lon="5.64745">
        <ele>1866.06</ele>
        <time>2011-11-19T12:27:40Z</time>
      </trkpt>
      <trkpt lat="44.7167" lon="5.64742">
        <ele>1867.02</ele>
        <time>2011-11-19T12:27:47Z</time>
      </trkpt>
      <trkpt lat="44.71674" lon="5.64738">
        <ele>1867.5</ele>
        <time>2011-11-19T12:27:59Z</time>
      </trkpt>
      <trkpt lat="44.71677" lon="5.64734">
        <ele>1868.46</ele>
        <time>2011-11-19T12:28:28Z</time>
      </trkpt>
      <trkpt lat="44.71684" lon="5.64734">
        <ele>1869.9</ele>
        <time>2011-11-19T12:28:36Z</time>
      </trkpt>
      <trkpt lat="44.71686" lon="5.64732">
        <ele>1870.38</ele>
        <time>2011-11-19T12:28:39Z</time>
      </trkpt>
      <trkpt lat="44.71689" lon="5.6473">
        <ele>1870.86</ele>
        <time>2011-11-19T12:28:42Z</time>
      </trkpt>
      <trkpt lat="44.71691" lon="5.64728">
        <ele>1870.86</ele>
        <time>2011-11-19T12:28:44Z</time>
      </trkpt>
      <trkpt lat="44.71696" lon="5.64725">
        <ele>1872.3</ele>
        <time>2011-11-19T12:28:49Z</time>
      </trkpt>
      <trkpt lat="44.71701" lon="5.64722">
        <ele>1874.23</ele>
        <time>2011-11-19T12:28:57Z</time>
      </trkpt>
      <trkpt lat="44.71708" lon="5.64715">
        <ele>1876.15</ele>
        <time>2011-11-19T12:29:09Z</time>
      </trkpt>
      <trkpt lat="44.71716" lon="5.64712">
        <ele>1878.55</ele>
        <time>2011-11-19T12:29:20Z</time>
      </trkpt>
      <trkpt lat="44.71721" lon="5.64706">
        <ele>1880.96</ele>
        <time>2011-11-19T12:29:30Z</time>
      </trkpt>
      <trkpt lat="44.71725" lon="5.64702">
        <ele>1881.44</ele>
        <time>2011-11-19T12:29:39Z</time>
      </trkpt>
      <trkpt lat="44.71732" lon="5.64701">
        <ele>1883.84</ele>
        <time>2011-11-19T12:29:50Z</time>
      </trkpt>
      <trkpt lat="44.71738" lon="5.64697">
        <ele>1885.76</ele>
        <time>2011-11-19T12:30:00Z</time>
      </trkpt>
      <trkpt lat="44.71739" lon="5.64697">
        <ele>1886.72</ele>
        <time>2011-11-19T12:30:03Z</time>
      </trkpt>
      <trkpt lat="44.7174" lon="5.64696">
        <ele>1886.72</ele>
        <time>2011-11-19T12:30:04Z</time>
      </trkpt>
      <trkpt lat="44.71746" lon="5.64694">
        <ele>1889.61</ele>
        <time>2011-11-19T12:30:14Z</time>
      </trkpt>
      <trkpt lat="44.7175" lon="5.64692">
        <ele>1891.53</ele>
        <time>2011-11-19T12:30:25Z</time>
      </trkpt>
      <trkpt lat="44.71754" lon="5.64689">
        <ele>1893.93</ele>
        <time>2011-11-19T12:30:33Z</time>
      </trkpt>
      <trkpt lat="44.7176" lon="5.64686">
        <ele>1895.86</ele>
        <time>2011-11-19T12:30:44Z</time>
      </trkpt>
      <trkpt lat="44.71765" lon="5.64686">
        <ele>1896.34</ele>
        <time>2011-11-19T12:30:54Z</time>
      </trkpt>
      <trkpt lat="44.71767" lon="5.64685">
        <ele>1897.3</ele>
        <time>2011-11-19T12:30:56Z</time>
      </trkpt>
      <trkpt lat="44.7177" lon="5.64683">
        <ele>1899.22</ele>
        <time>2011-11-19T12:31:07Z</time>
      </trkpt>
      <trkpt lat="44.71779" lon="5.64681">
        <ele>1902.11</ele>
        <time>2011-11-19T12:31:19Z</time>
      </trkpt>
      <trkpt lat="44.71784" lon="5.64679">
        <ele>1904.51</ele>
        <time>2011-11-19T12:31:30Z</time>
      </trkpt>
      <trkpt lat="44.71789" lon="5.64676">
        <ele>1906.43</ele>
        <time>2011-11-19T12:31:41Z</time>
      </trkpt>
      <trkpt lat="44.71789" lon="5.64676">
        <ele>1906.91</ele>
        <time>2011-11-19T12:31:42Z</time>
      </trkpt>
      <trkpt lat="44.71791" lon="5.64675">
        <ele>1906.91</ele>
        <time>2011-11-19T12:31:48Z</time>
      </trkpt>
      <trkpt lat="44.71793" lon="5.64674">
        <ele>1907.87</ele>
        <time>2011-11-19T12:31:51Z</time>
      </trkpt>
      <trkpt lat="44.718" lon="5.6467">
        <ele>1910.28</ele>
        <time>2011-11-19T12:32:02Z</time>
      </trkpt>
      <trkpt lat="44.71803" lon="5.64667">
        <ele>1911.72</ele>
        <time>2011-11-19T12:32:08Z</time>
      </trkpt>
      <trkpt lat="44.7181" lon="5.64664">
        <ele>1913.64</ele>
        <time>2011-11-19T12:32:19Z</time>
      </trkpt>
      <trkpt lat="44.71814" lon="5.64664">
        <ele>1916.04</ele>
        <time>2011-11-19T12:32:27Z</time>
      </trkpt>
      <trkpt lat="44.71819" lon="5.64662">
        <ele>1917.97</ele>
        <time>2011-11-19T12:32:39Z</time>
      </trkpt>
      <trkpt lat="44.71823" lon="5.64661">
        <ele>1918.93</ele>
        <time>2011-11-19T12:32:45Z</time>
      </trkpt>
      <trkpt lat="44.71825" lon="5.64659">
        <ele>1919.89</ele>
        <time>2011-11-19T12:32:48Z</time>
      </trkpt>
      <trkpt lat="44.71833" lon="5.64653">
        <ele>1921.81</ele>
        <time>2011-11-19T12:33:01Z</time>
      </trkpt>
      <trkpt lat="44.71838" lon="5.64648">
        <ele>1924.22</ele>
        <time>2011-11-19T12:33:12Z</time>
      </trkpt>
      <trkpt lat="44.71839" lon="5.64647">
        <ele>1925.18</ele>
        <time>2011-11-19T12:33:15Z</time>
      </trkpt>
      <trkpt lat="44.71841" lon="5.64644">
        <ele>1925.66</ele>
        <time>2011-11-19T12:33:18Z</time>
      </trkpt>
      <trkpt lat="44.71846" lon="5.6464">
        <ele>1925.66</ele>
        <time>2011-11-19T12:33:24Z</time>
      </trkpt>
      <trkpt lat="44.71852" lon="5.64643">
        <ele>1926.14</ele>
        <time>2011-11-19T12:33:31Z</time>
      </trkpt>
      <trkpt lat="44.7186" lon="5.64646">
        <ele>1926.14</ele>
        <time>2011-11-19T12:33:42Z</time>
      </trkpt>
      <trkpt lat="44.71864" lon="5.64648">
        <ele>1926.62</ele>
        <time>2011-11-19T12:33:46Z</time>
      </trkpt>
      <trkpt lat="44.71866" lon="5.64649">
        <ele>1928.54</ele>
        <time>2011-11-19T12:34:01Z</time>
      </trkpt>
      <trkpt lat="44.71866" lon="5.64649">
        <ele>1926.14</ele>
        <time>2011-11-19T12:34:21Z</time>
      </trkpt>
      <trkpt lat="44.71867" lon="5.64648">
        <ele>1926.62</ele>
        <time>2011-11-19T12:34:38Z</time>
      </trkpt>
      <trkpt lat="44.71867" lon="5.64648">
        <ele>1925.66</ele>
        <time>2011-11-19T12:34:58Z</time>
      </trkpt>
      <trkpt lat="44.71868" lon="5.64649">
        <ele>1925.66</ele>
        <time>2011-11-19T12:35:03Z</time>
      </trkpt>
      <trkpt lat="44.71871" lon="5.64655">
        <ele>1926.62</ele>
        <time>2011-11-19T12:35:08Z</time>
      </trkpt>
      <trkpt lat="44.71873" lon="5.64657">
        <ele>1928.54</ele>
        <time>2011-11-19T12:35:10Z</time>
      </trkpt>
      <trkpt lat="44.71873" lon="5.6466">
        <ele>1926.62</ele>
        <time>2011-11-19T12:35:13Z</time>
      </trkpt>
      <trkpt lat="44.71874" lon="5.64662">
        <ele>1928.54</ele>
        <time>2011-11-19T12:35:15Z</time>
      </trkpt>
      <trkpt lat="44.71881" lon="5.64667">
        <ele>1929.98</ele>
        <time>2011-11-19T12:35:23Z</time>
      </trkpt>
      <trkpt lat="44.71888" lon="5.64671">
        <ele>1931.91</ele>
        <time>2011-11-19T12:35:34Z</time>
      </trkpt>
      <trkpt lat="44.71888" lon="5.64671">
        <ele>1930.95</ele>
        <time>2011-11-19T12:35:40Z</time>
      </trkpt>
      <trkpt lat="44.71888" lon="5.64671">
        <ele>1934.31</ele>
        <time>2011-11-19T12:35:44Z</time>
      </trkpt>
      <trkpt lat="44.71888" lon="5.64671">
        <ele>1933.83</ele>
        <time>2011-11-19T12:35:45Z</time>
      </trkpt>
      <trkpt lat="44.71889" lon="5.64671">
        <ele>1930.95</ele>
        <time>2011-11-19T12:36:07Z</time>
      </trkpt>
      <trkpt lat="44.71897" lon="5.64676">
        <ele>1932.87</ele>
        <time>2011-11-19T12:36:18Z</time>
      </trkpt>
      <trkpt lat="44.71899" lon="5.64677">
        <ele>1931.43</ele>
        <time>2011-11-19T12:36:21Z</time>
      </trkpt>
      <trkpt lat="44.71903" lon="5.6468">
        <ele>1934.79</ele>
        <time>2011-11-19T12:36:27Z</time>
      </trkpt>
      <trkpt lat="44.71904" lon="5.64681">
        <ele>1935.27</ele>
        <time>2011-11-19T12:36:29Z</time>
      </trkpt>
      <trkpt lat="44.71906" lon="5.64683">
        <ele>1936.23</ele>
        <time>2011-11-19T12:36:32Z</time>
      </trkpt>
      <trkpt lat="44.7191" lon="5.64684">
        <ele>1936.71</ele>
        <time>2011-11-19T12:36:37Z</time>
      </trkpt>
      <trkpt lat="44.7192" lon="5.64689">
        <ele>1936.71</ele>
        <time>2011-11-19T12:36:47Z</time>
      </trkpt>
      <trkpt lat="44.71921" lon="5.6469">
        <ele>1938.64</ele>
        <time>2011-11-19T12:36:50Z</time>
      </trkpt>
      <trkpt lat="44.71923" lon="5.64691">
        <ele>1939.12</ele>
        <time>2011-11-19T12:36:53Z</time>
      </trkpt>
      <trkpt lat="44.71925" lon="5.64694">
        <ele>1938.16</ele>
        <time>2011-11-19T12:36:57Z</time>
      </trkpt>
      <trkpt lat="44.71927" lon="5.64695">
        <ele>1940.08</ele>
        <time>2011-11-19T12:36:59Z</time>
      </trkpt>
      <trkpt lat="44.71929" lon="5.64697">
        <ele>1939.12</ele>
        <time>2011-11-19T12:37:01Z</time>
      </trkpt>
      <trkpt lat="44.71932" lon="5.64698">
        <ele>1939.12</ele>
        <time>2011-11-19T12:37:04Z</time>
      </trkpt>
      <trkpt lat="44.71933" lon="5.64699">
        <ele>1934.79</ele>
        <time>2011-11-19T12:37:10Z</time>
      </trkpt>
      <trkpt lat="44.71933" lon="5.64699">
        <ele>1937.19</ele>
        <time>2011-11-19T12:37:11Z</time>
      </trkpt>
      <trkpt lat="44.71937" lon="5.64701">
        <ele>1941.04</ele>
        <time>2011-11-19T12:37:20Z</time>
      </trkpt>
      <trkpt lat="44.7194" lon="5.64702">
        <ele>1941.04</ele>
        <time>2011-11-19T12:37:24Z</time>
      </trkpt>
      <trkpt lat="44.71947" lon="5.64707">
        <ele>1941.52</ele>
        <time>2011-11-19T12:37:38Z</time>
      </trkpt>
      <trkpt lat="44.71954" lon="5.6471">
        <ele>1942.96</ele>
        <time>2011-11-19T12:37:50Z</time>
      </trkpt>
      <trkpt lat="44.71959" lon="5.64712">
        <ele>1945.36</ele>
        <time>2011-11-19T12:38:01Z</time>
      </trkpt>
      <trkpt lat="44.7196" lon="5.64713">
        <ele>1942.48</ele>
        <time>2011-11-19T12:38:05Z</time>
      </trkpt>
      <trkpt lat="44.71961" lon="5.64713">
        <ele>1946.33</ele>
        <time>2011-11-19T12:38:09Z</time>
      </trkpt>
      <trkpt lat="44.71964" lon="5.64714">
        <ele>1946.33</ele>
        <time>2011-11-19T12:38:13Z</time>
      </trkpt>
      <trkpt lat="44.7197" lon="5.64717">
        <ele>1948.25</ele>
        <time>2011-11-19T12:38:26Z</time>
      </trkpt>
      <trkpt lat="44.71971" lon="5.64718">
        <ele>1948.73</ele>
        <time>2011-11-19T12:38:30Z</time>
      </trkpt>
      <trkpt lat="44.71976" lon="5.6472">
        <ele>1951.61</ele>
        <time>2011-11-19T12:38:38Z</time>
      </trkpt>
      <trkpt lat="44.71978" lon="5.64721">
        <ele>1953.06</ele>
        <time>2011-11-19T12:38:40Z</time>
      </trkpt>
      <trkpt lat="44.71983" lon="5.64723">
        <ele>1954.5</ele>
        <time>2011-11-19T12:38:51Z</time>
      </trkpt>
      <trkpt lat="44.71984" lon="5.64724">
        <ele>1957.38</ele>
        <time>2011-11-19T12:38:55Z</time>
      </trkpt>
      <trkpt lat="44.7199" lon="5.64726">
        <ele>1958.34</ele>
        <time>2011-11-19T12:39:08Z</time>
      </trkpt>
      <trkpt lat="44.71992" lon="5.64726">
        <ele>1960.27</ele>
        <time>2011-11-19T12:39:13Z</time>
      </trkpt>
      <trkpt lat="44.71993" lon="5.64726">
        <ele>1963.15</ele>
        <time>2011-11-19T12:39:17Z</time>
      </trkpt>
      <trkpt lat="44.71995" lon="5.64727">
        <ele>1959.78</ele>
        <time>2011-11-19T12:39:22Z</time>
      </trkpt>
      <trkpt lat="44.71996" lon="5.64728">
        <ele>1960.27</ele>
        <time>2011-11-19T12:39:27Z</time>
      </trkpt>
      <trkpt lat="44.72002" lon="5.64727">
        <ele>1962.67</ele>
        <time>2011-11-19T12:39:34Z</time>
      </trkpt>
      <trkpt lat="44.72007" lon="5.64726">
        <ele>1961.71</ele>
        <time>2011-11-19T12:39:44Z</time>
      </trkpt>
      <trkpt lat="44.7201" lon="5.64728">
        <ele>1966.99</ele>
        <time>2011-11-19T12:39:49Z</time>
      </trkpt>
      <trkpt lat="44.7201" lon="5.64728">
        <ele>1964.11</ele>
        <time>2011-11-19T12:39:50Z</time>
      </trkpt>
      <trkpt lat="44.72018" lon="5.64727">
        <ele>1967.96</ele>
        <time>2011-11-19T12:40:00Z</time>
      </trkpt>
      <trkpt lat="44.7202" lon="5.64725">
        <ele>1965.55</ele>
        <time>2011-11-19T12:40:13Z</time>
      </trkpt>
      <trkpt lat="44.72025" lon="5.64726">
        <ele>1965.07</ele>
        <time>2011-11-19T12:40:21Z</time>
      </trkpt>
      <trkpt lat="44.72027" lon="5.64727">
        <ele>1967.48</ele>
        <time>2011-11-19T12:40:24Z</time>
      </trkpt>
      <trkpt lat="44.72029" lon="5.64727">
        <ele>1970.84</ele>
        <time>2011-11-19T12:40:26Z</time>
      </trkpt>
      <trkpt lat="44.72033" lon="5.64728">
        <ele>1968.92</ele>
        <time>2011-11-19T12:40:31Z</time>
      </trkpt>
      <trkpt lat="44.72034" lon="5.64729">
        <ele>1967.96</ele>
        <time>2011-11-19T12:40:34Z</time>
      </trkpt>
      <trkpt lat="44.72038" lon="5.64729">
        <ele>1971.32</ele>
        <time>2011-11-19T12:40:39Z</time>
      </trkpt>
      <trkpt lat="44.72039" lon="5.64729">
        <ele>1973.24</ele>
        <time>2011-11-19T12:40:41Z</time>
      </trkpt>
      <trkpt lat="44.72043" lon="5.6473">
        <ele>1969.88</ele>
        <time>2011-11-19T12:40:47Z</time>
      </trkpt>
      <trkpt lat="44.72045" lon="5.6473">
        <ele>1973.72</ele>
        <time>2011-11-19T12:40:51Z</time>
      </trkpt>
      <trkpt lat="44.72045" lon="5.6473">
        <ele>1973.72</ele>
        <time>2011-11-19T12:40:52Z</time>
      </trkpt>
      <trkpt lat="44.72051" lon="5.64729">
        <ele>1977.57</ele>
        <time>2011-11-19T12:41:01Z</time>
      </trkpt>
      <trkpt lat="44.72055" lon="5.6473">
        <ele>1972.76</ele>
        <time>2011-11-19T12:41:05Z</time>
      </trkpt>
      <trkpt lat="44.72055" lon="5.6473">
        <ele>1976.13</ele>
        <time>2011-11-19T12:41:06Z</time>
      </trkpt>
      <trkpt lat="44.72055" lon="5.6473">
        <ele>1977.57</ele>
        <time>2011-11-19T12:41:08Z</time>
      </trkpt>
      <trkpt lat="44.72062" lon="5.64726">
        <ele>1975.65</ele>
        <time>2011-11-19T12:41:22Z</time>
      </trkpt>
      <trkpt lat="44.72064" lon="5.64725">
        <ele>1974.2</ele>
        <time>2011-11-19T12:41:24Z</time>
      </trkpt>
      <trkpt lat="44.72069" lon="5.64725">
        <ele>1978.53</ele>
        <time>2011-11-19T12:41:33Z</time>
      </trkpt>
      <trkpt lat="44.72072" lon="5.64724">
        <ele>1979.01</ele>
        <time>2011-11-19T12:41:38Z</time>
      </trkpt>
      <trkpt lat="44.72081" lon="5.64721">
        <ele>1979.01</ele>
        <time>2011-11-19T12:41:48Z</time>
      </trkpt>
      <trkpt lat="44.72092" lon="5.64718">
        <ele>1980.93</ele>
        <time>2011-11-19T12:42:00Z</time>
      </trkpt>
      <trkpt lat="44.72098" lon="5.64715">
        <ele>1980.45</ele>
        <time>2011-11-19T12:42:11Z</time>
      </trkpt>
      <trkpt lat="44.72101" lon="5.64716">
        <ele>1983.34</ele>
        <time>2011-11-19T12:42:16Z</time>
      </trkpt>
      <trkpt lat="44.72103" lon="5.64715">
        <ele>1983.34</ele>
        <time>2011-11-19T12:42:22Z</time>
      </trkpt>
      <trkpt lat="44.72108" lon="5.64714">
        <ele>1985.26</ele>
        <time>2011-11-19T12:42:31Z</time>
      </trkpt>
      <trkpt lat="44.72108" lon="5.64714">
        <ele>1982.86</ele>
        <time>2011-11-19T12:42:40Z</time>
      </trkpt>
      <trkpt lat="44.72108" lon="5.64714">
        <ele>1981.9</ele>
        <time>2011-11-19T12:42:47Z</time>
      </trkpt>
      <trkpt lat="44.72108" lon="5.64714">
        <ele>1981.9</ele>
        <time>2011-11-19T12:43:05Z</time>
      </trkpt>
      <trkpt lat="44.72111" lon="5.64713">
        <ele>1986.22</ele>
        <time>2011-11-19T12:43:08Z</time>
      </trkpt>
      <trkpt lat="44.72113" lon="5.64713">
        <ele>1985.74</ele>
        <time>2011-11-19T12:43:10Z</time>
      </trkpt>
      <trkpt lat="44.72124" lon="5.6471">
        <ele>1985.26</ele>
        <time>2011-11-19T12:43:20Z</time>
      </trkpt>
      <trkpt lat="44.72128" lon="5.6471">
        <ele>1984.78</ele>
        <time>2011-11-19T12:43:25Z</time>
      </trkpt>
      <trkpt lat="44.72134" lon="5.64709">
        <ele>1986.22</ele>
        <time>2011-11-19T12:43:31Z</time>
      </trkpt>
      <trkpt lat="44.72137" lon="5.64708">
        <ele>1985.26</ele>
        <time>2011-11-19T12:43:33Z</time>
      </trkpt>
      <trkpt lat="44.72141" lon="5.64705">
        <ele>1983.82</ele>
        <time>2011-11-19T12:43:47Z</time>
      </trkpt>
      <trkpt lat="44.72141" lon="5.64705">
        <ele>1986.22</ele>
        <time>2011-11-19T12:43:50Z</time>
      </trkpt>
      <trkpt lat="44.72145" lon="5.64706">
        <ele>1988.62</ele>
        <time>2011-11-19T12:44:01Z</time>
      </trkpt>
      <trkpt lat="44.72148" lon="5.64708">
        <ele>1987.66</ele>
        <time>2011-11-19T12:44:10Z</time>
      </trkpt>
      <trkpt lat="44.72151" lon="5.64707">
        <ele>1991.03</ele>
        <time>2011-11-19T12:44:22Z</time>
      </trkpt>
      <trkpt lat="44.72149" lon="5.6471">
        <ele>1985.74</ele>
        <time>2011-11-19T12:44:36Z</time>
      </trkpt>
      <trkpt lat="44.72149" lon="5.6471">
        <ele>1988.14</ele>
        <time>2011-11-19T12:44:37Z</time>
      </trkpt>
      <trkpt lat="44.7215" lon="5.64711">
        <ele>1991.03</ele>
        <time>2011-11-19T12:44:52Z</time>
      </trkpt>
      <trkpt lat="44.72152" lon="5.64711">
        <ele>1991.99</ele>
        <time>2011-11-19T12:45:05Z</time>
      </trkpt>
      <trkpt lat="44.7216" lon="5.6471">
        <ele>1992.95</ele>
        <time>2011-11-19T12:45:17Z</time>
      </trkpt>
      <trkpt lat="44.72165" lon="5.64704">
        <ele>1994.39</ele>
        <time>2011-11-19T12:45:26Z</time>
      </trkpt>
      <trkpt lat="44.7217" lon="5.647">
        <ele>1994.87</ele>
        <time>2011-11-19T12:45:32Z</time>
      </trkpt>
      <trkpt lat="44.72171" lon="5.64697">
        <ele>1994.39</ele>
        <time>2011-11-19T12:45:35Z</time>
      </trkpt>
      <trkpt lat="44.72172" lon="5.64693">
        <ele>1993.91</ele>
        <time>2011-11-19T12:45:39Z</time>
      </trkpt>
      <trkpt lat="44.72175" lon="5.64688">
        <ele>1994.39</ele>
        <time>2011-11-19T12:45:45Z</time>
      </trkpt>
      <trkpt lat="44.7218" lon="5.64683">
        <ele>1994.39</ele>
        <time>2011-11-19T12:45:53Z</time>
      </trkpt>
      <trkpt lat="44.72181" lon="5.64682">
        <ele>1994.39</ele>
        <time>2011-11-19T12:46:11Z</time>
      </trkpt>
      <trkpt lat="44.72186" lon="5.64683">
        <ele>1995.35</ele>
        <time>2011-11-19T12:46:26Z</time>
      </trkpt>
      <trkpt lat="44.72187" lon="5.64684">
        <ele>1996.32</ele>
        <time>2011-11-19T12:46:27Z</time>
      </trkpt>
      <trkpt lat="44.72192" lon="5.64683">
        <ele>1997.76</ele>
        <time>2011-11-19T12:46:34Z</time>
      </trkpt>
      <trkpt lat="44.72194" lon="5.64683">
        <ele>1998.72</ele>
        <time>2011-11-19T12:46:36Z</time>
      </trkpt>
      <trkpt lat="44.722" lon="5.64683">
        <ele>2000.64</ele>
        <time>2011-11-19T12:46:44Z</time>
      </trkpt>
      <trkpt lat="44.72206" lon="5.64685">
        <ele>2002.08</ele>
        <time>2011-11-19T12:46:53Z</time>
      </trkpt>
      <trkpt lat="44.72211" lon="5.64687">
        <ele>2004.97</ele>
        <time>2011-11-19T12:47:05Z</time>
      </trkpt>
      <trkpt lat="44.72217" lon="5.64685">
        <ele>2003.04</ele>
        <time>2011-11-19T12:47:14Z</time>
      </trkpt>
      <trkpt lat="44.72224" lon="5.64683">
        <ele>2004.97</ele>
        <time>2011-11-19T12:47:25Z</time>
      </trkpt>
      <trkpt lat="44.72224" lon="5.64683">
        <ele>2004.01</ele>
        <time>2011-11-19T12:47:45Z</time>
      </trkpt>
      <trkpt lat="44.72225" lon="5.64682">
        <ele>2005.45</ele>
        <time>2011-11-19T12:47:57Z</time>
      </trkpt>
      <trkpt lat="44.72226" lon="5.64682">
        <ele>2006.41</ele>
        <time>2011-11-19T12:47:59Z</time>
      </trkpt>
      <trkpt lat="44.7223" lon="5.64682">
        <ele>2006.41</ele>
        <time>2011-11-19T12:48:03Z</time>
      </trkpt>
      <trkpt lat="44.72236" lon="5.64682">
        <ele>2010.73</ele>
        <time>2011-11-19T12:48:09Z</time>
      </trkpt>
      <trkpt lat="44.72238" lon="5.64682">
        <ele>2010.73</ele>
        <time>2011-11-19T12:48:11Z</time>
      </trkpt>
      <trkpt lat="44.72249" lon="5.64683">
        <ele>2010.73</ele>
        <time>2011-11-19T12:48:22Z</time>
      </trkpt>
      <trkpt lat="44.7225" lon="5.64683">
        <ele>2011.22</ele>
        <time>2011-11-19T12:48:24Z</time>
      </trkpt>
      <trkpt lat="44.72256" lon="5.64681">
        <ele>2011.22</ele>
        <time>2011-11-19T12:48:29Z</time>
      </trkpt>
      <trkpt lat="44.72258" lon="5.64681">
        <ele>2013.14</ele>
        <time>2011-11-19T12:48:32Z</time>
      </trkpt>
      <trkpt lat="44.72263" lon="5.6468">
        <ele>2014.1</ele>
        <time>2011-11-19T12:48:38Z</time>
      </trkpt>
      <trkpt lat="44.72272" lon="5.64679">
        <ele>2012.66</ele>
        <time>2011-11-19T12:48:47Z</time>
      </trkpt>
      <trkpt lat="44.72275" lon="5.64679">
        <ele>2016.5</ele>
        <time>2011-11-19T12:48:50Z</time>
      </trkpt>
      <trkpt lat="44.72276" lon="5.6468">
        <ele>2007.37</ele>
        <time>2011-11-19T12:48:51Z</time>
      </trkpt>
      <trkpt lat="44.72277" lon="5.6468">
        <ele>2013.62</ele>
        <time>2011-11-19T12:48:52Z</time>
      </trkpt>
      <trkpt lat="44.7228" lon="5.6468">
        <ele>2014.58</ele>
        <time>2011-11-19T12:48:56Z</time>
      </trkpt>
      <trkpt lat="44.72288" lon="5.64679">
        <ele>2013.14</ele>
        <time>2011-11-19T12:49:05Z</time>
      </trkpt>
      <trkpt lat="44.7229" lon="5.6468">
        <ele>2014.58</ele>
        <time>2011-11-19T12:49:09Z</time>
      </trkpt>
      <trkpt lat="44.72291" lon="5.6468">
        <ele>2015.54</ele>
        <time>2011-11-19T12:49:12Z</time>
      </trkpt>
      <trkpt lat="44.723" lon="5.64681">
        <ele>2014.1</ele>
        <time>2011-11-19T12:49:20Z</time>
      </trkpt>
      <trkpt lat="44.72312" lon="5.6468">
        <ele>2017.94</ele>
        <time>2011-11-19T12:49:32Z</time>
      </trkpt>
      <trkpt lat="44.72316" lon="5.64679">
        <ele>2017.46</ele>
        <time>2011-11-19T12:49:36Z</time>
      </trkpt>
      <trkpt lat="44.72321" lon="5.64681">
        <ele>2019.39</ele>
        <time>2011-11-19T12:49:42Z</time>
      </trkpt>
      <trkpt lat="44.72329" lon="5.64685">
        <ele>2018.43</ele>
        <time>2011-11-19T12:49:53Z</time>
      </trkpt>
      <trkpt lat="44.72334" lon="5.6469">
        <ele>2020.35</ele>
        <time>2011-11-19T12:50:04Z</time>
      </trkpt>
      <trkpt lat="44.72334" lon="5.6469">
        <ele>2024.19</ele>
        <time>2011-11-19T12:50:17Z</time>
      </trkpt>
      <trkpt lat="44.72334" lon="5.6469">
        <ele>2025.15</ele>
        <time>2011-11-19T12:50:19Z</time>
      </trkpt>
      <trkpt lat="44.72338" lon="5.64692">
        <ele>2023.23</ele>
        <time>2011-11-19T12:50:24Z</time>
      </trkpt>
      <trkpt lat="44.72339" lon="5.64694">
        <ele>2026.12</ele>
        <time>2011-11-19T12:50:27Z</time>
      </trkpt>
      <trkpt lat="44.7234" lon="5.64694">
        <ele>2025.64</ele>
        <time>2011-11-19T12:50:28Z</time>
      </trkpt>
      <trkpt lat="44.72343" lon="5.64695">
        <ele>2027.56</ele>
        <time>2011-11-19T12:50:34Z</time>
      </trkpt>
      <trkpt lat="44.72343" lon="5.64695">
        <ele>2029</ele>
        <time>2011-11-19T12:50:36Z</time>
      </trkpt>
      <trkpt lat="44.72343" lon="5.64695">
        <ele>2026.12</ele>
        <time>2011-11-19T12:50:39Z</time>
      </trkpt>
      <trkpt lat="44.72343" lon="5.64695">
        <ele>2025.64</ele>
        <time>2011-11-19T12:50:45Z</time>
      </trkpt>
      <trkpt lat="44.72343" lon="5.64695">
        <ele>2029</ele>
        <time>2011-11-19T12:50:49Z</time>
      </trkpt>
      <trkpt lat="44.72343" lon="5.64695">
        <ele>2025.15</ele>
        <time>2011-11-19T12:50:51Z</time>
      </trkpt>
      <trkpt lat="44.72343" lon="5.64695">
        <ele>2027.56</ele>
        <time>2011-11-19T12:50:55Z</time>
      </trkpt>
      <trkpt lat="44.72343" lon="5.64695">
        <ele>2029.48</ele>
        <time>2011-11-19T12:51:09Z</time>
      </trkpt>
      <trkpt lat="44.72343" lon="5.64695">
        <ele>2030.92</ele>
        <time>2011-11-19T12:51:22Z</time>
      </trkpt>
      <trkpt lat="44.72348" lon="5.64695">
        <ele>2031.88</ele>
        <time>2011-11-19T12:51:31Z</time>
      </trkpt>
      <trkpt lat="44.72354" lon="5.64696">
        <ele>2036.21</ele>
        <time>2011-11-19T12:51:37Z</time>
      </trkpt>
      <trkpt lat="44.72358" lon="5.64697">
        <ele>2033.81</ele>
        <time>2011-11-19T12:51:40Z</time>
      </trkpt>
      <trkpt lat="44.72363" lon="5.64698">
        <ele>2035.25</ele>
        <time>2011-11-19T12:51:45Z</time>
      </trkpt>
      <trkpt lat="44.72363" lon="5.64698">
        <ele>2035.25</ele>
        <time>2011-11-19T12:51:56Z</time>
      </trkpt>
      <trkpt lat="44.72363" lon="5.64698">
        <ele>2038.61</ele>
        <time>2011-11-19T12:52:02Z</time>
      </trkpt>
      <trkpt lat="44.72363" lon="5.64698">
        <ele>2038.13</ele>
        <time>2011-11-19T12:52:03Z</time>
      </trkpt>
      <trkpt lat="44.72363" lon="5.64698">
        <ele>2040.05</ele>
        <time>2011-11-19T12:52:15Z</time>
      </trkpt>
      <trkpt lat="44.72368" lon="5.64698">
        <ele>2040.54</ele>
        <time>2011-11-19T12:52:26Z</time>
      </trkpt>
      <trkpt lat="44.72382" lon="5.64706">
        <ele>2040.54</ele>
        <time>2011-11-19T12:52:32Z</time>
      </trkpt>
      <trkpt lat="44.72397" lon="5.64709">
        <ele>2042.94</ele>
        <time>2011-11-19T12:52:44Z</time>
      </trkpt>
      <trkpt lat="44.72404" lon="5.64712">
        <ele>2043.42</ele>
        <time>2011-11-19T12:52:57Z</time>
      </trkpt>
      <trkpt lat="44.72405" lon="5.64713">
        <ele>2043.9</ele>
        <time>2011-11-19T12:53:13Z</time>
      </trkpt>
      <trkpt lat="44.72406" lon="5.64711">
        <ele>2042.94</ele>
        <time>2011-11-19T12:53:24Z</time>
      </trkpt>
      <trkpt lat="44.72406" lon="5.64711">
        <ele>2043.9</ele>
        <time>2011-11-19T12:53:43Z</time>
      </trkpt>
      <trkpt lat="44.72406" lon="5.64711">
        <ele>2042.94</ele>
        <time>2011-11-19T12:53:55Z</time>
      </trkpt>
      <trkpt lat="44.72409" lon="5.64712">
        <ele>2043.42</ele>
        <time>2011-11-19T12:54:04Z</time>
      </trkpt>
      <trkpt lat="44.72412" lon="5.64711">
        <ele>2043.42</ele>
        <time>2011-11-19T12:54:15Z</time>
      </trkpt>
      <trkpt lat="44.72412" lon="5.64711">
        <ele>2041.5</ele>
        <time>2011-11-19T12:54:26Z</time>
      </trkpt>
      <trkpt lat="44.72412" lon="5.64711">
        <ele>2043.9</ele>
        <time>2011-11-19T12:54:31Z</time>
      </trkpt>
      <trkpt lat="44.72412" lon="5.64711">
        <ele>2042.94</ele>
        <time>2011-11-19T12:54:44Z</time>
      </trkpt>
      <trkpt lat="44.72412" lon="5.64712">
        <ele>2044.86</ele>
        <time>2011-11-19T12:55:07Z</time>
      </trkpt>
      <trkpt lat="44.72412" lon="5.64712">
        <ele>2043.42</ele>
        <time>2011-11-19T12:55:32Z</time>
      </trkpt>
      <trkpt lat="44.72412" lon="5.64712">
        <ele>2043.42</ele>
        <time>2011-11-19T12:55:33Z</time>
      </trkpt>
      <trkpt lat="44.72412" lon="5.64712">
        <ele>2042.46</ele>
        <time>2011-11-19T12:55:54Z</time>
      </trkpt>
      <trkpt lat="44.72412" lon="5.64712">
        <ele>2042.46</ele>
        <time>2011-11-19T12:56:10Z</time>
      </trkpt>
      <trkpt lat="44.72412" lon="5.64712">
        <ele>2046.3</ele>
        <time>2011-11-19T12:56:29Z</time>
      </trkpt>
      <trkpt lat="44.72412" lon="5.64712">
        <ele>2043.42</ele>
        <time>2011-11-19T12:56:33Z</time>
      </trkpt>
      <trkpt lat="44.72413" lon="5.6471">
        <ele>2043.42</ele>
        <time>2011-11-19T12:56:44Z</time>
      </trkpt>
      <trkpt lat="44.72413" lon="5.6471">
        <ele>2042.46</ele>
        <time>2011-11-19T12:57:02Z</time>
      </trkpt>
      <trkpt lat="44.72413" lon="5.6471">
        <ele>2041.98</ele>
        <time>2011-11-19T12:57:25Z</time>
      </trkpt>
      <trkpt lat="44.72413" lon="5.6471">
        <ele>2041.98</ele>
        <time>2011-11-19T12:57:45Z</time>
      </trkpt>
      <trkpt lat="44.72414" lon="5.6471">
        <ele>2041.5</ele>
        <time>2011-11-19T12:58:13Z</time>
      </trkpt>
      <trkpt lat="44.72414" lon="5.6471">
        <ele>2041.5</ele>
        <time>2011-11-19T12:58:34Z</time>
      </trkpt>
      <trkpt lat="44.72414" lon="5.6471">
        <ele>2042.46</ele>
        <time>2011-11-19T12:58:47Z</time>
      </trkpt>
      <trkpt lat="44.72413" lon="5.6471">
        <ele>2044.38</ele>
        <time>2011-11-19T12:58:49Z</time>
      </trkpt>
      <trkpt lat="44.72413" lon="5.6471">
        <ele>2043.42</ele>
        <time>2011-11-19T12:58:50Z</time>
      </trkpt>
      <trkpt lat="44.72416" lon="5.64709">
        <ele>2042.94</ele>
        <time>2011-11-19T12:58:53Z</time>
      </trkpt>
      <trkpt lat="44.72419" lon="5.64707">
        <ele>2041.5</ele>
        <time>2011-11-19T12:58:55Z</time>
      </trkpt>
      <trkpt lat="44.72422" lon="5.64706">
        <ele>2039.57</ele>
        <time>2011-11-19T12:58:58Z</time>
      </trkpt>
      <trkpt lat="44.72433" lon="5.64702">
        <ele>2037.65</ele>
        <time>2011-11-19T12:59:09Z</time>
      </trkpt>
      <trkpt lat="44.72439" lon="5.64699">
        <ele>2034.29</ele>
        <time>2011-11-19T12:59:20Z</time>
      </trkpt>
      <trkpt lat="44.7244" lon="5.64699">
        <ele>2033.81</ele>
        <time>2011-11-19T12:59:22Z</time>
      </trkpt>
      <trkpt lat="44.72448" lon="5.64694">
        <ele>2030.92</ele>
        <time>2011-11-19T12:59:35Z</time>
      </trkpt>
      <trkpt lat="44.72453" lon="5.64688">
        <ele>2029.96</ele>
        <time>2011-11-19T12:59:44Z</time>
      </trkpt>
      <trkpt lat="44.72459" lon="5.64683">
        <ele>2028.04</ele>
        <time>2011-11-19T12:59:51Z</time>
      </trkpt>
      <trkpt lat="44.72464" lon="5.64681">
        <ele>2027.08</ele>
        <time>2011-11-19T12:59:57Z</time>
      </trkpt>
      <trkpt lat="44.72469" lon="5.64678">
        <ele>2025.64</ele>
        <time>2011-11-19T13:00:04Z</time>
      </trkpt>
      <trkpt lat="44.72473" lon="5.64676">
        <ele>2024.19</ele>
        <time>2011-11-19T13:00:09Z</time>
      </trkpt>
      <trkpt lat="44.72478" lon="5.64672">
        <ele>2023.71</ele>
        <time>2011-11-19T13:00:18Z</time>
      </trkpt>
      <trkpt lat="44.72479" lon="5.64671">
        <ele>2021.79</ele>
        <time>2011-11-19T13:00:20Z</time>
      </trkpt>
      <trkpt lat="44.7248" lon="5.6467">
        <ele>2023.23</ele>
        <time>2011-11-19T13:00:22Z</time>
      </trkpt>
      <trkpt lat="44.72484" lon="5.64668">
        <ele>2021.79</ele>
        <time>2011-11-19T13:00:27Z</time>
      </trkpt>
      <trkpt lat="44.72489" lon="5.64665">
        <ele>2018.91</ele>
        <time>2011-11-19T13:00:36Z</time>
      </trkpt>
      <trkpt lat="44.7249" lon="5.64664">
        <ele>2019.39</ele>
        <time>2011-11-19T13:00:38Z</time>
      </trkpt>
      <trkpt lat="44.72498" lon="5.6466">
        <ele>2017.94</ele>
        <time>2011-11-19T13:00:48Z</time>
      </trkpt>
      <trkpt lat="44.72511" lon="5.64652">
        <ele>2014.1</ele>
        <time>2011-11-19T13:01:04Z</time>
      </trkpt>
      <trkpt lat="44.72511" lon="5.64652">
        <ele>2013.14</ele>
        <time>2011-11-19T13:01:05Z</time>
      </trkpt>
      <trkpt lat="44.72521" lon="5.64649">
        <ele>2012.18</ele>
        <time>2011-11-19T13:01:18Z</time>
      </trkpt>
      <trkpt lat="44.72531" lon="5.64645">
        <ele>2010.73</ele>
        <time>2011-11-19T13:01:31Z</time>
      </trkpt>
      <trkpt lat="44.72532" lon="5.64645">
        <ele>2010.73</ele>
        <time>2011-11-19T13:01:32Z</time>
      </trkpt>
      <trkpt lat="44.72536" lon="5.64643">
        <ele>2008.81</ele>
        <time>2011-11-19T13:01:36Z</time>
      </trkpt>
      <trkpt lat="44.72539" lon="5.64643">
        <ele>2007.85</ele>
        <time>2011-11-19T13:01:40Z</time>
      </trkpt>
      <trkpt lat="44.72542" lon="5.64641">
        <ele>2007.37</ele>
        <time>2011-11-19T13:01:44Z</time>
      </trkpt>
      <trkpt lat="44.72547" lon="5.64641">
        <ele>2005.93</ele>
        <time>2011-11-19T13:01:50Z</time>
      </trkpt>
      <trkpt lat="44.72557" lon="5.64635">
        <ele>2005.45</ele>
        <time>2011-11-19T13:02:02Z</time>
      </trkpt>
      <trkpt lat="44.72559" lon="5.64634">
        <ele>2004.49</ele>
        <time>2011-11-19T13:02:05Z</time>
      </trkpt>
      <trkpt lat="44.72561" lon="5.64633">
        <ele>2003.04</ele>
        <time>2011-11-19T13:02:08Z</time>
      </trkpt>
      <trkpt lat="44.72563" lon="5.64633">
        <ele>2002.08</ele>
        <time>2011-11-19T13:02:10Z</time>
      </trkpt>
      <trkpt lat="44.72566" lon="5.64631">
        <ele>2003.04</ele>
        <time>2011-11-19T13:02:15Z</time>
      </trkpt>
      <trkpt lat="44.7257" lon="5.64629">
        <ele>2002.08</ele>
        <time>2011-11-19T13:02:19Z</time>
      </trkpt>
      <trkpt lat="44.72575" lon="5.64627">
        <ele>2000.64</ele>
        <time>2011-11-19T13:02:25Z</time>
      </trkpt>
      <trkpt lat="44.72578" lon="5.64626">
        <ele>1999.68</ele>
        <time>2011-11-19T13:02:28Z</time>
      </trkpt>
      <trkpt lat="44.72584" lon="5.64623">
        <ele>1998.24</ele>
        <time>2011-11-19T13:02:35Z</time>
      </trkpt>
      <trkpt lat="44.72588" lon="5.64623">
        <ele>1996.32</ele>
        <time>2011-11-19T13:02:39Z</time>
      </trkpt>
      <trkpt lat="44.72597" lon="5.64626">
        <ele>1996.8</ele>
        <time>2011-11-19T13:02:50Z</time>
      </trkpt>
      <trkpt lat="44.72598" lon="5.64625">
        <ele>1995.35</ele>
        <time>2011-11-19T13:02:52Z</time>
      </trkpt>
      <trkpt lat="44.72601" lon="5.64626">
        <ele>1993.91</ele>
        <time>2011-11-19T13:02:55Z</time>
      </trkpt>
      <trkpt lat="44.72603" lon="5.64626">
        <ele>1993.43</ele>
        <time>2011-11-19T13:02:58Z</time>
      </trkpt>
      <trkpt lat="44.72605" lon="5.64624">
        <ele>1992.95</ele>
        <time>2011-11-19T13:03:01Z</time>
      </trkpt>
      <trkpt lat="44.7261" lon="5.64623">
        <ele>1992.95</ele>
        <time>2011-11-19T13:03:06Z</time>
      </trkpt>
      <trkpt lat="44.72615" lon="5.6462">
        <ele>1992.95</ele>
        <time>2011-11-19T13:03:12Z</time>
      </trkpt>
      <trkpt lat="44.72619" lon="5.64619">
        <ele>1993.43</ele>
        <time>2011-11-19T13:03:16Z</time>
      </trkpt>
      <trkpt lat="44.72621" lon="5.64617">
        <ele>1993.43</ele>
        <time>2011-11-19T13:03:19Z</time>
      </trkpt>
      <trkpt lat="44.72623" lon="5.64615">
        <ele>1993.43</ele>
        <time>2011-11-19T13:03:21Z</time>
      </trkpt>
      <trkpt lat="44.72629" lon="5.64613">
        <ele>1993.43</ele>
        <time>2011-11-19T13:03:27Z</time>
      </trkpt>
      <trkpt lat="44.72634" lon="5.6461">
        <ele>1993.91</ele>
        <time>2011-11-19T13:03:33Z</time>
      </trkpt>
      <trkpt lat="44.72645" lon="5.64605">
        <ele>1994.87</ele>
        <time>2011-11-19T13:03:45Z</time>
      </trkpt>
      <trkpt lat="44.72648" lon="5.64604">
        <ele>1995.35</ele>
        <time>2011-11-19T13:03:48Z</time>
      </trkpt>
      <trkpt lat="44.72664" lon="5.64598">
        <ele>1994.39</ele>
        <time>2011-11-19T13:04:02Z</time>
      </trkpt>
      <trkpt lat="44.72673" lon="5.64591">
        <ele>1992.95</ele>
        <time>2011-11-19T13:04:14Z</time>
      </trkpt>
      <trkpt lat="44.72675" lon="5.64589">
        <ele>1991.99</ele>
        <time>2011-11-19T13:04:18Z</time>
      </trkpt>
      <trkpt lat="44.72683" lon="5.64583">
        <ele>1990.07</ele>
        <time>2011-11-19T13:04:29Z</time>
      </trkpt>
      <trkpt lat="44.72694" lon="5.64582">
        <ele>1991.99</ele>
        <time>2011-11-19T13:04:40Z</time>
      </trkpt>
      <trkpt lat="44.72698" lon="5.64581">
        <ele>1992.47</ele>
        <time>2011-11-19T13:04:46Z</time>
      </trkpt>
      <trkpt lat="44.72705" lon="5.64579">
        <ele>1993.91</ele>
        <time>2011-11-19T13:04:57Z</time>
      </trkpt>
      <trkpt lat="44.72713" lon="5.64574">
        <ele>1994.87</ele>
        <time>2011-11-19T13:05:08Z</time>
      </trkpt>
      <trkpt lat="44.72721" lon="5.64573">
        <ele>1995.35</ele>
        <time>2011-11-19T13:05:18Z</time>
      </trkpt>
      <trkpt lat="44.72732" lon="5.64571">
        <ele>1995.35</ele>
        <time>2011-11-19T13:05:31Z</time>
      </trkpt>
      <trkpt lat="44.72736" lon="5.64571">
        <ele>1996.32</ele>
        <time>2011-11-19T13:05:36Z</time>
      </trkpt>
      <trkpt lat="44.72739" lon="5.64572">
        <ele>1995.83</ele>
        <time>2011-11-19T13:05:39Z</time>
      </trkpt>
      <trkpt lat="44.72744" lon="5.6457">
        <ele>1995.83</ele>
        <time>2011-11-19T13:05:44Z</time>
      </trkpt>
      <trkpt lat="44.72757" lon="5.64568">
        <ele>1994.87</ele>
        <time>2011-11-19T13:05:56Z</time>
      </trkpt>
      <trkpt lat="44.72764" lon="5.64567">
        <ele>1994.39</ele>
        <time>2011-11-19T13:06:07Z</time>
      </trkpt>
      <trkpt lat="44.72774" lon="5.6456">
        <ele>1991.99</ele>
        <time>2011-11-19T13:06:20Z</time>
      </trkpt>
      <trkpt lat="44.72777" lon="5.6456">
        <ele>1990.55</ele>
        <time>2011-11-19T13:06:24Z</time>
      </trkpt>
      <trkpt lat="44.72785" lon="5.64557">
        <ele>1990.07</ele>
        <time>2011-11-19T13:06:33Z</time>
      </trkpt>
      <trkpt lat="44.72791" lon="5.64553">
        <ele>1990.07</ele>
        <time>2011-11-19T13:06:40Z</time>
      </trkpt>
      <trkpt lat="44.72795" lon="5.6455">
        <ele>1989.59</ele>
        <time>2011-11-19T13:06:44Z</time>
      </trkpt>
      <trkpt lat="44.7281" lon="5.6455">
        <ele>1987.66</ele>
        <time>2011-11-19T13:06:58Z</time>
      </trkpt>
      <trkpt lat="44.72822" lon="5.64545">
        <ele>1987.66</ele>
        <time>2011-11-19T13:07:10Z</time>
      </trkpt>
      <trkpt lat="44.72835" lon="5.6454">
        <ele>1989.1</ele>
        <time>2011-11-19T13:07:24Z</time>
      </trkpt>
      <trkpt lat="44.7284" lon="5.64539">
        <ele>1985.74</ele>
        <time>2011-11-19T13:07:29Z</time>
      </trkpt>
      <trkpt lat="44.72844" lon="5.6454">
        <ele>1986.22</ele>
        <time>2011-11-19T13:07:34Z</time>
      </trkpt>
      <trkpt lat="44.72851" lon="5.64539">
        <ele>1985.26</ele>
        <time>2011-11-19T13:07:41Z</time>
      </trkpt>
      <trkpt lat="44.72859" lon="5.64536">
        <ele>1984.78</ele>
        <time>2011-11-19T13:07:48Z</time>
      </trkpt>
      <trkpt lat="44.72873" lon="5.64533">
        <ele>1986.22</ele>
        <time>2011-11-19T13:08:02Z</time>
      </trkpt>
      <trkpt lat="44.72875" lon="5.64533">
        <ele>1986.7</ele>
        <time>2011-11-19T13:08:04Z</time>
      </trkpt>
      <trkpt lat="44.72877" lon="5.64533">
        <ele>1986.22</ele>
        <time>2011-11-19T13:08:06Z</time>
      </trkpt>
      <trkpt lat="44.72889" lon="5.64531">
        <ele>1985.74</ele>
        <time>2011-11-19T13:08:19Z</time>
      </trkpt>
      <trkpt lat="44.72904" lon="5.64528">
        <ele>1984.78</ele>
        <time>2011-11-19T13:08:34Z</time>
      </trkpt>
      <trkpt lat="44.72917" lon="5.64524">
        <ele>1982.86</ele>
        <time>2011-11-19T13:08:47Z</time>
      </trkpt>
      <trkpt lat="44.72928" lon="5.6452">
        <ele>1983.82</ele>
        <time>2011-11-19T13:08:58Z</time>
      </trkpt>
      <trkpt lat="44.72933" lon="5.64518">
        <ele>1981.9</ele>
        <time>2011-11-19T13:09:03Z</time>
      </trkpt>
      <trkpt lat="44.72938" lon="5.64516">
        <ele>1980.93</ele>
        <time>2011-11-19T13:09:09Z</time>
      </trkpt>
      <trkpt lat="44.72952" lon="5.64511">
        <ele>1980.45</ele>
        <time>2011-11-19T13:09:23Z</time>
      </trkpt>
      <trkpt lat="44.72962" lon="5.64509">
        <ele>1977.57</ele>
        <time>2011-11-19T13:09:37Z</time>
      </trkpt>
      <trkpt lat="44.72963" lon="5.64509">
        <ele>1977.57</ele>
        <time>2011-11-19T13:09:38Z</time>
      </trkpt>
      <trkpt lat="44.72967" lon="5.64505">
        <ele>1977.09</ele>
        <time>2011-11-19T13:09:44Z</time>
      </trkpt>
      <trkpt lat="44.7297" lon="5.64504">
        <ele>1977.57</ele>
        <time>2011-11-19T13:09:47Z</time>
      </trkpt>
      <trkpt lat="44.72978" lon="5.64499">
        <ele>1977.57</ele>
        <time>2011-11-19T13:09:55Z</time>
      </trkpt>
      <trkpt lat="44.7298" lon="5.64497">
        <ele>1978.05</ele>
        <time>2011-11-19T13:09:57Z</time>
      </trkpt>
      <trkpt lat="44.72983" lon="5.64495">
        <ele>1978.05</ele>
        <time>2011-11-19T13:10:01Z</time>
      </trkpt>
      <trkpt lat="44.72987" lon="5.6449">
        <ele>1978.53</ele>
        <time>2011-11-19T13:10:07Z</time>
      </trkpt>
      <trkpt lat="44.72995" lon="5.64484">
        <ele>1980.93</ele>
        <time>2011-11-19T13:10:17Z</time>
      </trkpt>
      <trkpt lat="44.72997" lon="5.64482">
        <ele>1981.41</ele>
        <time>2011-11-19T13:10:19Z</time>
      </trkpt>
      <trkpt lat="44.73001" lon="5.64481">
        <ele>1979.49</ele>
        <time>2011-11-19T13:10:22Z</time>
      </trkpt>
      <trkpt lat="44.73004" lon="5.64479">
        <ele>1981.9</ele>
        <time>2011-11-19T13:10:25Z</time>
      </trkpt>
      <trkpt lat="44.73006" lon="5.64479">
        <ele>1980.93</ele>
        <time>2011-11-19T13:10:27Z</time>
      </trkpt>
      <trkpt lat="44.73008" lon="5.64478">
        <ele>1980.93</ele>
        <time>2011-11-19T13:10:29Z</time>
      </trkpt>
      <trkpt lat="44.73015" lon="5.64474">
        <ele>1981.41</ele>
        <time>2011-11-19T13:10:36Z</time>
      </trkpt>
      <trkpt lat="44.73027" lon="5.64468">
        <ele>1979.97</ele>
        <time>2011-11-19T13:10:48Z</time>
      </trkpt>
      <trkpt lat="44.73042" lon="5.64463">
        <ele>1978.05</ele>
        <time>2011-11-19T13:11:01Z</time>
      </trkpt>
      <trkpt lat="44.73054" lon="5.64459">
        <ele>1980.93</ele>
        <time>2011-11-19T13:11:13Z</time>
      </trkpt>
      <trkpt lat="44.73055" lon="5.64459">
        <ele>1981.41</ele>
        <time>2011-11-19T13:11:14Z</time>
      </trkpt>
      <trkpt lat="44.73057" lon="5.64458">
        <ele>1979.01</ele>
        <time>2011-11-19T13:11:17Z</time>
      </trkpt>
      <trkpt lat="44.73066" lon="5.64456">
        <ele>1977.09</ele>
        <time>2011-11-19T13:11:27Z</time>
      </trkpt>
      <trkpt lat="44.73068" lon="5.64455">
        <ele>1977.09</ele>
        <time>2011-11-19T13:11:30Z</time>
      </trkpt>
      <trkpt lat="44.73072" lon="5.64456">
        <ele>1973.72</ele>
        <time>2011-11-19T13:11:34Z</time>
      </trkpt>
      <trkpt lat="44.73073" lon="5.64456">
        <ele>1973.72</ele>
        <time>2011-11-19T13:11:35Z</time>
      </trkpt>
      <trkpt lat="44.73081" lon="5.64454">
        <ele>1972.28</ele>
        <time>2011-11-19T13:11:41Z</time>
      </trkpt>
      <trkpt lat="44.73088" lon="5.64451">
        <ele>1971.8</ele>
        <time>2011-11-19T13:11:52Z</time>
      </trkpt>
      <trkpt lat="44.73088" lon="5.64451">
        <ele>1971.8</ele>
        <time>2011-11-19T13:11:54Z</time>
      </trkpt>
      <trkpt lat="44.73091" lon="5.64449">
        <ele>1972.76</ele>
        <time>2011-11-19T13:11:58Z</time>
      </trkpt>
      <trkpt lat="44.73096" lon="5.64445">
        <ele>1972.76</ele>
        <time>2011-11-19T13:12:03Z</time>
      </trkpt>
      <trkpt lat="44.73099" lon="5.6444">
        <ele>1976.13</ele>
        <time>2011-11-19T13:12:08Z</time>
      </trkpt>
      <trkpt lat="44.73101" lon="5.64439">
        <ele>1976.61</ele>
        <time>2011-11-19T13:12:10Z</time>
      </trkpt>
      <trkpt lat="44.73111" lon="5.64435">
        <ele>1975.65</ele>
        <time>2011-11-19T13:12:21Z</time>
      </trkpt>
      <trkpt lat="44.73115" lon="5.64434">
        <ele>1978.05</ele>
        <time>2011-11-19T13:12:26Z</time>
      </trkpt>
      <trkpt lat="44.73123" lon="5.6443">
        <ele>1977.57</ele>
        <time>2011-11-19T13:12:35Z</time>
      </trkpt>
      <trkpt lat="44.73133" lon="5.64425">
        <ele>1980.45</ele>
        <time>2011-11-19T13:12:47Z</time>
      </trkpt>
      <trkpt lat="44.73141" lon="5.64427">
        <ele>1981.41</ele>
        <time>2011-11-19T13:12:55Z</time>
      </trkpt>
      <trkpt lat="44.73149" lon="5.64428">
        <ele>1981.41</ele>
        <time>2011-11-19T13:13:02Z</time>
      </trkpt>
      <trkpt lat="44.73151" lon="5.64429">
        <ele>1981.9</ele>
        <time>2011-11-19T13:13:04Z</time>
      </trkpt>
      <trkpt lat="44.73163" lon="5.64429">
        <ele>1984.3</ele>
        <time>2011-11-19T13:13:16Z</time>
      </trkpt>
      <trkpt lat="44.73174" lon="5.64431">
        <ele>1986.22</ele>
        <time>2011-11-19T13:13:28Z</time>
      </trkpt>
      <trkpt lat="44.73181" lon="5.64433">
        <ele>1986.7</ele>
        <time>2011-11-19T13:13:36Z</time>
      </trkpt>
      <trkpt lat="44.73182" lon="5.64431">
        <ele>1986.7</ele>
        <time>2011-11-19T13:13:47Z</time>
      </trkpt>
      <trkpt lat="44.73182" lon="5.6443">
        <ele>1987.66</ele>
        <time>2011-11-19T13:13:59Z</time>
      </trkpt>
      <trkpt lat="44.7318" lon="5.64428">
        <ele>1987.18</ele>
        <time>2011-11-19T13:14:01Z</time>
      </trkpt>
      <trkpt lat="44.73177" lon="5.64424">
        <ele>1990.07</ele>
        <time>2011-11-19T13:14:05Z</time>
      </trkpt>
      <trkpt lat="44.73177" lon="5.64423">
        <ele>1984.78</ele>
        <time>2011-11-19T13:14:06Z</time>
      </trkpt>
      <trkpt lat="44.73176" lon="5.64421">
        <ele>1989.59</ele>
        <time>2011-11-19T13:14:08Z</time>
      </trkpt>
      <trkpt lat="44.73175" lon="5.6442">
        <ele>1988.62</ele>
        <time>2011-11-19T13:14:09Z</time>
      </trkpt>
      <trkpt lat="44.73174" lon="5.64412">
        <ele>1990.07</ele>
        <time>2011-11-19T13:14:18Z</time>
      </trkpt>
      <trkpt lat="44.73174" lon="5.64407">
        <ele>1989.59</ele>
        <time>2011-11-19T13:14:22Z</time>
      </trkpt>
      <trkpt lat="44.73174" lon="5.64399">
        <ele>1988.14</ele>
        <time>2011-11-19T13:14:34Z</time>
      </trkpt>
      <trkpt lat="44.73174" lon="5.64398">
        <ele>1987.18</ele>
        <time>2011-11-19T13:14:36Z</time>
      </trkpt>
      <trkpt lat="44.73173" lon="5.64395">
        <ele>1983.82</ele>
        <time>2011-11-19T13:14:42Z</time>
      </trkpt>
      <trkpt lat="44.73172" lon="5.64393">
        <ele>1988.14</ele>
        <time>2011-11-19T13:14:45Z</time>
      </trkpt>
      <trkpt lat="44.73172" lon="5.64392">
        <ele>1988.14</ele>
        <time>2011-11-19T13:14:46Z</time>
      </trkpt>
      <trkpt lat="44.73172" lon="5.64391">
        <ele>1984.3</ele>
        <time>2011-11-19T13:14:51Z</time>
      </trkpt>
      <trkpt lat="44.73176" lon="5.64381">
        <ele>1983.82</ele>
        <time>2011-11-19T13:15:03Z</time>
      </trkpt>
      <trkpt lat="44.73177" lon="5.64377">
        <ele>1981.9</ele>
        <time>2011-11-19T13:15:13Z</time>
      </trkpt>
      <trkpt lat="44.73176" lon="5.64376">
        <ele>1979.01</ele>
        <time>2011-11-19T13:15:22Z</time>
      </trkpt>
      <trkpt lat="44.73176" lon="5.64369">
        <ele>1980.45</ele>
        <time>2011-11-19T13:15:27Z</time>
      </trkpt>
      <trkpt lat="44.73177" lon="5.64368">
        <ele>1981.41</ele>
        <time>2011-11-19T13:15:28Z</time>
      </trkpt>
      <trkpt lat="44.73178" lon="5.64366">
        <ele>1979.97</ele>
        <time>2011-11-19T13:15:30Z</time>
      </trkpt>
      <trkpt lat="44.73179" lon="5.64362">
        <ele>1979.97</ele>
        <time>2011-11-19T13:15:32Z</time>
      </trkpt>
      <trkpt lat="44.7318" lon="5.6436">
        <ele>1979.49</ele>
        <time>2011-11-19T13:15:34Z</time>
      </trkpt>
      <trkpt lat="44.73182" lon="5.64352">
        <ele>1978.53</ele>
        <time>2011-11-19T13:15:41Z</time>
      </trkpt>
      <trkpt lat="44.73183" lon="5.6435">
        <ele>1977.57</ele>
        <time>2011-11-19T13:15:43Z</time>
      </trkpt>
      <trkpt lat="44.73186" lon="5.64345">
        <ele>1977.57</ele>
        <time>2011-11-19T13:15:54Z</time>
      </trkpt>
      <trkpt lat="44.73189" lon="5.64333">
        <ele>1976.61</ele>
        <time>2011-11-19T13:16:06Z</time>
      </trkpt>
      <trkpt lat="44.73193" lon="5.64327">
        <ele>1974.69</ele>
        <time>2011-11-19T13:16:16Z</time>
      </trkpt>
      <trkpt lat="44.73195" lon="5.64324">
        <ele>1972.28</ele>
        <time>2011-11-19T13:16:30Z</time>
      </trkpt>
      <trkpt lat="44.73196" lon="5.64324">
        <ele>1970.36</ele>
        <time>2011-11-19T13:16:44Z</time>
      </trkpt>
      <trkpt lat="44.73195" lon="5.64324">
        <ele>1968.44</ele>
        <time>2011-11-19T13:16:48Z</time>
      </trkpt>
      <trkpt lat="44.73198" lon="5.64322">
        <ele>1966.99</ele>
        <time>2011-11-19T13:17:01Z</time>
      </trkpt>
      <trkpt lat="44.73203" lon="5.64319">
        <ele>1963.63</ele>
        <time>2011-11-19T13:17:13Z</time>
      </trkpt>
      <trkpt lat="44.73204" lon="5.6432">
        <ele>1964.11</ele>
        <time>2011-11-19T13:17:24Z</time>
      </trkpt>
      <trkpt lat="44.73204" lon="5.64321">
        <ele>1963.15</ele>
        <time>2011-11-19T13:17:26Z</time>
      </trkpt>
      <trkpt lat="44.73205" lon="5.64321">
        <ele>1959.78</ele>
        <time>2011-11-19T13:17:32Z</time>
      </trkpt>
      <trkpt lat="44.73205" lon="5.64321">
        <ele>1960.75</ele>
        <time>2011-11-19T13:17:38Z</time>
      </trkpt>
      <trkpt lat="44.73207" lon="5.64321">
        <ele>1959.78</ele>
        <time>2011-11-19T13:17:44Z</time>
      </trkpt>
      <trkpt lat="44.73207" lon="5.6432">
        <ele>1957.38</ele>
        <time>2011-11-19T13:17:56Z</time>
      </trkpt>
      <trkpt lat="44.7321" lon="5.64315">
        <ele>1954.98</ele>
        <time>2011-11-19T13:18:08Z</time>
      </trkpt>
      <trkpt lat="44.73211" lon="5.64315">
        <ele>1953.54</ele>
        <time>2011-11-19T13:18:21Z</time>
      </trkpt>
      <trkpt lat="44.73213" lon="5.64313">
        <ele>1954.02</ele>
        <time>2011-11-19T13:18:33Z</time>
      </trkpt>
      <trkpt lat="44.73213" lon="5.64313">
        <ele>1948.25</ele>
        <time>2011-11-19T13:18:38Z</time>
      </trkpt>
      <trkpt lat="44.73213" lon="5.64313">
        <ele>1947.77</ele>
        <time>2011-11-19T13:18:39Z</time>
      </trkpt>
      <trkpt lat="44.73213" lon="5.64313">
        <ele>1950.65</ele>
        <time>2011-11-19T13:18:41Z</time>
      </trkpt>
      <trkpt lat="44.73213" lon="5.64313">
        <ele>1951.13</ele>
        <time>2011-11-19T13:18:52Z</time>
      </trkpt>
      <trkpt lat="44.73214" lon="5.64312">
        <ele>1949.69</ele>
        <time>2011-11-19T13:19:02Z</time>
      </trkpt>
      <trkpt lat="44.73214" lon="5.64312">
        <ele>1949.21</ele>
        <time>2011-11-19T13:19:03Z</time>
      </trkpt>
      <trkpt lat="44.73215" lon="5.64312">
        <ele>1947.29</ele>
        <time>2011-11-19T13:19:06Z</time>
      </trkpt>
      <trkpt lat="44.73217" lon="5.64313">
        <ele>1947.77</ele>
        <time>2011-11-19T13:19:14Z</time>
      </trkpt>
      <trkpt lat="44.73222" lon="5.6431">
        <ele>1944.4</ele>
        <time>2011-11-19T13:19:23Z</time>
      </trkpt>
      <trkpt lat="44.73222" lon="5.64309">
        <ele>1941.52</ele>
        <time>2011-11-19T13:19:32Z</time>
      </trkpt>
      <trkpt lat="44.73223" lon="5.64308">
        <ele>1940.56</ele>
        <time>2011-11-19T13:19:36Z</time>
      </trkpt>
      <trkpt lat="44.73226" lon="5.64306">
        <ele>1939.6</ele>
        <time>2011-11-19T13:19:41Z</time>
      </trkpt>
      <trkpt lat="44.73226" lon="5.64306">
        <ele>1940.08</ele>
        <time>2011-11-19T13:19:45Z</time>
      </trkpt>
      <trkpt lat="44.73227" lon="5.64307">
        <ele>1938.64</ele>
        <time>2011-11-19T13:19:47Z</time>
      </trkpt>
      <trkpt lat="44.73232" lon="5.64303">
        <ele>1938.16</ele>
        <time>2011-11-19T13:19:56Z</time>
      </trkpt>
      <trkpt lat="44.73232" lon="5.64303">
        <ele>1934.31</ele>
        <time>2011-11-19T13:20:00Z</time>
      </trkpt>
      <trkpt lat="44.73235" lon="5.64304">
        <ele>1933.35</ele>
        <time>2011-11-19T13:20:02Z</time>
      </trkpt>
      <trkpt lat="44.73236" lon="5.64304">
        <ele>1932.39</ele>
        <time>2011-11-19T13:20:09Z</time>
      </trkpt>
      <trkpt lat="44.73238" lon="5.64302">
        <ele>1931.91</ele>
        <time>2011-11-19T13:20:13Z</time>
      </trkpt>
      <trkpt lat="44.73244" lon="5.64297">
        <ele>1929.5</ele>
        <time>2011-11-19T13:20:23Z</time>
      </trkpt>
      <trkpt lat="44.73244" lon="5.64297">
        <ele>1926.62</ele>
        <time>2011-11-19T13:20:37Z</time>
      </trkpt>
      <trkpt lat="44.73245" lon="5.64297">
        <ele>1925.66</ele>
        <time>2011-11-19T13:20:39Z</time>
      </trkpt>
      <trkpt lat="44.73247" lon="5.64297">
        <ele>1923.25</ele>
        <time>2011-11-19T13:20:51Z</time>
      </trkpt>
      <trkpt lat="44.73247" lon="5.64297">
        <ele>1924.22</ele>
        <time>2011-11-19T13:21:15Z</time>
      </trkpt>
      <trkpt lat="44.73248" lon="5.64296">
        <ele>1922.77</ele>
        <time>2011-11-19T13:21:48Z</time>
      </trkpt>
      <trkpt lat="44.73248" lon="5.64296">
        <ele>1926.14</ele>
        <time>2011-11-19T13:22:02Z</time>
      </trkpt>
      <trkpt lat="44.73248" lon="5.64296">
        <ele>1922.77</ele>
        <time>2011-11-19T13:22:04Z</time>
      </trkpt>
      <trkpt lat="44.7325" lon="5.64296">
        <ele>1923.25</ele>
        <time>2011-11-19T13:22:05Z</time>
      </trkpt>
      <trkpt lat="44.7326" lon="5.64293">
        <ele>1920.37</ele>
        <time>2011-11-19T13:22:13Z</time>
      </trkpt>
      <trkpt lat="44.73262" lon="5.64292">
        <ele>1919.89</ele>
        <time>2011-11-19T13:22:15Z</time>
      </trkpt>
      <trkpt lat="44.73266" lon="5.64291">
        <ele>1917.97</ele>
        <time>2011-11-19T13:22:19Z</time>
      </trkpt>
      <trkpt lat="44.73269" lon="5.64291">
        <ele>1916.04</ele>
        <time>2011-11-19T13:22:24Z</time>
      </trkpt>
      <trkpt lat="44.73271" lon="5.6429">
        <ele>1916.53</ele>
        <time>2011-11-19T13:22:26Z</time>
      </trkpt>
      <trkpt lat="44.73274" lon="5.6429">
        <ele>1912.68</ele>
        <time>2011-11-19T13:22:31Z</time>
      </trkpt>
      <trkpt lat="44.73276" lon="5.64291">
        <ele>1912.2</ele>
        <time>2011-11-19T13:22:34Z</time>
      </trkpt>
      <trkpt lat="44.73279" lon="5.64292">
        <ele>1910.76</ele>
        <time>2011-11-19T13:22:38Z</time>
      </trkpt>
      <trkpt lat="44.73284" lon="5.64289">
        <ele>1908.83</ele>
        <time>2011-11-19T13:22:44Z</time>
      </trkpt>
      <trkpt lat="44.73286" lon="5.64293">
        <ele>1904.51</ele>
        <time>2011-11-19T13:22:48Z</time>
      </trkpt>
      <trkpt lat="44.73286" lon="5.64294">
        <ele>1904.51</ele>
        <time>2011-11-19T13:22:49Z</time>
      </trkpt>
      <trkpt lat="44.73287" lon="5.64299">
        <ele>1903.55</ele>
        <time>2011-11-19T13:22:52Z</time>
      </trkpt>
      <trkpt lat="44.73288" lon="5.643">
        <ele>1902.11</ele>
        <time>2011-11-19T13:22:55Z</time>
      </trkpt>
      <trkpt lat="44.7329" lon="5.64297">
        <ele>1901.63</ele>
        <time>2011-11-19T13:22:58Z</time>
      </trkpt>
      <trkpt lat="44.73294" lon="5.64296">
        <ele>1900.66</ele>
        <time>2011-11-19T13:23:12Z</time>
      </trkpt>
      <trkpt lat="44.73294" lon="5.64296">
        <ele>1898.74</ele>
        <time>2011-11-19T13:23:30Z</time>
      </trkpt>
      <trkpt lat="44.73294" lon="5.64298">
        <ele>1897.3</ele>
        <time>2011-11-19T13:23:44Z</time>
      </trkpt>
      <trkpt lat="44.73294" lon="5.64298">
        <ele>1896.82</ele>
        <time>2011-11-19T13:23:58Z</time>
      </trkpt>
      <trkpt lat="44.73295" lon="5.64298">
        <ele>1896.34</ele>
        <time>2011-11-19T13:24:18Z</time>
      </trkpt>
      <trkpt lat="44.73295" lon="5.64298">
        <ele>1894.9</ele>
        <time>2011-11-19T13:24:31Z</time>
      </trkpt>
      <trkpt lat="44.73299" lon="5.64297">
        <ele>1892.97</ele>
        <time>2011-11-19T13:24:42Z</time>
      </trkpt>
      <trkpt lat="44.73299" lon="5.64297">
        <ele>1891.05</ele>
        <time>2011-11-19T13:24:45Z</time>
      </trkpt>
      <trkpt lat="44.73299" lon="5.64296">
        <ele>1888.65</ele>
        <time>2011-11-19T13:24:56Z</time>
      </trkpt>
      <trkpt lat="44.73306" lon="5.64296">
        <ele>1886.72</ele>
        <time>2011-11-19T13:25:08Z</time>
      </trkpt>
      <trkpt lat="44.7331" lon="5.64298">
        <ele>1884.32</ele>
        <time>2011-11-19T13:25:15Z</time>
      </trkpt>
      <trkpt lat="44.73315" lon="5.64299">
        <ele>1881.92</ele>
        <time>2011-11-19T13:25:26Z</time>
      </trkpt>
      <trkpt lat="44.7332" lon="5.64292">
        <ele>1879.51</ele>
        <time>2011-11-19T13:25:37Z</time>
      </trkpt>
      <trkpt lat="44.7332" lon="5.6429">
        <ele>1878.55</ele>
        <time>2011-11-19T13:25:39Z</time>
      </trkpt>
      <trkpt lat="44.73322" lon="5.6429">
        <ele>1877.59</ele>
        <time>2011-11-19T13:25:41Z</time>
      </trkpt>
      <trkpt lat="44.73323" lon="5.64288">
        <ele>1876.63</ele>
        <time>2011-11-19T13:25:44Z</time>
      </trkpt>
      <trkpt lat="44.73327" lon="5.6429">
        <ele>1873.27</ele>
        <time>2011-11-19T13:25:56Z</time>
      </trkpt>
      <trkpt lat="44.7333" lon="5.64291">
        <ele>1871.82</ele>
        <time>2011-11-19T13:26:06Z</time>
      </trkpt>
      <trkpt lat="44.73331" lon="5.6429">
        <ele>1868.94</ele>
        <time>2011-11-19T13:26:16Z</time>
      </trkpt>
      <trkpt lat="44.73337" lon="5.64292">
        <ele>1866.06</ele>
        <time>2011-11-19T13:26:26Z</time>
      </trkpt>
      <trkpt lat="44.73343" lon="5.6429">
        <ele>1863.17</ele>
        <time>2011-11-19T13:26:36Z</time>
      </trkpt>
      <trkpt lat="44.73344" lon="5.64287">
        <ele>1862.21</ele>
        <time>2011-11-19T13:26:39Z</time>
      </trkpt>
      <trkpt lat="44.73349" lon="5.6428">
        <ele>1858.85</ele>
        <time>2011-11-19T13:26:50Z</time>
      </trkpt>
      <trkpt lat="44.73349" lon="5.64283">
        <ele>1857.89</ele>
        <time>2011-11-19T13:27:03Z</time>
      </trkpt>
      <trkpt lat="44.73349" lon="5.64285">
        <ele>1857.4</ele>
        <time>2011-11-19T13:27:05Z</time>
      </trkpt>
      <trkpt lat="44.7335" lon="5.64285">
        <ele>1856.44</ele>
        <time>2011-11-19T13:27:08Z</time>
      </trkpt>
      <trkpt lat="44.73351" lon="5.64283">
        <ele>1855.96</ele>
        <time>2011-11-19T13:27:10Z</time>
      </trkpt>
      <trkpt lat="44.73354" lon="5.64276">
        <ele>1854.04</ele>
        <time>2011-11-19T13:27:21Z</time>
      </trkpt>
      <trkpt lat="44.73356" lon="5.64272">
        <ele>1850.68</ele>
        <time>2011-11-19T13:27:30Z</time>
      </trkpt>
      <trkpt lat="44.7336" lon="5.64273">
        <ele>1850.19</ele>
        <time>2011-11-19T13:27:35Z</time>
      </trkpt>
      <trkpt lat="44.73365" lon="5.64271">
        <ele>1846.35</ele>
        <time>2011-11-19T13:27:45Z</time>
      </trkpt>
      <trkpt lat="44.73365" lon="5.64271">
        <ele>1846.83</ele>
        <time>2011-11-19T13:27:46Z</time>
      </trkpt>
      <trkpt lat="44.7337" lon="5.64264">
        <ele>1843.47</ele>
        <time>2011-11-19T13:27:55Z</time>
      </trkpt>
      <trkpt lat="44.73371" lon="5.64264">
        <ele>1842.5</ele>
        <time>2011-11-19T13:27:57Z</time>
      </trkpt>
      <trkpt lat="44.73372" lon="5.64263">
        <ele>1841.54</ele>
        <time>2011-11-19T13:28:02Z</time>
      </trkpt>
      <trkpt lat="44.73374" lon="5.64262">
        <ele>1840.58</ele>
        <time>2011-11-19T13:28:04Z</time>
      </trkpt>
      <trkpt lat="44.73377" lon="5.64265">
        <ele>1838.66</ele>
        <time>2011-11-19T13:28:10Z</time>
      </trkpt>
      <trkpt lat="44.73377" lon="5.64264">
        <ele>1837.7</ele>
        <time>2011-11-19T13:28:12Z</time>
      </trkpt>
      <trkpt lat="44.73382" lon="5.64264">
        <ele>1835.29</ele>
        <time>2011-11-19T13:28:23Z</time>
      </trkpt>
      <trkpt lat="44.73383" lon="5.64266">
        <ele>1834.33</ele>
        <time>2011-11-19T13:28:27Z</time>
      </trkpt>
      <trkpt lat="44.73384" lon="5.64272">
        <ele>1832.89</ele>
        <time>2011-11-19T13:28:31Z</time>
      </trkpt>
      <trkpt lat="44.73385" lon="5.64271">
        <ele>1833.37</ele>
        <time>2011-11-19T13:28:32Z</time>
      </trkpt>
      <trkpt lat="44.73389" lon="5.64269">
        <ele>1831.93</ele>
        <time>2011-11-19T13:28:36Z</time>
      </trkpt>
      <trkpt lat="44.7339" lon="5.64268">
        <ele>1828.56</ele>
        <time>2011-11-19T13:28:39Z</time>
      </trkpt>
      <trkpt lat="44.73394" lon="5.64263">
        <ele>1828.08</ele>
        <time>2011-11-19T13:28:44Z</time>
      </trkpt>
      <trkpt lat="44.73397" lon="5.64264">
        <ele>1826.16</ele>
        <time>2011-11-19T13:28:47Z</time>
      </trkpt>
      <trkpt lat="44.73399" lon="5.64261">
        <ele>1824.24</ele>
        <time>2011-11-19T13:28:55Z</time>
      </trkpt>
      <trkpt lat="44.73402" lon="5.64255">
        <ele>1820.87</ele>
        <time>2011-11-19T13:29:06Z</time>
      </trkpt>
      <trkpt lat="44.73402" lon="5.64253">
        <ele>1820.87</ele>
        <time>2011-11-19T13:29:07Z</time>
      </trkpt>
      <trkpt lat="44.73402" lon="5.64246">
        <ele>1819.43</ele>
        <time>2011-11-19T13:29:14Z</time>
      </trkpt>
      <trkpt lat="44.73401" lon="5.64237">
        <ele>1816.07</ele>
        <time>2011-11-19T13:29:25Z</time>
      </trkpt>
      <trkpt lat="44.73401" lon="5.64236">
        <ele>1816.07</ele>
        <time>2011-11-19T13:29:26Z</time>
      </trkpt>
      <trkpt lat="44.73395" lon="5.64224">
        <ele>1813.18</ele>
        <time>2011-11-19T13:29:39Z</time>
      </trkpt>
      <trkpt lat="44.73392" lon="5.6422">
        <ele>1811.74</ele>
        <time>2011-11-19T13:29:52Z</time>
      </trkpt>
      <trkpt lat="44.73388" lon="5.64213">
        <ele>1811.26</ele>
        <time>2011-11-19T13:30:06Z</time>
      </trkpt>
      <trkpt lat="44.73386" lon="5.64208">
        <ele>1810.78</ele>
        <time>2011-11-19T13:30:15Z</time>
      </trkpt>
      <trkpt lat="44.73384" lon="5.64203">
        <ele>1810.3</ele>
        <time>2011-11-19T13:30:17Z</time>
      </trkpt>
      <trkpt lat="44.73382" lon="5.64195">
        <ele>1808.86</ele>
        <time>2011-11-19T13:30:21Z</time>
      </trkpt>
      <trkpt lat="44.73383" lon="5.64183">
        <ele>1809.34</ele>
        <time>2011-11-19T13:30:33Z</time>
      </trkpt>
      <trkpt lat="44.73383" lon="5.64183">
        <ele>1808.86</ele>
        <time>2011-11-19T13:30:46Z</time>
      </trkpt>
      <trkpt lat="44.73383" lon="5.64185">
        <ele>1808.86</ele>
        <time>2011-11-19T13:31:02Z</time>
      </trkpt>
      <trkpt lat="44.73383" lon="5.64185">
        <ele>1805.01</ele>
        <time>2011-11-19T13:31:18Z</time>
      </trkpt>
      <trkpt lat="44.73383" lon="5.64185">
        <ele>1808.86</ele>
        <time>2011-11-19T13:31:19Z</time>
      </trkpt>
      <trkpt lat="44.73383" lon="5.64185">
        <ele>1807.42</ele>
        <time>2011-11-19T13:31:31Z</time>
      </trkpt>
      <trkpt lat="44.73383" lon="5.64185">
        <ele>1807.42</ele>
        <time>2011-11-19T13:31:51Z</time>
      </trkpt>
      <trkpt lat="44.73383" lon="5.64184">
        <ele>1807.42</ele>
        <time>2011-11-19T13:32:19Z</time>
      </trkpt>
      <trkpt lat="44.73382" lon="5.64183">
        <ele>1807.42</ele>
        <time>2011-11-19T13:32:42Z</time>
      </trkpt>
      <trkpt lat="44.73382" lon="5.64183">
        <ele>1806.94</ele>
        <time>2011-11-19T13:33:04Z</time>
      </trkpt>
      <trkpt lat="44.73382" lon="5.64182">
        <ele>1806.94</ele>
        <time>2011-11-19T13:33:29Z</time>
      </trkpt>
      <trkpt lat="44.73382" lon="5.64182">
        <ele>1806.94</ele>
        <time>2011-11-19T13:33:52Z</time>
      </trkpt>
      <trkpt lat="44.73382" lon="5.64182">
        <ele>1806.94</ele>
        <time>2011-11-19T13:34:09Z</time>
      </trkpt>
      <trkpt lat="44.73382" lon="5.64181">
        <ele>1807.42</ele>
        <time>2011-11-19T13:34:38Z</time>
      </trkpt>
      <trkpt lat="44.73382" lon="5.64181">
        <ele>1806.94</ele>
        <time>2011-11-19T13:35:02Z</time>
      </trkpt>
      <trkpt lat="44.73382" lon="5.64179">
        <ele>1806.45</ele>
        <time>2011-11-19T13:35:22Z</time>
      </trkpt>
      <trkpt lat="44.73382" lon="5.64179">
        <ele>1806.45</ele>
        <time>2011-11-19T13:35:41Z</time>
      </trkpt>
      <trkpt lat="44.73382" lon="5.64178">
        <ele>1806.45</ele>
        <time>2011-11-19T13:36:08Z</time>
      </trkpt>
      <trkpt lat="44.73383" lon="5.64179">
        <ele>1805.49</ele>
        <time>2011-11-19T13:36:35Z</time>
      </trkpt>
      <trkpt lat="44.73383" lon="5.64179">
        <ele>1803.57</ele>
        <time>2011-11-19T13:36:43Z</time>
      </trkpt>
      <trkpt lat="44.73382" lon="5.64171">
        <ele>1801.65</ele>
        <time>2011-11-19T13:36:50Z</time>
      </trkpt>
      <trkpt lat="44.7338" lon="5.64163">
        <ele>1800.21</ele>
        <time>2011-11-19T13:36:59Z</time>
      </trkpt>
      <trkpt lat="44.73378" lon="5.64161">
        <ele>1798.76</ele>
        <time>2011-11-19T13:37:03Z</time>
      </trkpt>
      <trkpt lat="44.73375" lon="5.64153">
        <ele>1796.84</ele>
        <time>2011-11-19T13:37:11Z</time>
      </trkpt>
      <trkpt lat="44.73372" lon="5.64142">
        <ele>1794.92</ele>
        <time>2011-11-19T13:37:22Z</time>
      </trkpt>
      <trkpt lat="44.73371" lon="5.64138">
        <ele>1795.4</ele>
        <time>2011-11-19T13:37:27Z</time>
      </trkpt>
      <trkpt lat="44.73366" lon="5.6413">
        <ele>1794.44</ele>
        <time>2011-11-19T13:37:34Z</time>
      </trkpt>
      <trkpt lat="44.73357" lon="5.64121">
        <ele>1792.52</ele>
        <time>2011-11-19T13:37:47Z</time>
      </trkpt>
      <trkpt lat="44.73354" lon="5.64117">
        <ele>1792.52</ele>
        <time>2011-11-19T13:37:51Z</time>
      </trkpt>
      <trkpt lat="44.73351" lon="5.64105">
        <ele>1789.63</ele>
        <time>2011-11-19T13:37:59Z</time>
      </trkpt>
      <trkpt lat="44.73348" lon="5.64088">
        <ele>1786.75</ele>
        <time>2011-11-19T13:38:11Z</time>
      </trkpt>
      <trkpt lat="44.73348" lon="5.64085">
        <ele>1786.75</ele>
        <time>2011-11-19T13:38:13Z</time>
      </trkpt>
      <trkpt lat="44.73347" lon="5.64083">
        <ele>1787.71</ele>
        <time>2011-11-19T13:38:20Z</time>
      </trkpt>
      <trkpt lat="44.73346" lon="5.64081">
        <ele>1786.27</ele>
        <time>2011-11-19T13:38:22Z</time>
      </trkpt>
      <trkpt lat="44.73345" lon="5.64079">
        <ele>1785.31</ele>
        <time>2011-11-19T13:38:25Z</time>
      </trkpt>
      <trkpt lat="44.73344" lon="5.64076">
        <ele>1783.86</ele>
        <time>2011-11-19T13:38:28Z</time>
      </trkpt>
      <trkpt lat="44.73341" lon="5.64069">
        <ele>1784.82</ele>
        <time>2011-11-19T13:38:32Z</time>
      </trkpt>
      <trkpt lat="44.73337" lon="5.6406">
        <ele>1782.42</ele>
        <time>2011-11-19T13:38:42Z</time>
      </trkpt>
      <trkpt lat="44.73336" lon="5.64058">
        <ele>1780.5</ele>
        <time>2011-11-19T13:38:44Z</time>
      </trkpt>
      <trkpt lat="44.73333" lon="5.64051">
        <ele>1779.54</ele>
        <time>2011-11-19T13:38:49Z</time>
      </trkpt>
      <trkpt lat="44.7333" lon="5.64043">
        <ele>1778.1</ele>
        <time>2011-11-19T13:38:56Z</time>
      </trkpt>
      <trkpt lat="44.73327" lon="5.64038">
        <ele>1777.13</ele>
        <time>2011-11-19T13:39:02Z</time>
      </trkpt>
      <trkpt lat="44.73325" lon="5.64033">
        <ele>1773.29</ele>
        <time>2011-11-19T13:39:06Z</time>
      </trkpt>
      <trkpt lat="44.73324" lon="5.64032">
        <ele>1775.69</ele>
        <time>2011-11-19T13:39:08Z</time>
      </trkpt>
      <trkpt lat="44.73324" lon="5.64027">
        <ele>1774.25</ele>
        <time>2011-11-19T13:39:14Z</time>
      </trkpt>
      <trkpt lat="44.73324" lon="5.64026">
        <ele>1773.29</ele>
        <time>2011-11-19T13:39:17Z</time>
      </trkpt>
      <trkpt lat="44.73324" lon="5.64025">
        <ele>1773.29</ele>
        <time>2011-11-19T13:39:19Z</time>
      </trkpt>
      <trkpt lat="44.7332" lon="5.64018">
        <ele>1772.81</ele>
        <time>2011-11-19T13:39:25Z</time>
      </trkpt>
      <trkpt lat="44.73318" lon="5.64012">
        <ele>1773.29</ele>
        <time>2011-11-19T13:39:30Z</time>
      </trkpt>
      <trkpt lat="44.73316" lon="5.64003">
        <ele>1770.89</ele>
        <time>2011-11-19T13:39:37Z</time>
      </trkpt>
      <trkpt lat="44.73314" lon="5.63999">
        <ele>1770.41</ele>
        <time>2011-11-19T13:39:40Z</time>
      </trkpt>
      <trkpt lat="44.7331" lon="5.63988">
        <ele>1768.48</ele>
        <time>2011-11-19T13:39:48Z</time>
      </trkpt>
      <trkpt lat="44.73308" lon="5.63981">
        <ele>1766.56</ele>
        <time>2011-11-19T13:39:53Z</time>
      </trkpt>
      <trkpt lat="44.73306" lon="5.63978">
        <ele>1768.48</ele>
        <time>2011-11-19T13:39:56Z</time>
      </trkpt>
      <trkpt lat="44.73305" lon="5.63975">
        <ele>1767.04</ele>
        <time>2011-11-19T13:40:00Z</time>
      </trkpt>
      <trkpt lat="44.73304" lon="5.63972">
        <ele>1766.08</ele>
        <time>2011-11-19T13:40:03Z</time>
      </trkpt>
      <trkpt lat="44.73296" lon="5.63954">
        <ele>1763.2</ele>
        <time>2011-11-19T13:40:14Z</time>
      </trkpt>
      <trkpt lat="44.73295" lon="5.63949">
        <ele>1762.71</ele>
        <time>2011-11-19T13:40:18Z</time>
      </trkpt>
      <trkpt lat="44.73295" lon="5.63946">
        <ele>1761.75</ele>
        <time>2011-11-19T13:40:20Z</time>
      </trkpt>
      <trkpt lat="44.73295" lon="5.63941">
        <ele>1760.31</ele>
        <time>2011-11-19T13:40:23Z</time>
      </trkpt>
      <trkpt lat="44.73295" lon="5.63939">
        <ele>1760.31</ele>
        <time>2011-11-19T13:40:24Z</time>
      </trkpt>
      <trkpt lat="44.73294" lon="5.63932">
        <ele>1763.68</ele>
        <time>2011-11-19T13:40:30Z</time>
      </trkpt>
      <trkpt lat="44.73294" lon="5.63932">
        <ele>1760.31</ele>
        <time>2011-11-19T13:40:33Z</time>
      </trkpt>
      <trkpt lat="44.73294" lon="5.63932">
        <ele>1761.75</ele>
        <time>2011-11-19T13:40:34Z</time>
      </trkpt>
      <trkpt lat="44.73294" lon="5.63932">
        <ele>1757.43</ele>
        <time>2011-11-19T13:40:36Z</time>
      </trkpt>
      <trkpt lat="44.73294" lon="5.63932">
        <ele>1758.87</ele>
        <time>2011-11-19T13:40:37Z</time>
      </trkpt>
      <trkpt lat="44.73294" lon="5.63932">
        <ele>1755.02</ele>
        <time>2011-11-19T13:40:39Z</time>
      </trkpt>
      <trkpt lat="44.73294" lon="5.63932">
        <ele>1755.5</ele>
        <time>2011-11-19T13:40:40Z</time>
      </trkpt>
      <trkpt lat="44.73294" lon="5.63932">
        <ele>1759.35</ele>
        <time>2011-11-19T13:40:43Z</time>
      </trkpt>
      <trkpt lat="44.73294" lon="5.63932">
        <ele>1754.54</ele>
        <time>2011-11-19T13:40:49Z</time>
      </trkpt>
      <trkpt lat="44.73294" lon="5.63932">
        <ele>1754.06</ele>
        <time>2011-11-19T13:40:51Z</time>
      </trkpt>
      <trkpt lat="44.73294" lon="5.63932">
        <ele>1760.79</ele>
        <time>2011-11-19T13:40:56Z</time>
      </trkpt>
      <trkpt lat="44.73294" lon="5.63932">
        <ele>1756.95</ele>
        <time>2011-11-19T13:40:57Z</time>
      </trkpt>
      <trkpt lat="44.73294" lon="5.6393">
        <ele>1760.31</ele>
        <time>2011-11-19T13:41:12Z</time>
      </trkpt>
      <trkpt lat="44.73294" lon="5.6393">
        <ele>1759.83</ele>
        <time>2011-11-19T13:41:13Z</time>
      </trkpt>
      <trkpt lat="44.73295" lon="5.63928">
        <ele>1759.83</ele>
        <time>2011-11-19T13:41:15Z</time>
      </trkpt>
      <trkpt lat="44.73298" lon="5.6392">
        <ele>1756.95</ele>
        <time>2011-11-19T13:41:20Z</time>
      </trkpt>
      <trkpt lat="44.73301" lon="5.63914">
        <ele>1755.5</ele>
        <time>2011-11-19T13:41:23Z</time>
      </trkpt>
      <trkpt lat="44.73301" lon="5.63914">
        <ele>1756.95</ele>
        <time>2011-11-19T13:41:24Z</time>
      </trkpt>
      <trkpt lat="44.733" lon="5.63908">
        <ele>1755.5</ele>
        <time>2011-11-19T13:41:30Z</time>
      </trkpt>
      <trkpt lat="44.733" lon="5.63903">
        <ele>1755.02</ele>
        <time>2011-11-19T13:41:32Z</time>
      </trkpt>
      <trkpt lat="44.733" lon="5.63898">
        <ele>1752.14</ele>
        <time>2011-11-19T13:41:34Z</time>
      </trkpt>
      <trkpt lat="44.73302" lon="5.6389">
        <ele>1750.7</ele>
        <time>2011-11-19T13:41:38Z</time>
      </trkpt>
      <trkpt lat="44.73303" lon="5.63888">
        <ele>1752.62</ele>
        <time>2011-11-19T13:41:40Z</time>
      </trkpt>
      <trkpt lat="44.73305" lon="5.63878">
        <ele>1748.78</ele>
        <time>2011-11-19T13:41:45Z</time>
      </trkpt>
      <trkpt lat="44.73305" lon="5.63877">
        <ele>1747.81</ele>
        <time>2011-11-19T13:41:46Z</time>
      </trkpt>
      <trkpt lat="44.73305" lon="5.63872">
        <ele>1746.37</ele>
        <time>2011-11-19T13:41:49Z</time>
      </trkpt>
      <trkpt lat="44.73304" lon="5.63869">
        <ele>1743.01</ele>
        <time>2011-11-19T13:41:51Z</time>
      </trkpt>
      <trkpt lat="44.73304" lon="5.63867">
        <ele>1742.05</ele>
        <time>2011-11-19T13:41:53Z</time>
      </trkpt>
      <trkpt lat="44.73304" lon="5.63866">
        <ele>1743.01</ele>
        <time>2011-11-19T13:42:00Z</time>
      </trkpt>
      <trkpt lat="44.73304" lon="5.63866">
        <ele>1746.37</ele>
        <time>2011-11-19T13:42:03Z</time>
      </trkpt>
      <trkpt lat="44.73304" lon="5.63866">
        <ele>1747.33</ele>
        <time>2011-11-19T13:42:09Z</time>
      </trkpt>
      <trkpt lat="44.73304" lon="5.63865">
        <ele>1747.33</ele>
        <time>2011-11-19T13:42:12Z</time>
      </trkpt>
      <trkpt lat="44.73304" lon="5.63861">
        <ele>1743.01</ele>
        <time>2011-11-19T13:42:15Z</time>
      </trkpt>
      <trkpt lat="44.73305" lon="5.63861">
        <ele>1743.49</ele>
        <time>2011-11-19T13:42:16Z</time>
      </trkpt>
      <trkpt lat="44.73305" lon="5.63859">
        <ele>1743.01</ele>
        <time>2011-11-19T13:42:18Z</time>
      </trkpt>
      <trkpt lat="44.73305" lon="5.63855">
        <ele>1742.53</ele>
        <time>2011-11-19T13:42:21Z</time>
      </trkpt>
      <trkpt lat="44.73304" lon="5.63845">
        <ele>1742.53</ele>
        <time>2011-11-19T13:42:26Z</time>
      </trkpt>
      <trkpt lat="44.73305" lon="5.63839">
        <ele>1742.05</ele>
        <time>2011-11-19T13:42:30Z</time>
      </trkpt>
      <trkpt lat="44.73306" lon="5.63833">
        <ele>1742.53</ele>
        <time>2011-11-19T13:42:34Z</time>
      </trkpt>
      <trkpt lat="44.73307" lon="5.63831">
        <ele>1740.6</ele>
        <time>2011-11-19T13:42:36Z</time>
      </trkpt>
      <trkpt lat="44.73311" lon="5.63826">
        <ele>1739.16</ele>
        <time>2011-11-19T13:42:40Z</time>
      </trkpt>
      <trkpt lat="44.73318" lon="5.63816">
        <ele>1739.64</ele>
        <time>2011-11-19T13:42:51Z</time>
      </trkpt>
      <trkpt lat="44.73325" lon="5.63809">
        <ele>1739.64</ele>
        <time>2011-11-19T13:43:03Z</time>
      </trkpt>
      <trkpt lat="44.73326" lon="5.63807">
        <ele>1738.2</ele>
        <time>2011-11-19T13:43:09Z</time>
      </trkpt>
      <trkpt lat="44.73337" lon="5.63792">
        <ele>1737.72</ele>
        <time>2011-11-19T13:43:22Z</time>
      </trkpt>
      <trkpt lat="44.73347" lon="5.63786">
        <ele>1735.8</ele>
        <time>2011-11-19T13:43:33Z</time>
      </trkpt>
      <trkpt lat="44.73348" lon="5.63786">
        <ele>1736.28</ele>
        <time>2011-11-19T13:43:34Z</time>
      </trkpt>
      <trkpt lat="44.7336" lon="5.63776">
        <ele>1734.36</ele>
        <time>2011-11-19T13:43:47Z</time>
      </trkpt>
      <trkpt lat="44.73363" lon="5.63772">
        <ele>1734.36</ele>
        <time>2011-11-19T13:43:51Z</time>
      </trkpt>
      <trkpt lat="44.73367" lon="5.63767">
        <ele>1732.91</ele>
        <time>2011-11-19T13:43:55Z</time>
      </trkpt>
      <trkpt lat="44.73369" lon="5.63763">
        <ele>1734.84</ele>
        <time>2011-11-19T13:43:58Z</time>
      </trkpt>
      <trkpt lat="44.73374" lon="5.63759">
        <ele>1733.39</ele>
        <time>2011-11-19T13:44:03Z</time>
      </trkpt>
      <trkpt lat="44.73382" lon="5.63749">
        <ele>1731.95</ele>
        <time>2011-11-19T13:44:13Z</time>
      </trkpt>
      <trkpt lat="44.73383" lon="5.63747">
        <ele>1733.39</ele>
        <time>2011-11-19T13:44:15Z</time>
      </trkpt>
      <trkpt lat="44.73385" lon="5.63743">
        <ele>1731.47</ele>
        <time>2011-11-19T13:44:19Z</time>
      </trkpt>
      <trkpt lat="44.73392" lon="5.63729">
        <ele>1730.99</ele>
        <time>2011-11-19T13:44:29Z</time>
      </trkpt>
      <trkpt lat="44.73402" lon="5.63718">
        <ele>1729.07</ele>
        <time>2011-11-19T13:44:38Z</time>
      </trkpt>
      <trkpt lat="44.73403" lon="5.63717">
        <ele>1728.11</ele>
        <time>2011-11-19T13:44:39Z</time>
      </trkpt>
      <trkpt lat="44.73405" lon="5.63715">
        <ele>1728.59</ele>
        <time>2011-11-19T13:44:41Z</time>
      </trkpt>
      <trkpt lat="44.73409" lon="5.63706">
        <ele>1728.59</ele>
        <time>2011-11-19T13:44:48Z</time>
      </trkpt>
      <trkpt lat="44.73418" lon="5.63691">
        <ele>1728.11</ele>
        <time>2011-11-19T13:45:00Z</time>
      </trkpt>
      <trkpt lat="44.73431" lon="5.63683">
        <ele>1725.7</ele>
        <time>2011-11-19T13:45:11Z</time>
      </trkpt>
      <trkpt lat="44.73436" lon="5.63679">
        <ele>1724.74</ele>
        <time>2011-11-19T13:45:16Z</time>
      </trkpt>
      <trkpt lat="44.73446" lon="5.63665">
        <ele>1724.26</ele>
        <time>2011-11-19T13:45:27Z</time>
      </trkpt>
      <trkpt lat="44.73448" lon="5.63661">
        <ele>1725.22</ele>
        <time>2011-11-19T13:45:31Z</time>
      </trkpt>
      <trkpt lat="44.73451" lon="5.63658">
        <ele>1725.22</ele>
        <time>2011-11-19T13:45:34Z</time>
      </trkpt>
      <trkpt lat="44.73462" lon="5.63646">
        <ele>1723.78</ele>
        <time>2011-11-19T13:45:45Z</time>
      </trkpt>
      <trkpt lat="44.73464" lon="5.63642">
        <ele>1723.78</ele>
        <time>2011-11-19T13:45:48Z</time>
      </trkpt>
      <trkpt lat="44.73473" lon="5.63637">
        <ele>1720.9</ele>
        <time>2011-11-19T13:45:57Z</time>
      </trkpt>
      <trkpt lat="44.73474" lon="5.63637">
        <ele>1720.9</ele>
        <time>2011-11-19T13:45:58Z</time>
      </trkpt>
      <trkpt lat="44.73482" lon="5.63626">
        <ele>1719.46</ele>
        <time>2011-11-19T13:46:10Z</time>
      </trkpt>
      <trkpt lat="44.73483" lon="5.63625">
        <ele>1719.46</ele>
        <time>2011-11-19T13:46:11Z</time>
      </trkpt>
      <trkpt lat="44.73492" lon="5.63613">
        <ele>1718.97</ele>
        <time>2011-11-19T13:46:22Z</time>
      </trkpt>
      <trkpt lat="44.73498" lon="5.63605">
        <ele>1718.01</ele>
        <time>2011-11-19T13:46:33Z</time>
      </trkpt>
      <trkpt lat="44.73504" lon="5.63598">
        <ele>1720.9</ele>
        <time>2011-11-19T13:46:44Z</time>
      </trkpt>
      <trkpt lat="44.73507" lon="5.63597">
        <ele>1722.82</ele>
        <time>2011-11-19T13:46:48Z</time>
      </trkpt>
      <trkpt lat="44.73513" lon="5.63598">
        <ele>1722.34</ele>
        <time>2011-11-19T13:46:58Z</time>
      </trkpt>
      <trkpt lat="44.73517" lon="5.63598">
        <ele>1721.38</ele>
        <time>2011-11-19T13:47:03Z</time>
      </trkpt>
      <trkpt lat="44.73519" lon="5.63597">
        <ele>1719.94</ele>
        <time>2011-11-19T13:47:06Z</time>
      </trkpt>
      <trkpt lat="44.73523" lon="5.63594">
        <ele>1718.01</ele>
        <time>2011-11-19T13:47:12Z</time>
      </trkpt>
      <trkpt lat="44.73525" lon="5.63593">
        <ele>1716.57</ele>
        <time>2011-11-19T13:47:14Z</time>
      </trkpt>
      <trkpt lat="44.73533" lon="5.63588">
        <ele>1713.69</ele>
        <time>2011-11-19T13:47:25Z</time>
      </trkpt>
      <trkpt lat="44.73539" lon="5.63586">
        <ele>1711.28</ele>
        <time>2011-11-19T13:47:34Z</time>
      </trkpt>
      <trkpt lat="44.73543" lon="5.63582">
        <ele>1712.25</ele>
        <time>2011-11-19T13:47:41Z</time>
      </trkpt>
      <trkpt lat="44.73551" lon="5.6358">
        <ele>1713.21</ele>
        <time>2011-11-19T13:47:49Z</time>
      </trkpt>
      <trkpt lat="44.73558" lon="5.63572">
        <ele>1711.28</ele>
        <time>2011-11-19T13:48:02Z</time>
      </trkpt>
      <trkpt lat="44.73559" lon="5.63571">
        <ele>1712.73</ele>
        <time>2011-11-19T13:48:04Z</time>
      </trkpt>
      <trkpt lat="44.73563" lon="5.63569">
        <ele>1712.25</ele>
        <time>2011-11-19T13:48:09Z</time>
      </trkpt>
      <trkpt lat="44.7357" lon="5.63564">
        <ele>1711.76</ele>
        <time>2011-11-19T13:48:19Z</time>
      </trkpt>
      <trkpt lat="44.73577" lon="5.63556">
        <ele>1712.73</ele>
        <time>2011-11-19T13:48:30Z</time>
      </trkpt>
      <trkpt lat="44.73578" lon="5.63555">
        <ele>1712.73</ele>
        <time>2011-11-19T13:48:31Z</time>
      </trkpt>
      <trkpt lat="44.73579" lon="5.63553">
        <ele>1713.21</ele>
        <time>2011-11-19T13:48:33Z</time>
      </trkpt>
      <trkpt lat="44.73588" lon="5.63546">
        <ele>1713.21</ele>
        <time>2011-11-19T13:48:46Z</time>
      </trkpt>
      <trkpt lat="44.73594" lon="5.63541">
        <ele>1714.17</ele>
        <time>2011-11-19T13:48:55Z</time>
      </trkpt>
      <trkpt lat="44.73606" lon="5.63532">
        <ele>1713.69</ele>
        <time>2011-11-19T13:49:07Z</time>
      </trkpt>
      <trkpt lat="44.73608" lon="5.63529">
        <ele>1713.69</ele>
        <time>2011-11-19T13:49:10Z</time>
      </trkpt>
      <trkpt lat="44.73608" lon="5.63524">
        <ele>1713.69</ele>
        <time>2011-11-19T13:49:14Z</time>
      </trkpt>
      <trkpt lat="44.73612" lon="5.63514">
        <ele>1714.17</ele>
        <time>2011-11-19T13:49:24Z</time>
      </trkpt>
      <trkpt lat="44.73618" lon="5.63509">
        <ele>1714.65</ele>
        <time>2011-11-19T13:49:34Z</time>
      </trkpt>
      <trkpt lat="44.73622" lon="5.63503">
        <ele>1715.61</ele>
        <time>2011-11-19T13:49:42Z</time>
      </trkpt>
      <trkpt lat="44.73623" lon="5.63502">
        <ele>1716.09</ele>
        <time>2011-11-19T13:49:56Z</time>
      </trkpt>
      <trkpt lat="44.73624" lon="5.635">
        <ele>1715.61</ele>
        <time>2011-11-19T13:50:02Z</time>
      </trkpt>
      <trkpt lat="44.73629" lon="5.63494">
        <ele>1713.21</ele>
        <time>2011-11-19T13:50:09Z</time>
      </trkpt>
      <trkpt lat="44.73632" lon="5.63491">
        <ele>1711.76</ele>
        <time>2011-11-19T13:50:13Z</time>
      </trkpt>
      <trkpt lat="44.73635" lon="5.63489">
        <ele>1711.28</ele>
        <time>2011-11-19T13:50:16Z</time>
      </trkpt>
      <trkpt lat="44.7364" lon="5.63485">
        <ele>1710.8</ele>
        <time>2011-11-19T13:50:22Z</time>
      </trkpt>
      <trkpt lat="44.73646" lon="5.63478">
        <ele>1709.84</ele>
        <time>2011-11-19T13:50:30Z</time>
      </trkpt>
      <trkpt lat="44.7365" lon="5.63475">
        <ele>1708.88</ele>
        <time>2011-11-19T13:50:36Z</time>
      </trkpt>
      <trkpt lat="44.73658" lon="5.63465">
        <ele>1708.88</ele>
        <time>2011-11-19T13:50:45Z</time>
      </trkpt>
      <trkpt lat="44.73659" lon="5.63463">
        <ele>1708.88</ele>
        <time>2011-11-19T13:50:47Z</time>
      </trkpt>
      <trkpt lat="44.73666" lon="5.63458">
        <ele>1708.4</ele>
        <time>2011-11-19T13:50:56Z</time>
      </trkpt>
      <trkpt lat="44.73667" lon="5.63453">
        <ele>1707.92</ele>
        <time>2011-11-19T13:51:00Z</time>
      </trkpt>
      <trkpt lat="44.73676" lon="5.63447">
        <ele>1707.92</ele>
        <time>2011-11-19T13:51:09Z</time>
      </trkpt>
      <trkpt lat="44.73682" lon="5.6344">
        <ele>1707.92</ele>
        <time>2011-11-19T13:51:20Z</time>
      </trkpt>
      <trkpt lat="44.73686" lon="5.63439">
        <ele>1707.44</ele>
        <time>2011-11-19T13:51:25Z</time>
      </trkpt>
      <trkpt lat="44.73689" lon="5.63437">
        <ele>1706.96</ele>
        <time>2011-11-19T13:51:28Z</time>
      </trkpt>
      <trkpt lat="44.73692" lon="5.63431">
        <ele>1706.48</ele>
        <time>2011-11-19T13:51:34Z</time>
      </trkpt>
      <trkpt lat="44.73693" lon="5.63427">
        <ele>1706.48</ele>
        <time>2011-11-19T13:51:37Z</time>
      </trkpt>
      <trkpt lat="44.73692" lon="5.63422">
        <ele>1706.48</ele>
        <time>2011-11-19T13:51:43Z</time>
      </trkpt>
      <trkpt lat="44.73694" lon="5.63413">
        <ele>1706</ele>
        <time>2011-11-19T13:51:47Z</time>
      </trkpt>
      <trkpt lat="44.73694" lon="5.63399">
        <ele>1705.52</ele>
        <time>2011-11-19T13:51:55Z</time>
      </trkpt>
      <trkpt lat="44.7369" lon="5.63392">
        <ele>1705.04</ele>
        <time>2011-11-19T13:51:59Z</time>
      </trkpt>
      <trkpt lat="44.73678" lon="5.63372">
        <ele>1708.4</ele>
        <time>2011-11-19T13:52:09Z</time>
      </trkpt>
      <trkpt lat="44.73671" lon="5.6336">
        <ele>1708.4</ele>
        <time>2011-11-19T13:52:17Z</time>
      </trkpt>
      <trkpt lat="44.73671" lon="5.63354">
        <ele>1711.76</ele>
        <time>2011-11-19T13:52:28Z</time>
      </trkpt>
      <trkpt lat="44.73671" lon="5.63354">
        <ele>1711.76</ele>
        <time>2011-11-19T13:52:29Z</time>
      </trkpt>
      <trkpt lat="44.73672" lon="5.63355">
        <ele>1711.28</ele>
        <time>2011-11-19T13:52:34Z</time>
      </trkpt>
      <trkpt lat="44.73672" lon="5.63355">
        <ele>1710.8</ele>
        <time>2011-11-19T13:52:46Z</time>
      </trkpt>
      <trkpt lat="44.73672" lon="5.63355">
        <ele>1704.07</ele>
        <time>2011-11-19T13:52:48Z</time>
      </trkpt>
      <trkpt lat="44.73672" lon="5.63355">
        <ele>1708.4</ele>
        <time>2011-11-19T13:52:49Z</time>
      </trkpt>
      <trkpt lat="44.73672" lon="5.63355">
        <ele>1703.11</ele>
        <time>2011-11-19T13:52:51Z</time>
      </trkpt>
      <trkpt lat="44.73672" lon="5.63355">
        <ele>1710.8</ele>
        <time>2011-11-19T13:52:52Z</time>
      </trkpt>
      <trkpt lat="44.73672" lon="5.63355">
        <ele>1710.8</ele>
        <time>2011-11-19T13:52:53Z</time>
      </trkpt>
      <trkpt lat="44.73672" lon="5.63355">
        <ele>1718.97</ele>
        <time>2011-11-19T13:52:54Z</time>
      </trkpt>
      <trkpt lat="44.73672" lon="5.63355">
        <ele>1711.28</ele>
        <time>2011-11-19T13:52:55Z</time>
      </trkpt>
      <trkpt lat="44.73672" lon="5.63355">
        <ele>1706</ele>
        <time>2011-11-19T13:52:58Z</time>
      </trkpt>
      <trkpt lat="44.73672" lon="5.63355">
        <ele>1711.76</ele>
        <time>2011-11-19T13:52:59Z</time>
      </trkpt>
      <trkpt lat="44.73672" lon="5.63355">
        <ele>1717.05</ele>
        <time>2011-11-19T13:53:00Z</time>
      </trkpt>
      <trkpt lat="44.73672" lon="5.63355">
        <ele>1710.8</ele>
        <time>2011-11-19T13:53:01Z</time>
      </trkpt>
      <trkpt lat="44.73672" lon="5.63355">
        <ele>1702.63</ele>
        <time>2011-11-19T13:53:02Z</time>
      </trkpt>
      <trkpt lat="44.73672" lon="5.63355">
        <ele>1708.4</ele>
        <time>2011-11-19T13:53:03Z</time>
      </trkpt>
      <trkpt lat="44.73672" lon="5.63355">
        <ele>1712.25</ele>
        <time>2011-11-19T13:53:05Z</time>
      </trkpt>
      <trkpt lat="44.73672" lon="5.63355">
        <ele>1705.52</ele>
        <time>2011-11-19T13:53:07Z</time>
      </trkpt>
      <trkpt lat="44.73672" lon="5.63355">
        <ele>1710.8</ele>
        <time>2011-11-19T13:53:08Z</time>
      </trkpt>
      <trkpt lat="44.73672" lon="5.63354">
        <ele>1706.48</ele>
        <time>2011-11-19T13:53:11Z</time>
      </trkpt>
      <trkpt lat="44.73672" lon="5.63354">
        <ele>1710.8</ele>
        <time>2011-11-19T13:53:12Z</time>
      </trkpt>
      <trkpt lat="44.73672" lon="5.63354">
        <ele>1709.84</ele>
        <time>2011-11-19T13:53:13Z</time>
      </trkpt>
      <trkpt lat="44.73672" lon="5.63354">
        <ele>1710.32</ele>
        <time>2011-11-19T13:53:37Z</time>
      </trkpt>
      <trkpt lat="44.73674" lon="5.63354">
        <ele>1711.28</ele>
        <time>2011-11-19T13:53:46Z</time>
      </trkpt>
      <trkpt lat="44.73681" lon="5.63349">
        <ele>1712.73</ele>
        <time>2011-11-19T13:53:54Z</time>
      </trkpt>
      <trkpt lat="44.73689" lon="5.63344">
        <ele>1711.28</ele>
        <time>2011-11-19T13:54:01Z</time>
      </trkpt>
      <trkpt lat="44.73692" lon="5.63342">
        <ele>1710.8</ele>
        <time>2011-11-19T13:54:04Z</time>
      </trkpt>
      <trkpt lat="44.73701" lon="5.63336">
        <ele>1711.28</ele>
        <time>2011-11-19T13:54:16Z</time>
      </trkpt>
      <trkpt lat="44.73704" lon="5.63333">
        <ele>1713.69</ele>
        <time>2011-11-19T13:54:28Z</time>
      </trkpt>
      <trkpt lat="44.73709" lon="5.6333">
        <ele>1715.13</ele>
        <time>2011-11-19T13:54:38Z</time>
      </trkpt>
      <trkpt lat="44.73715" lon="5.63327">
        <ele>1715.61</ele>
        <time>2011-11-19T13:54:44Z</time>
      </trkpt>
      <trkpt lat="44.73718" lon="5.63326">
        <ele>1713.21</ele>
        <time>2011-11-19T13:54:46Z</time>
      </trkpt>
      <trkpt lat="44.7372" lon="5.63325">
        <ele>1714.65</ele>
        <time>2011-11-19T13:54:48Z</time>
      </trkpt>
      <trkpt lat="44.73724" lon="5.63324">
        <ele>1716.09</ele>
        <time>2011-11-19T13:54:53Z</time>
      </trkpt>
      <trkpt lat="44.73739" lon="5.6332">
        <ele>1716.57</ele>
        <time>2011-11-19T13:55:07Z</time>
      </trkpt>
      <trkpt lat="44.73743" lon="5.6332">
        <ele>1716.57</ele>
        <time>2011-11-19T13:55:12Z</time>
      </trkpt>
      <trkpt lat="44.73745" lon="5.63318">
        <ele>1717.05</ele>
        <time>2011-11-19T13:55:14Z</time>
      </trkpt>
      <trkpt lat="44.73746" lon="5.63317">
        <ele>1716.57</ele>
        <time>2011-11-19T13:55:16Z</time>
      </trkpt>
      <trkpt lat="44.73757" lon="5.63314">
        <ele>1716.57</ele>
        <time>2011-11-19T13:55:26Z</time>
      </trkpt>
      <trkpt lat="44.73767" lon="5.63309">
        <ele>1715.61</ele>
        <time>2011-11-19T13:55:37Z</time>
      </trkpt>
      <trkpt lat="44.73774" lon="5.63306">
        <ele>1716.57</ele>
        <time>2011-11-19T13:55:44Z</time>
      </trkpt>
      <trkpt lat="44.73778" lon="5.63301">
        <ele>1718.97</ele>
        <time>2011-11-19T13:55:49Z</time>
      </trkpt>
      <trkpt lat="44.73779" lon="5.633">
        <ele>1718.97</ele>
        <time>2011-11-19T13:55:50Z</time>
      </trkpt>
      <trkpt lat="44.7378" lon="5.63294">
        <ele>1718.97</ele>
        <time>2011-11-19T13:55:55Z</time>
      </trkpt>
      <trkpt lat="44.7378" lon="5.63291">
        <ele>1717.53</ele>
        <time>2011-11-19T13:55:58Z</time>
      </trkpt>
      <trkpt lat="44.73781" lon="5.63286">
        <ele>1718.97</ele>
        <time>2011-11-19T13:56:08Z</time>
      </trkpt>
      <trkpt lat="44.73787" lon="5.6328">
        <ele>1720.9</ele>
        <time>2011-11-19T13:56:18Z</time>
      </trkpt>
      <trkpt lat="44.73791" lon="5.63272">
        <ele>1721.38</ele>
        <time>2011-11-19T13:56:27Z</time>
      </trkpt>
      <trkpt lat="44.73798" lon="5.63263">
        <ele>1724.74</ele>
        <time>2011-11-19T13:56:38Z</time>
      </trkpt>
      <trkpt lat="44.738" lon="5.63261">
        <ele>1724.74</ele>
        <time>2011-11-19T13:56:40Z</time>
      </trkpt>
      <trkpt lat="44.73806" lon="5.63257">
        <ele>1727.15</ele>
        <time>2011-11-19T13:56:47Z</time>
      </trkpt>
      <trkpt lat="44.73808" lon="5.63253">
        <ele>1724.74</ele>
        <time>2011-11-19T13:56:50Z</time>
      </trkpt>
      <trkpt lat="44.73811" lon="5.63251">
        <ele>1728.11</ele>
        <time>2011-11-19T13:56:53Z</time>
      </trkpt>
      <trkpt lat="44.73811" lon="5.6325">
        <ele>1727.63</ele>
        <time>2011-11-19T13:56:54Z</time>
      </trkpt>
      <trkpt lat="44.73818" lon="5.63242">
        <ele>1727.15</ele>
        <time>2011-11-19T13:57:04Z</time>
      </trkpt>
      <trkpt lat="44.73823" lon="5.63238">
        <ele>1728.59</ele>
        <time>2011-11-19T13:57:10Z</time>
      </trkpt>
      <trkpt lat="44.73829" lon="5.63233">
        <ele>1728.11</ele>
        <time>2011-11-19T13:57:21Z</time>
      </trkpt>
      <trkpt lat="44.73833" lon="5.63229">
        <ele>1731.95</ele>
        <time>2011-11-19T13:57:25Z</time>
      </trkpt>
      <trkpt lat="44.73837" lon="5.63224">
        <ele>1732.91</ele>
        <time>2011-11-19T13:57:29Z</time>
      </trkpt>
      <trkpt lat="44.73841" lon="5.63221">
        <ele>1733.39</ele>
        <time>2011-11-19T13:57:34Z</time>
      </trkpt>
      <trkpt lat="44.73846" lon="5.63211">
        <ele>1732.91</ele>
        <time>2011-11-19T13:57:46Z</time>
      </trkpt>
      <trkpt lat="44.73851" lon="5.63204">
        <ele>1734.84</ele>
        <time>2011-11-19T13:57:55Z</time>
      </trkpt>
      <trkpt lat="44.73855" lon="5.63197">
        <ele>1736.28</ele>
        <time>2011-11-19T13:58:05Z</time>
      </trkpt>
      <trkpt lat="44.73857" lon="5.63195">
        <ele>1736.76</ele>
        <time>2011-11-19T13:58:10Z</time>
      </trkpt>
      <trkpt lat="44.73863" lon="5.63188">
        <ele>1738.2</ele>
        <time>2011-11-19T13:58:22Z</time>
      </trkpt>
      <trkpt lat="44.73868" lon="5.63182">
        <ele>1739.64</ele>
        <time>2011-11-19T13:58:32Z</time>
      </trkpt>
      <trkpt lat="44.73872" lon="5.63177">
        <ele>1741.08</ele>
        <time>2011-11-19T13:58:38Z</time>
      </trkpt>
      <trkpt lat="44.73875" lon="5.63175">
        <ele>1742.53</ele>
        <time>2011-11-19T13:58:43Z</time>
      </trkpt>
      <trkpt lat="44.73876" lon="5.63172">
        <ele>1741.57</ele>
        <time>2011-11-19T13:58:47Z</time>
      </trkpt>
      <trkpt lat="44.73877" lon="5.63169">
        <ele>1742.53</ele>
        <time>2011-11-19T13:58:50Z</time>
      </trkpt>
      <trkpt lat="44.73878" lon="5.63165">
        <ele>1741.57</ele>
        <time>2011-11-19T13:58:56Z</time>
      </trkpt>
      <trkpt lat="44.73878" lon="5.63165">
        <ele>1743.01</ele>
        <time>2011-11-19T13:59:00Z</time>
      </trkpt>
      <trkpt lat="44.73878" lon="5.63165">
        <ele>1744.45</ele>
        <time>2011-11-19T13:59:21Z</time>
      </trkpt>
      <trkpt lat="44.73878" lon="5.63165">
        <ele>1742.53</ele>
        <time>2011-11-19T13:59:23Z</time>
      </trkpt>
      <trkpt lat="44.73878" lon="5.63165">
        <ele>1743.97</ele>
        <time>2011-11-19T13:59:27Z</time>
      </trkpt>
      <trkpt lat="44.73877" lon="5.63165">
        <ele>1740.12</ele>
        <time>2011-11-19T13:59:32Z</time>
      </trkpt>
      <trkpt lat="44.73877" lon="5.63165">
        <ele>1740.12</ele>
        <time>2011-11-19T13:59:33Z</time>
      </trkpt>
      <trkpt lat="44.73878" lon="5.63162">
        <ele>1746.37</ele>
        <time>2011-11-19T13:59:36Z</time>
      </trkpt>
      <trkpt lat="44.73879" lon="5.63158">
        <ele>1743.49</ele>
        <time>2011-11-19T13:59:39Z</time>
      </trkpt>
      <trkpt lat="44.7388" lon="5.63155">
        <ele>1746.37</ele>
        <time>2011-11-19T13:59:41Z</time>
      </trkpt>
      <trkpt lat="44.73883" lon="5.63149">
        <ele>1748.29</ele>
        <time>2011-11-19T13:59:48Z</time>
      </trkpt>
      <trkpt lat="44.73886" lon="5.63144">
        <ele>1746.37</ele>
        <time>2011-11-19T13:59:53Z</time>
      </trkpt>
      <trkpt lat="44.7389" lon="5.63138">
        <ele>1749.26</ele>
        <time>2011-11-19T14:00:01Z</time>
      </trkpt>
      <trkpt lat="44.7389" lon="5.63138">
        <ele>1749.26</ele>
        <time>2011-11-19T14:00:02Z</time>
      </trkpt>
      <trkpt lat="44.73893" lon="5.63134">
        <ele>1749.74</ele>
        <time>2011-11-19T14:00:06Z</time>
      </trkpt>
      <trkpt lat="44.73896" lon="5.63132">
        <ele>1751.18</ele>
        <time>2011-11-19T14:00:09Z</time>
      </trkpt>
      <trkpt lat="44.73906" lon="5.63129">
        <ele>1750.22</ele>
        <time>2011-11-19T14:00:19Z</time>
      </trkpt>
      <trkpt lat="44.73911" lon="5.63126">
        <ele>1749.26</ele>
        <time>2011-11-19T14:00:23Z</time>
      </trkpt>
      <trkpt lat="44.73918" lon="5.63122">
        <ele>1746.85</ele>
        <time>2011-11-19T14:00:32Z</time>
      </trkpt>
      <trkpt lat="44.73922" lon="5.63118">
        <ele>1745.89</ele>
        <time>2011-11-19T14:00:36Z</time>
      </trkpt>
      <trkpt lat="44.73934" lon="5.63109">
        <ele>1745.89</ele>
        <time>2011-11-19T14:00:48Z</time>
      </trkpt>
      <trkpt lat="44.73935" lon="5.63109">
        <ele>1745.89</ele>
        <time>2011-11-19T14:00:50Z</time>
      </trkpt>
      <trkpt lat="44.73938" lon="5.63108">
        <ele>1738.68</ele>
        <time>2011-11-19T14:00:53Z</time>
      </trkpt>
      <trkpt lat="44.73938" lon="5.63108">
        <ele>1747.33</ele>
        <time>2011-11-19T14:00:54Z</time>
      </trkpt>
      <trkpt lat="44.7394" lon="5.63107">
        <ele>1745.89</ele>
        <time>2011-11-19T14:00:56Z</time>
      </trkpt>
      <trkpt lat="44.73943" lon="5.63107">
        <ele>1745.41</ele>
        <time>2011-11-19T14:00:59Z</time>
      </trkpt>
      <trkpt lat="44.73945" lon="5.63104">
        <ele>1744.45</ele>
        <time>2011-11-19T14:01:02Z</time>
      </trkpt>
      <trkpt lat="44.7396" lon="5.63098">
        <ele>1742.53</ele>
        <time>2011-11-19T14:01:16Z</time>
      </trkpt>
      <trkpt lat="44.73967" lon="5.63093">
        <ele>1741.08</ele>
        <time>2011-11-19T14:01:23Z</time>
      </trkpt>
      <trkpt lat="44.7397" lon="5.63089">
        <ele>1741.08</ele>
        <time>2011-11-19T14:01:27Z</time>
      </trkpt>
      <trkpt lat="44.73975" lon="5.63083">
        <ele>1741.08</ele>
        <time>2011-11-19T14:01:32Z</time>
      </trkpt>
      <trkpt lat="44.73984" lon="5.63075">
        <ele>1739.16</ele>
        <time>2011-11-19T14:01:42Z</time>
      </trkpt>
      <trkpt lat="44.73992" lon="5.63071">
        <ele>1738.2</ele>
        <time>2011-11-19T14:01:52Z</time>
      </trkpt>
      <trkpt lat="44.73997" lon="5.63069">
        <ele>1737.24</ele>
        <time>2011-11-19T14:01:57Z</time>
      </trkpt>
      <trkpt lat="44.74" lon="5.63066">
        <ele>1737.72</ele>
        <time>2011-11-19T14:02:00Z</time>
      </trkpt>
      <trkpt lat="44.74011" lon="5.63056">
        <ele>1736.28</ele>
        <time>2011-11-19T14:02:12Z</time>
      </trkpt>
      <trkpt lat="44.74013" lon="5.63055">
        <ele>1736.28</ele>
        <time>2011-11-19T14:02:15Z</time>
      </trkpt>
      <trkpt lat="44.74021" lon="5.6305">
        <ele>1737.24</ele>
        <time>2011-11-19T14:02:26Z</time>
      </trkpt>
      <trkpt lat="44.74026" lon="5.63047">
        <ele>1738.68</ele>
        <time>2011-11-19T14:02:33Z</time>
      </trkpt>
      <trkpt lat="44.74028" lon="5.63046">
        <ele>1738.68</ele>
        <time>2011-11-19T14:02:35Z</time>
      </trkpt>
      <trkpt lat="44.74031" lon="5.63043">
        <ele>1739.64</ele>
        <time>2011-11-19T14:02:38Z</time>
      </trkpt>
      <trkpt lat="44.74042" lon="5.63036">
        <ele>1740.12</ele>
        <time>2011-11-19T14:02:51Z</time>
      </trkpt>
      <trkpt lat="44.74044" lon="5.63036">
        <ele>1742.05</ele>
        <time>2011-11-19T14:02:54Z</time>
      </trkpt>
      <trkpt lat="44.74051" lon="5.63033">
        <ele>1742.53</ele>
        <time>2011-11-19T14:03:04Z</time>
      </trkpt>
      <trkpt lat="44.7406" lon="5.63031">
        <ele>1740.6</ele>
        <time>2011-11-19T14:03:17Z</time>
      </trkpt>
      <trkpt lat="44.7407" lon="5.63027">
        <ele>1741.57</ele>
        <time>2011-11-19T14:03:29Z</time>
      </trkpt>
      <trkpt lat="44.74074" lon="5.63026">
        <ele>1742.53</ele>
        <time>2011-11-19T14:03:34Z</time>
      </trkpt>
      <trkpt lat="44.74079" lon="5.63026">
        <ele>1742.05</ele>
        <time>2011-11-19T14:03:38Z</time>
      </trkpt>
      <trkpt lat="44.74089" lon="5.63019">
        <ele>1743.01</ele>
        <time>2011-11-19T14:03:51Z</time>
      </trkpt>
      <trkpt lat="44.74096" lon="5.63015">
        <ele>1743.49</ele>
        <time>2011-11-19T14:04:00Z</time>
      </trkpt>
      <trkpt lat="44.741" lon="5.63014">
        <ele>1744.45</ele>
        <time>2011-11-19T14:04:05Z</time>
      </trkpt>
      <trkpt lat="44.7411" lon="5.63009">
        <ele>1745.41</ele>
        <time>2011-11-19T14:04:18Z</time>
      </trkpt>
      <trkpt lat="44.74113" lon="5.63006">
        <ele>1746.37</ele>
        <time>2011-11-19T14:04:22Z</time>
      </trkpt>
      <trkpt lat="44.74114" lon="5.63003">
        <ele>1746.37</ele>
        <time>2011-11-19T14:04:25Z</time>
      </trkpt>
      <trkpt lat="44.74121" lon="5.63">
        <ele>1746.37</ele>
        <time>2011-11-19T14:04:33Z</time>
      </trkpt>
      <trkpt lat="44.74127" lon="5.63001">
        <ele>1747.33</ele>
        <time>2011-11-19T14:04:39Z</time>
      </trkpt>
      <trkpt lat="44.7414" lon="5.62996">
        <ele>1748.78</ele>
        <time>2011-11-19T14:04:52Z</time>
      </trkpt>
      <trkpt lat="44.74142" lon="5.62995">
        <ele>1749.74</ele>
        <time>2011-11-19T14:04:54Z</time>
      </trkpt>
      <trkpt lat="44.74146" lon="5.62993">
        <ele>1750.7</ele>
        <time>2011-11-19T14:05:00Z</time>
      </trkpt>
      <trkpt lat="44.74153" lon="5.62991">
        <ele>1752.14</ele>
        <time>2011-11-19T14:05:11Z</time>
      </trkpt>
      <trkpt lat="44.74163" lon="5.6299">
        <ele>1753.1</ele>
        <time>2011-11-19T14:05:23Z</time>
      </trkpt>
      <trkpt lat="44.74167" lon="5.62987">
        <ele>1754.54</ele>
        <time>2011-11-19T14:05:29Z</time>
      </trkpt>
      <trkpt lat="44.74172" lon="5.62985">
        <ele>1755.02</ele>
        <time>2011-11-19T14:05:35Z</time>
      </trkpt>
      <trkpt lat="44.74181" lon="5.62984">
        <ele>1758.39</ele>
        <time>2011-11-19T14:05:48Z</time>
      </trkpt>
      <trkpt lat="44.74182" lon="5.62984">
        <ele>1757.91</ele>
        <time>2011-11-19T14:05:49Z</time>
      </trkpt>
      <trkpt lat="44.74195" lon="5.62979">
        <ele>1758.39</ele>
        <time>2011-11-19T14:06:03Z</time>
      </trkpt>
      <trkpt lat="44.74197" lon="5.62979">
        <ele>1758.39</ele>
        <time>2011-11-19T14:06:05Z</time>
      </trkpt>
      <trkpt lat="44.74203" lon="5.62977">
        <ele>1758.87</ele>
        <time>2011-11-19T14:06:10Z</time>
      </trkpt>
      <trkpt lat="44.74205" lon="5.62976">
        <ele>1759.35</ele>
        <time>2011-11-19T14:06:13Z</time>
      </trkpt>
      <trkpt lat="44.74208" lon="5.62975">
        <ele>1759.35</ele>
        <time>2011-11-19T14:06:17Z</time>
      </trkpt>
      <trkpt lat="44.7421" lon="5.62974">
        <ele>1760.31</ele>
        <time>2011-11-19T14:06:20Z</time>
      </trkpt>
      <trkpt lat="44.74217" lon="5.62971">
        <ele>1762.71</ele>
        <time>2011-11-19T14:06:31Z</time>
      </trkpt>
      <trkpt lat="44.74219" lon="5.6297">
        <ele>1763.2</ele>
        <time>2011-11-19T14:06:33Z</time>
      </trkpt>
      <trkpt lat="44.74221" lon="5.62968">
        <ele>1763.68</ele>
        <time>2011-11-19T14:06:36Z</time>
      </trkpt>
      <trkpt lat="44.74227" lon="5.62965">
        <ele>1763.2</ele>
        <time>2011-11-19T14:06:42Z</time>
      </trkpt>
      <trkpt lat="44.74231" lon="5.62964">
        <ele>1763.68</ele>
        <time>2011-11-19T14:06:46Z</time>
      </trkpt>
      <trkpt lat="44.74233" lon="5.62963">
        <ele>1763.68</ele>
        <time>2011-11-19T14:06:48Z</time>
      </trkpt>
      <trkpt lat="44.74237" lon="5.6296">
        <ele>1765.12</ele>
        <time>2011-11-19T14:06:54Z</time>
      </trkpt>
      <trkpt lat="44.74243" lon="5.62955">
        <ele>1767.52</ele>
        <time>2011-11-19T14:07:04Z</time>
      </trkpt>
      <trkpt lat="44.74246" lon="5.62954">
        <ele>1768</ele>
        <time>2011-11-19T14:07:08Z</time>
      </trkpt>
      <trkpt lat="44.74253" lon="5.62951">
        <ele>1768.48</ele>
        <time>2011-11-19T14:07:16Z</time>
      </trkpt>
      <trkpt lat="44.74256" lon="5.62951">
        <ele>1768.48</ele>
        <time>2011-11-19T14:07:20Z</time>
      </trkpt>
      <trkpt lat="44.74258" lon="5.62947">
        <ele>1768.96</ele>
        <time>2011-11-19T14:07:25Z</time>
      </trkpt>
      <trkpt lat="44.7426" lon="5.62946">
        <ele>1768.96</ele>
        <time>2011-11-19T14:07:27Z</time>
      </trkpt>
      <trkpt lat="44.74265" lon="5.62945">
        <ele>1768.96</ele>
        <time>2011-11-19T14:07:32Z</time>
      </trkpt>
      <trkpt lat="44.74268" lon="5.62945">
        <ele>1768.96</ele>
        <time>2011-11-19T14:07:35Z</time>
      </trkpt>
      <trkpt lat="44.7427" lon="5.62944">
        <ele>1768.48</ele>
        <time>2011-11-19T14:07:38Z</time>
      </trkpt>
      <trkpt lat="44.74276" lon="5.62943">
        <ele>1768.48</ele>
        <time>2011-11-19T14:07:45Z</time>
      </trkpt>
      <trkpt lat="44.7428" lon="5.62942">
        <ele>1767.52</ele>
        <time>2011-11-19T14:07:58Z</time>
      </trkpt>
      <trkpt lat="44.74281" lon="5.62942">
        <ele>1768.96</ele>
        <time>2011-11-19T14:08:00Z</time>
      </trkpt>
      <trkpt lat="44.74285" lon="5.62943">
        <ele>1769.44</ele>
        <time>2011-11-19T14:08:04Z</time>
      </trkpt>
      <trkpt lat="44.74289" lon="5.62942">
        <ele>1768.48</ele>
        <time>2011-11-19T14:08:10Z</time>
      </trkpt>
      <trkpt lat="44.74295" lon="5.62942">
        <ele>1769.44</ele>
        <time>2011-11-19T14:08:21Z</time>
      </trkpt>
      <trkpt lat="44.743" lon="5.62939">
        <ele>1768</ele>
        <time>2011-11-19T14:08:27Z</time>
      </trkpt>
      <trkpt lat="44.74304" lon="5.62937">
        <ele>1768.96</ele>
        <time>2011-11-19T14:08:32Z</time>
      </trkpt>
      <trkpt lat="44.74307" lon="5.62938">
        <ele>1768.96</ele>
        <time>2011-11-19T14:08:35Z</time>
      </trkpt>
      <trkpt lat="44.74314" lon="5.62936">
        <ele>1768</ele>
        <time>2011-11-19T14:08:41Z</time>
      </trkpt>
      <trkpt lat="44.74326" lon="5.62938">
        <ele>1767.04</ele>
        <time>2011-11-19T14:08:53Z</time>
      </trkpt>
      <trkpt lat="44.74331" lon="5.62937">
        <ele>1766.56</ele>
        <time>2011-11-19T14:08:58Z</time>
      </trkpt>
      <trkpt lat="44.74343" lon="5.62936">
        <ele>1767.04</ele>
        <time>2011-11-19T14:09:10Z</time>
      </trkpt>
      <trkpt lat="44.74346" lon="5.62936">
        <ele>1767.04</ele>
        <time>2011-11-19T14:09:13Z</time>
      </trkpt>
      <trkpt lat="44.74348" lon="5.62937">
        <ele>1766.08</ele>
        <time>2011-11-19T14:09:25Z</time>
      </trkpt>
      <trkpt lat="44.74348" lon="5.62937">
        <ele>1765.6</ele>
        <time>2011-11-19T14:09:52Z</time>
      </trkpt>
      <trkpt lat="44.74348" lon="5.62936">
        <ele>1765.12</ele>
        <time>2011-11-19T14:10:19Z</time>
      </trkpt>
      <trkpt lat="44.74349" lon="5.62936">
        <ele>1766.08</ele>
        <time>2011-11-19T14:10:38Z</time>
      </trkpt>
      <trkpt lat="44.74349" lon="5.62936">
        <ele>1766.56</ele>
        <time>2011-11-19T14:11:00Z</time>
      </trkpt>
      <trkpt lat="44.74353" lon="5.6294">
        <ele>1765.6</ele>
        <time>2011-11-19T14:11:13Z</time>
      </trkpt>
      <trkpt lat="44.74365" lon="5.62939">
        <ele>1765.12</ele>
        <time>2011-11-19T14:11:26Z</time>
      </trkpt>
      <trkpt lat="44.74368" lon="5.62938">
        <ele>1764.64</ele>
        <time>2011-11-19T14:11:30Z</time>
      </trkpt>
      <trkpt lat="44.74378" lon="5.62937">
        <ele>1764.64</ele>
        <time>2011-11-19T14:11:41Z</time>
      </trkpt>
      <trkpt lat="44.74381" lon="5.62935">
        <ele>1765.12</ele>
        <time>2011-11-19T14:11:45Z</time>
      </trkpt>
      <trkpt lat="44.74393" lon="5.62932">
        <ele>1765.6</ele>
        <time>2011-11-19T14:11:59Z</time>
      </trkpt>
      <trkpt lat="44.74406" lon="5.6293">
        <ele>1766.08</ele>
        <time>2011-11-19T14:12:13Z</time>
      </trkpt>
      <trkpt lat="44.74409" lon="5.62929">
        <ele>1766.08</ele>
        <time>2011-11-19T14:12:17Z</time>
      </trkpt>
      <trkpt lat="44.74413" lon="5.6293">
        <ele>1765.6</ele>
        <time>2011-11-19T14:12:20Z</time>
      </trkpt>
      <trkpt lat="44.74415" lon="5.6293">
        <ele>1765.6</ele>
        <time>2011-11-19T14:12:22Z</time>
      </trkpt>
      <trkpt lat="44.74428" lon="5.62926">
        <ele>1765.6</ele>
        <time>2011-11-19T14:12:35Z</time>
      </trkpt>
      <trkpt lat="44.74437" lon="5.62928">
        <ele>1764.16</ele>
        <time>2011-11-19T14:12:47Z</time>
      </trkpt>
      <trkpt lat="44.7444" lon="5.62926">
        <ele>1761.27</ele>
        <time>2011-11-19T14:12:52Z</time>
      </trkpt>
      <trkpt lat="44.7444" lon="5.62926">
        <ele>1761.27</ele>
        <time>2011-11-19T14:12:53Z</time>
      </trkpt>
      <trkpt lat="44.7444" lon="5.62926">
        <ele>1764.64</ele>
        <time>2011-11-19T14:12:54Z</time>
      </trkpt>
      <trkpt lat="44.74441" lon="5.62925">
        <ele>1763.68</ele>
        <time>2011-11-19T14:12:55Z</time>
      </trkpt>
      <trkpt lat="44.7444" lon="5.62927">
        <ele>1762.71</ele>
        <time>2011-11-19T14:13:09Z</time>
      </trkpt>
      <trkpt lat="44.74441" lon="5.62926">
        <ele>1763.2</ele>
        <time>2011-11-19T14:13:10Z</time>
      </trkpt>
      <trkpt lat="44.74443" lon="5.62924">
        <ele>1765.12</ele>
        <time>2011-11-19T14:13:15Z</time>
      </trkpt>
      <trkpt lat="44.74453" lon="5.62922">
        <ele>1761.27</ele>
        <time>2011-11-19T14:13:25Z</time>
      </trkpt>
      <trkpt lat="44.74458" lon="5.62922">
        <ele>1759.35</ele>
        <time>2011-11-19T14:13:32Z</time>
      </trkpt>
      <trkpt lat="44.7446" lon="5.62923">
        <ele>1758.87</ele>
        <time>2011-11-19T14:13:34Z</time>
      </trkpt>
      <trkpt lat="44.74468" lon="5.62919">
        <ele>1757.43</ele>
        <time>2011-11-19T14:13:43Z</time>
      </trkpt>
      <trkpt lat="44.74474" lon="5.6292">
        <ele>1756.47</ele>
        <time>2011-11-19T14:13:49Z</time>
      </trkpt>
      <trkpt lat="44.74479" lon="5.62918">
        <ele>1755.99</ele>
        <time>2011-11-19T14:13:53Z</time>
      </trkpt>
      <trkpt lat="44.74491" lon="5.62914">
        <ele>1751.66</ele>
        <time>2011-11-19T14:14:04Z</time>
      </trkpt>
      <trkpt lat="44.74492" lon="5.62914">
        <ele>1753.58</ele>
        <time>2011-11-19T14:14:05Z</time>
      </trkpt>
      <trkpt lat="44.74504" lon="5.62913">
        <ele>1752.62</ele>
        <time>2011-11-19T14:14:17Z</time>
      </trkpt>
      <trkpt lat="44.74518" lon="5.62914">
        <ele>1751.18</ele>
        <time>2011-11-19T14:14:30Z</time>
      </trkpt>
      <trkpt lat="44.74521" lon="5.62915">
        <ele>1750.22</ele>
        <time>2011-11-19T14:14:43Z</time>
      </trkpt>
      <trkpt lat="44.74532" lon="5.62914">
        <ele>1750.7</ele>
        <time>2011-11-19T14:14:53Z</time>
      </trkpt>
      <trkpt lat="44.74535" lon="5.62914">
        <ele>1750.7</ele>
        <time>2011-11-19T14:14:56Z</time>
      </trkpt>
      <trkpt lat="44.74545" lon="5.62914">
        <ele>1751.18</ele>
        <time>2011-11-19T14:15:05Z</time>
      </trkpt>
      <trkpt lat="44.74549" lon="5.62914">
        <ele>1751.18</ele>
        <time>2011-11-19T14:15:09Z</time>
      </trkpt>
      <trkpt lat="44.74554" lon="5.62913">
        <ele>1751.18</ele>
        <time>2011-11-19T14:15:14Z</time>
      </trkpt>
      <trkpt lat="44.74562" lon="5.62911">
        <ele>1752.62</ele>
        <time>2011-11-19T14:15:21Z</time>
      </trkpt>
      <trkpt lat="44.74569" lon="5.62913">
        <ele>1754.06</ele>
        <time>2011-11-19T14:15:31Z</time>
      </trkpt>
      <trkpt lat="44.74571" lon="5.62913">
        <ele>1753.58</ele>
        <time>2011-11-19T14:15:33Z</time>
      </trkpt>
      <trkpt lat="44.74572" lon="5.62913">
        <ele>1753.58</ele>
        <time>2011-11-19T14:15:35Z</time>
      </trkpt>
      <trkpt lat="44.7458" lon="5.6291">
        <ele>1754.06</ele>
        <time>2011-11-19T14:15:43Z</time>
      </trkpt>
      <trkpt lat="44.74586" lon="5.62908">
        <ele>1754.06</ele>
        <time>2011-11-19T14:15:48Z</time>
      </trkpt>
      <trkpt lat="44.74587" lon="5.62908">
        <ele>1754.06</ele>
        <time>2011-11-19T14:15:50Z</time>
      </trkpt>
      <trkpt lat="44.74592" lon="5.62904">
        <ele>1753.58</ele>
        <time>2011-11-19T14:15:53Z</time>
      </trkpt>
      <trkpt lat="44.74596" lon="5.62904">
        <ele>1754.54</ele>
        <time>2011-11-19T14:15:57Z</time>
      </trkpt>
      <trkpt lat="44.74606" lon="5.62903">
        <ele>1753.58</ele>
        <time>2011-11-19T14:16:09Z</time>
      </trkpt>
      <trkpt lat="44.74621" lon="5.62893">
        <ele>1751.66</ele>
        <time>2011-11-19T14:16:21Z</time>
      </trkpt>
      <trkpt lat="44.74629" lon="5.62891">
        <ele>1750.7</ele>
        <time>2011-11-19T14:16:31Z</time>
      </trkpt>
      <trkpt lat="44.74637" lon="5.62887">
        <ele>1748.78</ele>
        <time>2011-11-19T14:16:41Z</time>
      </trkpt>
      <trkpt lat="44.74635" lon="5.62888">
        <ele>1748.29</ele>
        <time>2011-11-19T14:16:54Z</time>
      </trkpt>
      <trkpt lat="44.74635" lon="5.62888">
        <ele>1750.22</ele>
        <time>2011-11-19T14:17:19Z</time>
      </trkpt>
      <trkpt lat="44.74632" lon="5.62886">
        <ele>1747.81</ele>
        <time>2011-11-19T14:17:24Z</time>
      </trkpt>
      <trkpt lat="44.74631" lon="5.62885">
        <ele>1748.78</ele>
        <time>2011-11-19T14:17:31Z</time>
      </trkpt>
      <trkpt lat="44.74634" lon="5.6288">
        <ele>1743.49</ele>
        <time>2011-11-19T14:17:36Z</time>
      </trkpt>
      <trkpt lat="44.74633" lon="5.6288">
        <ele>1742.53</ele>
        <time>2011-11-19T14:17:38Z</time>
      </trkpt>
      <trkpt lat="44.74632" lon="5.6288">
        <ele>1737.24</ele>
        <time>2011-11-19T14:17:40Z</time>
      </trkpt>
      <trkpt lat="44.74632" lon="5.62879">
        <ele>1743.49</ele>
        <time>2011-11-19T14:17:41Z</time>
      </trkpt>
      <trkpt lat="44.7463" lon="5.62877">
        <ele>1742.05</ele>
        <time>2011-11-19T14:17:42Z</time>
      </trkpt>
      <trkpt lat="44.74626" lon="5.62872">
        <ele>1741.57</ele>
        <time>2011-11-19T14:17:54Z</time>
      </trkpt>
      <trkpt lat="44.74621" lon="5.62865">
        <ele>1736.28</ele>
        <time>2011-11-19T14:18:00Z</time>
      </trkpt>
      <trkpt lat="44.74619" lon="5.62863">
        <ele>1732.91</ele>
        <time>2011-11-19T14:18:03Z</time>
      </trkpt>
      <trkpt lat="44.74616" lon="5.62859">
        <ele>1735.32</ele>
        <time>2011-11-19T14:18:08Z</time>
      </trkpt>
      <trkpt lat="44.7461" lon="5.62853">
        <ele>1732.43</ele>
        <time>2011-11-19T14:18:16Z</time>
      </trkpt>
      <trkpt lat="44.74608" lon="5.62852">
        <ele>1731.47</ele>
        <time>2011-11-19T14:18:18Z</time>
      </trkpt>
      <trkpt lat="44.74607" lon="5.62851">
        <ele>1726.18</ele>
        <time>2011-11-19T14:18:20Z</time>
      </trkpt>
      <trkpt lat="44.74607" lon="5.6285">
        <ele>1732.43</ele>
        <time>2011-11-19T14:18:21Z</time>
      </trkpt>
      <trkpt lat="44.74607" lon="5.62849">
        <ele>1726.18</ele>
        <time>2011-11-19T14:18:31Z</time>
      </trkpt>
      <trkpt lat="44.74607" lon="5.62849">
        <ele>1732.91</ele>
        <time>2011-11-19T14:18:32Z</time>
      </trkpt>
      <trkpt lat="44.74607" lon="5.62849">
        <ele>1732.91</ele>
        <time>2011-11-19T14:18:33Z</time>
      </trkpt>
      <trkpt lat="44.74606" lon="5.62849">
        <ele>1727.63</ele>
        <time>2011-11-19T14:18:35Z</time>
      </trkpt>
      <trkpt lat="44.74606" lon="5.62848">
        <ele>1724.74</ele>
        <time>2011-11-19T14:18:36Z</time>
      </trkpt>
      <trkpt lat="44.74605" lon="5.62847">
        <ele>1725.22</ele>
        <time>2011-11-19T14:18:37Z</time>
      </trkpt>
      <trkpt lat="44.74604" lon="5.62847">
        <ele>1732.91</ele>
        <time>2011-11-19T14:18:38Z</time>
      </trkpt>
      <trkpt lat="44.74603" lon="5.62846">
        <ele>1731.95</ele>
        <time>2011-11-19T14:18:39Z</time>
      </trkpt>
      <trkpt lat="44.74602" lon="5.62845">
        <ele>1727.15</ele>
        <time>2011-11-19T14:18:41Z</time>
      </trkpt>
      <trkpt lat="44.74601" lon="5.62844">
        <ele>1730.51</ele>
        <time>2011-11-19T14:18:42Z</time>
      </trkpt>
      <trkpt lat="44.74592" lon="5.62838">
        <ele>1728.11</ele>
        <time>2011-11-19T14:18:50Z</time>
      </trkpt>
      <trkpt lat="44.74588" lon="5.62836">
        <ele>1726.18</ele>
        <time>2011-11-19T14:18:54Z</time>
      </trkpt>
      <trkpt lat="44.74581" lon="5.62832">
        <ele>1725.22</ele>
        <time>2011-11-19T14:19:03Z</time>
      </trkpt>
      <trkpt lat="44.74576" lon="5.62831">
        <ele>1724.74</ele>
        <time>2011-11-19T14:19:07Z</time>
      </trkpt>
      <trkpt lat="44.74561" lon="5.62831">
        <ele>1721.86</ele>
        <time>2011-11-19T14:19:20Z</time>
      </trkpt>
      <trkpt lat="44.7456" lon="5.62831">
        <ele>1721.86</ele>
        <time>2011-11-19T14:19:21Z</time>
      </trkpt>
      <trkpt lat="44.74556" lon="5.6283">
        <ele>1720.42</ele>
        <time>2011-11-19T14:19:25Z</time>
      </trkpt>
      <trkpt lat="44.7455" lon="5.62829">
        <ele>1719.94</ele>
        <time>2011-11-19T14:19:30Z</time>
      </trkpt>
      <trkpt lat="44.74545" lon="5.62829">
        <ele>1718.49</ele>
        <time>2011-11-19T14:19:35Z</time>
      </trkpt>
      <trkpt lat="44.74539" lon="5.62834">
        <ele>1716.57</ele>
        <time>2011-11-19T14:19:45Z</time>
      </trkpt>
      <trkpt lat="44.74538" lon="5.62834">
        <ele>1716.57</ele>
        <time>2011-11-19T14:19:47Z</time>
      </trkpt>
      <trkpt lat="44.74537" lon="5.62827">
        <ele>1715.13</ele>
        <time>2011-11-19T14:19:52Z</time>
      </trkpt>
      <trkpt lat="44.74536" lon="5.62826">
        <ele>1714.65</ele>
        <time>2011-11-19T14:20:10Z</time>
      </trkpt>
      <trkpt lat="44.74533" lon="5.62821">
        <ele>1714.65</ele>
        <time>2011-11-19T14:20:13Z</time>
      </trkpt>
      <trkpt lat="44.74529" lon="5.62822">
        <ele>1713.21</ele>
        <time>2011-11-19T14:20:21Z</time>
      </trkpt>
      <trkpt lat="44.74525" lon="5.6282">
        <ele>1712.73</ele>
        <time>2011-11-19T14:20:24Z</time>
      </trkpt>
      <trkpt lat="44.74509" lon="5.62802">
        <ele>1710.8</ele>
        <time>2011-11-19T14:20:39Z</time>
      </trkpt>
      <trkpt lat="44.74504" lon="5.62797">
        <ele>1707.44</ele>
        <time>2011-11-19T14:20:50Z</time>
      </trkpt>
      <trkpt lat="44.745" lon="5.62794">
        <ele>1711.76</ele>
        <time>2011-11-19T14:20:54Z</time>
      </trkpt>
      <trkpt lat="44.74499" lon="5.62793">
        <ele>1709.84</ele>
        <time>2011-11-19T14:20:55Z</time>
      </trkpt>
      <trkpt lat="44.74498" lon="5.62793">
        <ele>1706</ele>
        <time>2011-11-19T14:20:57Z</time>
      </trkpt>
      <trkpt lat="44.74498" lon="5.62793">
        <ele>1706.96</ele>
        <time>2011-11-19T14:21:16Z</time>
      </trkpt>
      <trkpt lat="44.74494" lon="5.62786">
        <ele>1705.04</ele>
        <time>2011-11-19T14:21:24Z</time>
      </trkpt>
      <trkpt lat="44.74485" lon="5.6278">
        <ele>1702.15</ele>
        <time>2011-11-19T14:21:37Z</time>
      </trkpt>
      <trkpt lat="44.74483" lon="5.62778">
        <ele>1701.19</ele>
        <time>2011-11-19T14:21:40Z</time>
      </trkpt>
      <trkpt lat="44.74481" lon="5.62776">
        <ele>1700.71</ele>
        <time>2011-11-19T14:21:43Z</time>
      </trkpt>
      <trkpt lat="44.74473" lon="5.62769">
        <ele>1699.27</ele>
        <time>2011-11-19T14:21:53Z</time>
      </trkpt>
      <trkpt lat="44.74468" lon="5.62766">
        <ele>1697.34</ele>
        <time>2011-11-19T14:21:59Z</time>
      </trkpt>
      <trkpt lat="44.74466" lon="5.62765">
        <ele>1696.86</ele>
        <time>2011-11-19T14:22:01Z</time>
      </trkpt>
      <trkpt lat="44.74464" lon="5.62764">
        <ele>1696.38</ele>
        <time>2011-11-19T14:22:03Z</time>
      </trkpt>
      <trkpt lat="44.74458" lon="5.6276">
        <ele>1694.46</ele>
        <time>2011-11-19T14:22:10Z</time>
      </trkpt>
      <trkpt lat="44.74458" lon="5.62759">
        <ele>1693.02</ele>
        <time>2011-11-19T14:22:20Z</time>
      </trkpt>
      <trkpt lat="44.74458" lon="5.6276">
        <ele>1694.46</ele>
        <time>2011-11-19T14:22:40Z</time>
      </trkpt>
      <trkpt lat="44.74456" lon="5.62758">
        <ele>1694.46</ele>
        <time>2011-11-19T14:23:03Z</time>
      </trkpt>
      <trkpt lat="44.74451" lon="5.62752">
        <ele>1692.54</ele>
        <time>2011-11-19T14:23:09Z</time>
      </trkpt>
      <trkpt lat="44.74444" lon="5.62746">
        <ele>1690.14</ele>
        <time>2011-11-19T14:23:22Z</time>
      </trkpt>
      <trkpt lat="44.74435" lon="5.62736">
        <ele>1685.81</ele>
        <time>2011-11-19T14:23:37Z</time>
      </trkpt>
      <trkpt lat="44.74431" lon="5.6273">
        <ele>1682.93</ele>
        <time>2011-11-19T14:23:44Z</time>
      </trkpt>
      <trkpt lat="44.7443" lon="5.62729">
        <ele>1682.44</ele>
        <time>2011-11-19T14:23:45Z</time>
      </trkpt>
      <trkpt lat="44.74427" lon="5.62715">
        <ele>1679.56</ele>
        <time>2011-11-19T14:23:58Z</time>
      </trkpt>
      <trkpt lat="44.74427" lon="5.62713">
        <ele>1678.6</ele>
        <time>2011-11-19T14:24:00Z</time>
      </trkpt>
      <trkpt lat="44.74426" lon="5.62711">
        <ele>1677.64</ele>
        <time>2011-11-19T14:24:02Z</time>
      </trkpt>
      <trkpt lat="44.74423" lon="5.62708">
        <ele>1675.72</ele>
        <time>2011-11-19T14:24:09Z</time>
      </trkpt>
      <trkpt lat="44.74422" lon="5.62697">
        <ele>1672.35</ele>
        <time>2011-11-19T14:24:18Z</time>
      </trkpt>
      <trkpt lat="44.7442" lon="5.6269">
        <ele>1670.43</ele>
        <time>2011-11-19T14:24:31Z</time>
      </trkpt>
      <trkpt lat="44.74419" lon="5.62687">
        <ele>1669.47</ele>
        <time>2011-11-19T14:24:50Z</time>
      </trkpt>
      <trkpt lat="44.74416" lon="5.62683">
        <ele>1668.02</ele>
        <time>2011-11-19T14:24:54Z</time>
      </trkpt>
      <trkpt lat="44.74413" lon="5.62678">
        <ele>1667.06</ele>
        <time>2011-11-19T14:24:58Z</time>
      </trkpt>
      <trkpt lat="44.74406" lon="5.6267">
        <ele>1664.66</ele>
        <time>2011-11-19T14:25:10Z</time>
      </trkpt>
      <trkpt lat="44.74407" lon="5.62665">
        <ele>1663.22</ele>
        <time>2011-11-19T14:25:15Z</time>
      </trkpt>
      <trkpt lat="44.74408" lon="5.62664">
        <ele>1662.26</ele>
        <time>2011-11-19T14:25:16Z</time>
      </trkpt>
      <trkpt lat="44.74406" lon="5.62646">
        <ele>1658.89</ele>
        <time>2011-11-19T14:25:29Z</time>
      </trkpt>
      <trkpt lat="44.74406" lon="5.6264">
        <ele>1655.53</ele>
        <time>2011-11-19T14:25:36Z</time>
      </trkpt>
      <trkpt lat="44.74403" lon="5.62637">
        <ele>1655.53</ele>
        <time>2011-11-19T14:25:41Z</time>
      </trkpt>
      <trkpt lat="44.74399" lon="5.6263">
        <ele>1653.12</ele>
        <time>2011-11-19T14:25:49Z</time>
      </trkpt>
      <trkpt lat="44.74399" lon="5.62628">
        <ele>1653.12</ele>
        <time>2011-11-19T14:25:51Z</time>
      </trkpt>
      <trkpt lat="44.74394" lon="5.62616">
        <ele>1649.28</ele>
        <time>2011-11-19T14:26:03Z</time>
      </trkpt>
      <trkpt lat="44.74389" lon="5.62606">
        <ele>1646.4</ele>
        <time>2011-11-19T14:26:15Z</time>
      </trkpt>
      <trkpt lat="44.74383" lon="5.62595">
        <ele>1643.99</ele>
        <time>2011-11-19T14:26:27Z</time>
      </trkpt>
      <trkpt lat="44.7438" lon="5.6259">
        <ele>1640.63</ele>
        <time>2011-11-19T14:26:33Z</time>
      </trkpt>
      <trkpt lat="44.74379" lon="5.62588">
        <ele>1639.67</ele>
        <time>2011-11-19T14:26:35Z</time>
      </trkpt>
      <trkpt lat="44.74378" lon="5.62586">
        <ele>1639.67</ele>
        <time>2011-11-19T14:26:37Z</time>
      </trkpt>
      <trkpt lat="44.74377" lon="5.62584">
        <ele>1639.67</ele>
        <time>2011-11-19T14:26:39Z</time>
      </trkpt>
      <trkpt lat="44.74373" lon="5.62579">
        <ele>1639.19</ele>
        <time>2011-11-19T14:26:44Z</time>
      </trkpt>
      <trkpt lat="44.74371" lon="5.62572">
        <ele>1637.26</ele>
        <time>2011-11-19T14:26:49Z</time>
      </trkpt>
      <trkpt lat="44.74368" lon="5.62566">
        <ele>1637.74</ele>
        <time>2011-11-19T14:26:54Z</time>
      </trkpt>
      <trkpt lat="44.74364" lon="5.62561">
        <ele>1633.42</ele>
        <time>2011-11-19T14:26:58Z</time>
      </trkpt>
      <trkpt lat="44.74364" lon="5.6256">
        <ele>1633.9</ele>
        <time>2011-11-19T14:26:59Z</time>
      </trkpt>
      <trkpt lat="44.74359" lon="5.62554">
        <ele>1633.42</ele>
        <time>2011-11-19T14:27:05Z</time>
      </trkpt>
      <trkpt lat="44.7435" lon="5.62543">
        <ele>1631.98</ele>
        <time>2011-11-19T14:27:17Z</time>
      </trkpt>
      <trkpt lat="44.74341" lon="5.62533">
        <ele>1630.05</ele>
        <time>2011-11-19T14:27:29Z</time>
      </trkpt>
      <trkpt lat="44.74334" lon="5.6253">
        <ele>1628.61</ele>
        <time>2011-11-19T14:27:36Z</time>
      </trkpt>
      <trkpt lat="44.74326" lon="5.62514">
        <ele>1627.17</ele>
        <time>2011-11-19T14:27:49Z</time>
      </trkpt>
      <trkpt lat="44.74321" lon="5.62501">
        <ele>1625.25</ele>
        <time>2011-11-19T14:27:58Z</time>
      </trkpt>
      <trkpt lat="44.74311" lon="5.62481">
        <ele>1622.84</ele>
        <time>2011-11-19T14:28:12Z</time>
      </trkpt>
      <trkpt lat="44.74304" lon="5.62464">
        <ele>1621.88</ele>
        <time>2011-11-19T14:28:24Z</time>
      </trkpt>
      <trkpt lat="44.74301" lon="5.62457">
        <ele>1621.88</ele>
        <time>2011-11-19T14:28:28Z</time>
      </trkpt>
      <trkpt lat="44.74301" lon="5.62453">
        <ele>1622.36</ele>
        <time>2011-11-19T14:28:30Z</time>
      </trkpt>
      <trkpt lat="44.74295" lon="5.62442">
        <ele>1620.92</ele>
        <time>2011-11-19T14:28:38Z</time>
      </trkpt>
      <trkpt lat="44.74292" lon="5.62437">
        <ele>1620.44</ele>
        <time>2011-11-19T14:28:42Z</time>
      </trkpt>
      <trkpt lat="44.74291" lon="5.62433">
        <ele>1620.44</ele>
        <time>2011-11-19T14:28:44Z</time>
      </trkpt>
      <trkpt lat="44.74286" lon="5.62418">
        <ele>1620.92</ele>
        <time>2011-11-19T14:28:54Z</time>
      </trkpt>
      <trkpt lat="44.74284" lon="5.62414">
        <ele>1620.92</ele>
        <time>2011-11-19T14:28:57Z</time>
      </trkpt>
      <trkpt lat="44.74275" lon="5.62397">
        <ele>1620.92</ele>
        <time>2011-11-19T14:29:09Z</time>
      </trkpt>
      <trkpt lat="44.74271" lon="5.62385">
        <ele>1621.88</ele>
        <time>2011-11-19T14:29:20Z</time>
      </trkpt>
      <trkpt lat="44.7427" lon="5.62383">
        <ele>1622.36</ele>
        <time>2011-11-19T14:29:22Z</time>
      </trkpt>
      <trkpt lat="44.7427" lon="5.62381">
        <ele>1621.88</ele>
        <time>2011-11-19T14:29:24Z</time>
      </trkpt>
      <trkpt lat="44.74269" lon="5.62379">
        <ele>1622.84</ele>
        <time>2011-11-19T14:29:26Z</time>
      </trkpt>
      <trkpt lat="44.74267" lon="5.62374">
        <ele>1625.25</ele>
        <time>2011-11-19T14:29:29Z</time>
      </trkpt>
      <trkpt lat="44.74263" lon="5.62366">
        <ele>1625.25</ele>
        <time>2011-11-19T14:29:36Z</time>
      </trkpt>
      <trkpt lat="44.74261" lon="5.62363">
        <ele>1625.73</ele>
        <time>2011-11-19T14:29:39Z</time>
      </trkpt>
      <trkpt lat="44.74257" lon="5.62358">
        <ele>1626.21</ele>
        <time>2011-11-19T14:29:43Z</time>
      </trkpt>
      <trkpt lat="44.74253" lon="5.62349">
        <ele>1626.21</ele>
        <time>2011-11-19T14:29:53Z</time>
      </trkpt>
      <trkpt lat="44.7425" lon="5.62341">
        <ele>1627.65</ele>
        <time>2011-11-19T14:29:58Z</time>
      </trkpt>
      <trkpt lat="44.74249" lon="5.62338">
        <ele>1628.61</ele>
        <time>2011-11-19T14:30:00Z</time>
      </trkpt>
      <trkpt lat="44.7425" lon="5.62336">
        <ele>1629.09</ele>
        <time>2011-11-19T14:30:10Z</time>
      </trkpt>
      <trkpt lat="44.74249" lon="5.62336">
        <ele>1630.05</ele>
        <time>2011-11-19T14:30:27Z</time>
      </trkpt>
      <trkpt lat="44.74248" lon="5.62334">
        <ele>1628.13</ele>
        <time>2011-11-19T14:30:40Z</time>
      </trkpt>
      <trkpt lat="44.74248" lon="5.62334">
        <ele>1628.13</ele>
        <time>2011-11-19T14:30:53Z</time>
      </trkpt>
      <trkpt lat="44.74248" lon="5.62334">
        <ele>1628.13</ele>
        <time>2011-11-19T14:31:11Z</time>
      </trkpt>
      <trkpt lat="44.74248" lon="5.62334">
        <ele>1628.61</ele>
        <time>2011-11-19T14:31:25Z</time>
      </trkpt>
      <trkpt lat="44.74248" lon="5.62334">
        <ele>1629.09</ele>
        <time>2011-11-19T14:31:44Z</time>
      </trkpt>
      <trkpt lat="44.74248" lon="5.62334">
        <ele>1628.61</ele>
        <time>2011-11-19T14:32:11Z</time>
      </trkpt>
      <trkpt lat="44.74249" lon="5.62334">
        <ele>1628.61</ele>
        <time>2011-11-19T14:32:38Z</time>
      </trkpt>
      <trkpt lat="44.74249" lon="5.62334">
        <ele>1627.65</ele>
        <time>2011-11-19T14:33:02Z</time>
      </trkpt>
      <trkpt lat="44.74248" lon="5.62334">
        <ele>1628.61</ele>
        <time>2011-11-19T14:33:35Z</time>
      </trkpt>
      <trkpt lat="44.74248" lon="5.62334">
        <ele>1627.17</ele>
        <time>2011-11-19T14:34:07Z</time>
      </trkpt>
      <trkpt lat="44.74248" lon="5.62334">
        <ele>1628.13</ele>
        <time>2011-11-19T14:34:30Z</time>
      </trkpt>
      <trkpt lat="44.74249" lon="5.62335">
        <ele>1628.61</ele>
        <time>2011-11-19T14:34:49Z</time>
      </trkpt>
      <trkpt lat="44.74249" lon="5.62335">
        <ele>1628.13</ele>
        <time>2011-11-19T14:35:05Z</time>
      </trkpt>
      <trkpt lat="44.74249" lon="5.62335">
        <ele>1628.61</ele>
        <time>2011-11-19T14:35:29Z</time>
      </trkpt>
      <trkpt lat="44.74249" lon="5.62335">
        <ele>1627.17</ele>
        <time>2011-11-19T14:35:55Z</time>
      </trkpt>
      <trkpt lat="44.74249" lon="5.62335">
        <ele>1627.17</ele>
        <time>2011-11-19T14:36:28Z</time>
      </trkpt>
      <trkpt lat="44.74249" lon="5.62335">
        <ele>1628.61</ele>
        <time>2011-11-19T14:36:41Z</time>
      </trkpt>
      <trkpt lat="44.74249" lon="5.62328">
        <ele>1626.69</ele>
        <time>2011-11-19T14:36:44Z</time>
      </trkpt>
      <trkpt lat="44.74247" lon="5.62325">
        <ele>1627.17</ele>
        <time>2011-11-19T14:36:46Z</time>
      </trkpt>
      <trkpt lat="44.74243" lon="5.62315">
        <ele>1623.8</ele>
        <time>2011-11-19T14:36:52Z</time>
      </trkpt>
      <trkpt lat="44.74242" lon="5.62312">
        <ele>1624.28</ele>
        <time>2011-11-19T14:36:54Z</time>
      </trkpt>
      <trkpt lat="44.74242" lon="5.62309">
        <ele>1622.84</ele>
        <time>2011-11-19T14:36:56Z</time>
      </trkpt>
      <trkpt lat="44.74231" lon="5.62295">
        <ele>1621.4</ele>
        <time>2011-11-19T14:37:09Z</time>
      </trkpt>
      <trkpt lat="44.74227" lon="5.62291">
        <ele>1621.4</ele>
        <time>2011-11-19T14:37:13Z</time>
      </trkpt>
      <trkpt lat="44.74219" lon="5.6229">
        <ele>1623.8</ele>
        <time>2011-11-19T14:37:23Z</time>
      </trkpt>
      <trkpt lat="44.74217" lon="5.6229">
        <ele>1624.28</ele>
        <time>2011-11-19T14:37:26Z</time>
      </trkpt>
      <trkpt lat="44.74214" lon="5.62294">
        <ele>1624.77</ele>
        <time>2011-11-19T14:37:28Z</time>
      </trkpt>
      <trkpt lat="44.74209" lon="5.62298">
        <ele>1624.77</ele>
        <time>2011-11-19T14:37:32Z</time>
      </trkpt>
      <trkpt lat="44.74199" lon="5.62307">
        <ele>1623.8</ele>
        <time>2011-11-19T14:37:42Z</time>
      </trkpt>
      <trkpt lat="44.74197" lon="5.6231">
        <ele>1623.8</ele>
        <time>2011-11-19T14:37:44Z</time>
      </trkpt>
      <trkpt lat="44.74193" lon="5.62317">
        <ele>1624.28</ele>
        <time>2011-11-19T14:37:49Z</time>
      </trkpt>
      <trkpt lat="44.74191" lon="5.62322">
        <ele>1624.77</ele>
        <time>2011-11-19T14:37:52Z</time>
      </trkpt>
      <trkpt lat="44.74188" lon="5.62325">
        <ele>1625.73</ele>
        <time>2011-11-19T14:37:57Z</time>
      </trkpt>
      <trkpt lat="44.74184" lon="5.62327">
        <ele>1625.73</ele>
        <time>2011-11-19T14:38:00Z</time>
      </trkpt>
      <trkpt lat="44.7418" lon="5.62327">
        <ele>1626.69</ele>
        <time>2011-11-19T14:38:04Z</time>
      </trkpt>
      <trkpt lat="44.74177" lon="5.62328">
        <ele>1627.65</ele>
        <time>2011-11-19T14:38:06Z</time>
      </trkpt>
      <trkpt lat="44.74173" lon="5.62332">
        <ele>1627.17</ele>
        <time>2011-11-19T14:38:11Z</time>
      </trkpt>
      <trkpt lat="44.74161" lon="5.62339">
        <ele>1625.73</ele>
        <time>2011-11-19T14:38:22Z</time>
      </trkpt>
      <trkpt lat="44.7415" lon="5.62346">
        <ele>1622.36</ele>
        <time>2011-11-19T14:38:33Z</time>
      </trkpt>
      <trkpt lat="44.74149" lon="5.62352">
        <ele>1619.96</ele>
        <time>2011-11-19T14:38:38Z</time>
      </trkpt>
      <trkpt lat="44.74148" lon="5.62359">
        <ele>1617.56</ele>
        <time>2011-11-19T14:38:48Z</time>
      </trkpt>
      <trkpt lat="44.74147" lon="5.62359">
        <ele>1617.07</ele>
        <time>2011-11-19T14:38:51Z</time>
      </trkpt>
      <trkpt lat="44.74136" lon="5.62374">
        <ele>1614.19</ele>
        <time>2011-11-19T14:39:02Z</time>
      </trkpt>
      <trkpt lat="44.74129" lon="5.6238">
        <ele>1610.83</ele>
        <time>2011-11-19T14:39:11Z</time>
      </trkpt>
      <trkpt lat="44.74127" lon="5.62382">
        <ele>1609.86</ele>
        <time>2011-11-19T14:39:13Z</time>
      </trkpt>
      <trkpt lat="44.74123" lon="5.62385">
        <ele>1609.38</ele>
        <time>2011-11-19T14:39:16Z</time>
      </trkpt>
      <trkpt lat="44.7412" lon="5.62392">
        <ele>1606.98</ele>
        <time>2011-11-19T14:39:22Z</time>
      </trkpt>
      <trkpt lat="44.74119" lon="5.62399">
        <ele>1605.06</ele>
        <time>2011-11-19T14:39:27Z</time>
      </trkpt>
      <trkpt lat="44.74115" lon="5.62406">
        <ele>1602.17</ele>
        <time>2011-11-19T14:39:36Z</time>
      </trkpt>
      <trkpt lat="44.74114" lon="5.62407">
        <ele>1601.69</ele>
        <time>2011-11-19T14:39:37Z</time>
      </trkpt>
      <trkpt lat="44.74112" lon="5.62409">
        <ele>1601.69</ele>
        <time>2011-11-19T14:39:39Z</time>
      </trkpt>
      <trkpt lat="44.74107" lon="5.62418">
        <ele>1600.25</ele>
        <time>2011-11-19T14:39:42Z</time>
      </trkpt>
      <trkpt lat="44.741" lon="5.62429">
        <ele>1596.89</ele>
        <time>2011-11-19T14:39:52Z</time>
      </trkpt>
      <trkpt lat="44.74098" lon="5.62432">
        <ele>1595.45</ele>
        <time>2011-11-19T14:39:56Z</time>
      </trkpt>
      <trkpt lat="44.74087" lon="5.6244">
        <ele>1593.04</ele>
        <time>2011-11-19T14:40:09Z</time>
      </trkpt>
      <trkpt lat="44.74079" lon="5.62455">
        <ele>1590.64</ele>
        <time>2011-11-19T14:40:21Z</time>
      </trkpt>
      <trkpt lat="44.74065" lon="5.62467">
        <ele>1587.75</ele>
        <time>2011-11-19T14:40:35Z</time>
      </trkpt>
      <trkpt lat="44.74056" lon="5.62459">
        <ele>1584.87</ele>
        <time>2011-11-19T14:40:50Z</time>
      </trkpt>
      <trkpt lat="44.74052" lon="5.62469">
        <ele>1582.95</ele>
        <time>2011-11-19T14:41:02Z</time>
      </trkpt>
      <trkpt lat="44.74047" lon="5.62472">
        <ele>1581.99</ele>
        <time>2011-11-19T14:41:08Z</time>
      </trkpt>
      <trkpt lat="44.74032" lon="5.6249">
        <ele>1579.58</ele>
        <time>2011-11-19T14:41:19Z</time>
      </trkpt>
      <trkpt lat="44.74022" lon="5.62495">
        <ele>1576.22</ele>
        <time>2011-11-19T14:41:28Z</time>
      </trkpt>
      <trkpt lat="44.74017" lon="5.62503">
        <ele>1572.37</ele>
        <time>2011-11-19T14:41:36Z</time>
      </trkpt>
      <trkpt lat="44.74014" lon="5.62506">
        <ele>1570.45</ele>
        <time>2011-11-19T14:41:47Z</time>
      </trkpt>
      <trkpt lat="44.74004" lon="5.62511">
        <ele>1567.57</ele>
        <time>2011-11-19T14:41:59Z</time>
      </trkpt>
      <trkpt lat="44.74002" lon="5.62514">
        <ele>1567.57</ele>
        <time>2011-11-19T14:42:01Z</time>
      </trkpt>
      <trkpt lat="44.73995" lon="5.62516">
        <ele>1566.12</ele>
        <time>2011-11-19T14:42:09Z</time>
      </trkpt>
      <trkpt lat="44.7399" lon="5.62517">
        <ele>1565.64</ele>
        <time>2011-11-19T14:42:11Z</time>
      </trkpt>
      <trkpt lat="44.73984" lon="5.62516">
        <ele>1564.2</ele>
        <time>2011-11-19T14:42:14Z</time>
      </trkpt>
      <trkpt lat="44.73981" lon="5.62516">
        <ele>1563.72</ele>
        <time>2011-11-19T14:42:15Z</time>
      </trkpt>
      <trkpt lat="44.73964" lon="5.6252">
        <ele>1559.88</ele>
        <time>2011-11-19T14:42:25Z</time>
      </trkpt>
      <trkpt lat="44.7396" lon="5.6252">
        <ele>1557.95</ele>
        <time>2011-11-19T14:42:27Z</time>
      </trkpt>
      <trkpt lat="44.73942" lon="5.62519">
        <ele>1555.55</ele>
        <time>2011-11-19T14:42:36Z</time>
      </trkpt>
      <trkpt lat="44.73941" lon="5.62519">
        <ele>1554.59</ele>
        <time>2011-11-19T14:42:38Z</time>
      </trkpt>
      <trkpt lat="44.73937" lon="5.62519">
        <ele>1552.67</ele>
        <time>2011-11-19T14:42:43Z</time>
      </trkpt>
      <trkpt lat="44.73932" lon="5.62521">
        <ele>1550.74</ele>
        <time>2011-11-19T14:42:49Z</time>
      </trkpt>
      <trkpt lat="44.73924" lon="5.6252">
        <ele>1547.86</ele>
        <time>2011-11-19T14:42:57Z</time>
      </trkpt>
      <trkpt lat="44.7392" lon="5.62519">
        <ele>1544.98</ele>
        <time>2011-11-19T14:43:03Z</time>
      </trkpt>
      <trkpt lat="44.73919" lon="5.62519">
        <ele>1542.57</ele>
        <time>2011-11-19T14:43:07Z</time>
      </trkpt>
      <trkpt lat="44.73916" lon="5.62518">
        <ele>1541.61</ele>
        <time>2011-11-19T14:43:09Z</time>
      </trkpt>
      <trkpt lat="44.73903" lon="5.62514">
        <ele>1539.21</ele>
        <time>2011-11-19T14:43:19Z</time>
      </trkpt>
      <trkpt lat="44.73892" lon="5.62513">
        <ele>1537.29</ele>
        <time>2011-11-19T14:43:24Z</time>
      </trkpt>
      <trkpt lat="44.73887" lon="5.62513">
        <ele>1535.84</ele>
        <time>2011-11-19T14:43:28Z</time>
      </trkpt>
      <trkpt lat="44.7388" lon="5.62513">
        <ele>1533.92</ele>
        <time>2011-11-19T14:43:31Z</time>
      </trkpt>
      <trkpt lat="44.73878" lon="5.62512">
        <ele>1533.92</ele>
        <time>2011-11-19T14:43:32Z</time>
      </trkpt>
      <trkpt lat="44.73871" lon="5.62513">
        <ele>1530.08</ele>
        <time>2011-11-19T14:43:40Z</time>
      </trkpt>
      <trkpt lat="44.73864" lon="5.62514">
        <ele>1527.19</ele>
        <time>2011-11-19T14:43:49Z</time>
      </trkpt>
      <trkpt lat="44.73863" lon="5.62514">
        <ele>1525.27</ele>
        <time>2011-11-19T14:43:57Z</time>
      </trkpt>
      <trkpt lat="44.73848" lon="5.6251">
        <ele>1524.79</ele>
        <time>2011-11-19T14:44:01Z</time>
      </trkpt>
      <trkpt lat="44.73829" lon="5.62508">
        <ele>1520.46</ele>
        <time>2011-11-19T14:44:09Z</time>
      </trkpt>
      <trkpt lat="44.73822" lon="5.625">
        <ele>1519.5</ele>
        <time>2011-11-19T14:44:23Z</time>
      </trkpt>
      <trkpt lat="44.7382" lon="5.62503">
        <ele>1517.1</ele>
        <time>2011-11-19T14:44:30Z</time>
      </trkpt>
      <trkpt lat="44.73809" lon="5.62497">
        <ele>1515.66</ele>
        <time>2011-11-19T14:44:38Z</time>
      </trkpt>
      <trkpt lat="44.73808" lon="5.62499">
        <ele>1514.69</ele>
        <time>2011-11-19T14:44:42Z</time>
      </trkpt>
      <trkpt lat="44.73792" lon="5.62496">
        <ele>1510.37</ele>
        <time>2011-11-19T14:44:54Z</time>
      </trkpt>
      <trkpt lat="44.73789" lon="5.62496">
        <ele>1508.45</ele>
        <time>2011-11-19T14:45:01Z</time>
      </trkpt>
      <trkpt lat="44.73789" lon="5.62496">
        <ele>1511.81</ele>
        <time>2011-11-19T14:45:03Z</time>
      </trkpt>
      <trkpt lat="44.73787" lon="5.62495">
        <ele>1507.97</ele>
        <time>2011-11-19T14:45:05Z</time>
      </trkpt>
      <trkpt lat="44.73785" lon="5.62494">
        <ele>1507.97</ele>
        <time>2011-11-19T14:45:10Z</time>
      </trkpt>
      <trkpt lat="44.7378" lon="5.62496">
        <ele>1506.52</ele>
        <time>2011-11-19T14:45:15Z</time>
      </trkpt>
      <trkpt lat="44.73775" lon="5.62496">
        <ele>1511.33</ele>
        <time>2011-11-19T14:45:20Z</time>
      </trkpt>
      <trkpt lat="44.73774" lon="5.62496">
        <ele>1506.04</ele>
        <time>2011-11-19T14:45:21Z</time>
      </trkpt>
      <trkpt lat="44.73774" lon="5.62496">
        <ele>1504.12</ele>
        <time>2011-11-19T14:45:22Z</time>
      </trkpt>
      <trkpt lat="44.7377" lon="5.62494">
        <ele>1502.68</ele>
        <time>2011-11-19T14:45:26Z</time>
      </trkpt>
      <trkpt lat="44.73767" lon="5.62495">
        <ele>1501.24</ele>
        <time>2011-11-19T14:45:30Z</time>
      </trkpt>
      <trkpt lat="44.73763" lon="5.62499">
        <ele>1498.83</ele>
        <time>2011-11-19T14:45:34Z</time>
      </trkpt>
      <trkpt lat="44.73756" lon="5.62502">
        <ele>1496.91</ele>
        <time>2011-11-19T14:45:40Z</time>
      </trkpt>
      <trkpt lat="44.73748" lon="5.62501">
        <ele>1494.51</ele>
        <time>2011-11-19T14:45:54Z</time>
      </trkpt>
      <trkpt lat="44.73745" lon="5.62503">
        <ele>1493.55</ele>
        <time>2011-11-19T14:46:06Z</time>
      </trkpt>
      <trkpt lat="44.73737" lon="5.62507">
        <ele>1490.66</ele>
        <time>2011-11-19T14:46:16Z</time>
      </trkpt>
      <trkpt lat="44.73731" lon="5.62508">
        <ele>1488.26</ele>
        <time>2011-11-19T14:46:21Z</time>
      </trkpt>
      <trkpt lat="44.73728" lon="5.62511">
        <ele>1484.89</ele>
        <time>2011-11-19T14:46:32Z</time>
      </trkpt>
      <trkpt lat="44.7372" lon="5.62513">
        <ele>1483.45</ele>
        <time>2011-11-19T14:46:44Z</time>
      </trkpt>
      <trkpt lat="44.73718" lon="5.62514">
        <ele>1482.01</ele>
        <time>2011-11-19T14:46:51Z</time>
      </trkpt>
      <trkpt lat="44.73715" lon="5.62515">
        <ele>1481.05</ele>
        <time>2011-11-19T14:46:54Z</time>
      </trkpt>
      <trkpt lat="44.73706" lon="5.62513">
        <ele>1477.2</ele>
        <time>2011-11-19T14:47:04Z</time>
      </trkpt>
      <trkpt lat="44.73704" lon="5.62513">
        <ele>1476.24</ele>
        <time>2011-11-19T14:47:06Z</time>
      </trkpt>
      <trkpt lat="44.73697" lon="5.62512">
        <ele>1473.36</ele>
        <time>2011-11-19T14:47:14Z</time>
      </trkpt>
      <trkpt lat="44.73693" lon="5.6251">
        <ele>1471.44</ele>
        <time>2011-11-19T14:47:19Z</time>
      </trkpt>
      <trkpt lat="44.73681" lon="5.62502">
        <ele>1469.99</ele>
        <time>2011-11-19T14:47:27Z</time>
      </trkpt>
      <trkpt lat="44.73667" lon="5.62488">
        <ele>1466.15</ele>
        <time>2011-11-19T14:47:37Z</time>
      </trkpt>
      <trkpt lat="44.73661" lon="5.62485">
        <ele>1464.23</ele>
        <time>2011-11-19T14:47:45Z</time>
      </trkpt>
      <trkpt lat="44.73646" lon="5.62472">
        <ele>1460.86</ele>
        <time>2011-11-19T14:47:57Z</time>
      </trkpt>
      <trkpt lat="44.73645" lon="5.62472">
        <ele>1460.86</ele>
        <time>2011-11-19T14:47:58Z</time>
      </trkpt>
      <trkpt lat="44.73634" lon="5.62462">
        <ele>1457.5</ele>
        <time>2011-11-19T14:48:08Z</time>
      </trkpt>
      <trkpt lat="44.7363" lon="5.62456">
        <ele>1455.57</ele>
        <time>2011-11-19T14:48:17Z</time>
      </trkpt>
      <trkpt lat="44.73618" lon="5.62449">
        <ele>1452.21</ele>
        <time>2011-11-19T14:48:28Z</time>
      </trkpt>
      <trkpt lat="44.73612" lon="5.62444">
        <ele>1449.81</ele>
        <time>2011-11-19T14:48:35Z</time>
      </trkpt>
      <trkpt lat="44.73605" lon="5.62439">
        <ele>1446.92</ele>
        <time>2011-11-19T14:48:44Z</time>
      </trkpt>
      <trkpt lat="44.73598" lon="5.62434">
        <ele>1445.48</ele>
        <time>2011-11-19T14:48:49Z</time>
      </trkpt>
      <trkpt lat="44.73593" lon="5.6243">
        <ele>1444.52</ele>
        <time>2011-11-19T14:48:54Z</time>
      </trkpt>
      <trkpt lat="44.73585" lon="5.62426">
        <ele>1441.63</ele>
        <time>2011-11-19T14:49:00Z</time>
      </trkpt>
      <trkpt lat="44.73583" lon="5.62426">
        <ele>1441.63</ele>
        <time>2011-11-19T14:49:02Z</time>
      </trkpt>
      <trkpt lat="44.73577" lon="5.62421">
        <ele>1439.71</ele>
        <time>2011-11-19T14:49:07Z</time>
      </trkpt>
      <trkpt lat="44.73567" lon="5.62412">
        <ele>1436.83</ele>
        <time>2011-11-19T14:49:16Z</time>
      </trkpt>
      <trkpt lat="44.73557" lon="5.62402">
        <ele>1433.46</ele>
        <time>2011-11-19T14:49:26Z</time>
      </trkpt>
      <trkpt lat="44.73556" lon="5.62401">
        <ele>1432.98</ele>
        <time>2011-11-19T14:49:27Z</time>
      </trkpt>
      <trkpt lat="44.73552" lon="5.62398">
        <ele>1432.02</ele>
        <time>2011-11-19T14:49:30Z</time>
      </trkpt>
      <trkpt lat="44.73546" lon="5.62392">
        <ele>1430.1</ele>
        <time>2011-11-19T14:49:36Z</time>
      </trkpt>
      <trkpt lat="44.73544" lon="5.62391">
        <ele>1429.14</ele>
        <time>2011-11-19T14:49:38Z</time>
      </trkpt>
      <trkpt lat="44.73538" lon="5.62387">
        <ele>1425.77</ele>
        <time>2011-11-19T14:49:49Z</time>
      </trkpt>
      <trkpt lat="44.73538" lon="5.62387">
        <ele>1425.77</ele>
        <time>2011-11-19T14:49:50Z</time>
      </trkpt>
      <trkpt lat="44.73526" lon="5.62375">
        <ele>1423.37</ele>
        <time>2011-11-19T14:50:03Z</time>
      </trkpt>
      <trkpt lat="44.7352" lon="5.62373">
        <ele>1420.97</ele>
        <time>2011-11-19T14:50:16Z</time>
      </trkpt>
      <trkpt lat="44.73516" lon="5.62369">
        <ele>1420</ele>
        <time>2011-11-19T14:50:19Z</time>
      </trkpt>
      <trkpt lat="44.73503" lon="5.62353">
        <ele>1417.6</ele>
        <time>2011-11-19T14:50:29Z</time>
      </trkpt>
      <trkpt lat="44.73494" lon="5.62346">
        <ele>1416.16</ele>
        <time>2011-11-19T14:50:37Z</time>
      </trkpt>
      <trkpt lat="44.73481" lon="5.62338">
        <ele>1414.24</ele>
        <time>2011-11-19T14:50:49Z</time>
      </trkpt>
      <trkpt lat="44.73474" lon="5.62336">
        <ele>1412.79</ele>
        <time>2011-11-19T14:50:55Z</time>
      </trkpt>
      <trkpt lat="44.73462" lon="5.62327">
        <ele>1410.39</ele>
        <time>2011-11-19T14:51:07Z</time>
      </trkpt>
      <trkpt lat="44.73456" lon="5.62325">
        <ele>1397.41</ele>
        <time>2011-11-19T14:51:14Z</time>
      </trkpt>
      <trkpt lat="44.73456" lon="5.62324">
        <ele>1409.91</ele>
        <time>2011-11-19T14:51:15Z</time>
      </trkpt>
      <trkpt lat="44.73455" lon="5.62324">
        <ele>1409.43</ele>
        <time>2011-11-19T14:51:16Z</time>
      </trkpt>
      <trkpt lat="44.73453" lon="5.62322">
        <ele>1416.64</ele>
        <time>2011-11-19T14:51:19Z</time>
      </trkpt>
      <trkpt lat="44.73453" lon="5.62321">
        <ele>1406.55</ele>
        <time>2011-11-19T14:51:20Z</time>
      </trkpt>
      <trkpt lat="44.73452" lon="5.6232">
        <ele>1407.03</ele>
        <time>2011-11-19T14:51:21Z</time>
      </trkpt>
      <trkpt lat="44.73451" lon="5.62319">
        <ele>1409.43</ele>
        <time>2011-11-19T14:51:23Z</time>
      </trkpt>
      <trkpt lat="44.73447" lon="5.62316">
        <ele>1407.99</ele>
        <time>2011-11-19T14:51:28Z</time>
      </trkpt>
      <trkpt lat="44.73444" lon="5.62315">
        <ele>1408.47</ele>
        <time>2011-11-19T14:51:43Z</time>
      </trkpt>
      <trkpt lat="44.73441" lon="5.62323">
        <ele>1405.1</ele>
        <time>2011-11-19T14:51:54Z</time>
      </trkpt>
      <trkpt lat="44.73439" lon="5.62334">
        <ele>1402.22</ele>
        <time>2011-11-19T14:52:04Z</time>
      </trkpt>
      <trkpt lat="44.73436" lon="5.62345">
        <ele>1399.34</ele>
        <time>2011-11-19T14:52:15Z</time>
      </trkpt>
      <trkpt lat="44.73423" lon="5.62364">
        <ele>1395.97</ele>
        <time>2011-11-19T14:52:27Z</time>
      </trkpt>
      <trkpt lat="44.7342" lon="5.62372">
        <ele>1394.53</ele>
        <time>2011-11-19T14:52:35Z</time>
      </trkpt>
      <trkpt lat="44.73415" lon="5.62383">
        <ele>1391.17</ele>
        <time>2011-11-19T14:52:46Z</time>
      </trkpt>
      <trkpt lat="44.73407" lon="5.6238">
        <ele>1390.2</ele>
        <time>2011-11-19T14:52:53Z</time>
      </trkpt>
      <trkpt lat="44.73394" lon="5.62376">
        <ele>1388.76</ele>
        <time>2011-11-19T14:53:07Z</time>
      </trkpt>
      <trkpt lat="44.7339" lon="5.62373">
        <ele>1387.8</ele>
        <time>2011-11-19T14:53:11Z</time>
      </trkpt>
      <trkpt lat="44.7338" lon="5.62366">
        <ele>1387.32</ele>
        <time>2011-11-19T14:53:19Z</time>
      </trkpt>
      <trkpt lat="44.73362" lon="5.6235">
        <ele>1385.88</ele>
        <time>2011-11-19T14:53:32Z</time>
      </trkpt>
      <trkpt lat="44.73352" lon="5.62341">
        <ele>1383.96</ele>
        <time>2011-11-19T14:53:44Z</time>
      </trkpt>
      <trkpt lat="44.73348" lon="5.62337">
        <ele>1383.47</ele>
        <time>2011-11-19T14:53:49Z</time>
      </trkpt>
      <trkpt lat="44.73336" lon="5.62326">
        <ele>1381.55</ele>
        <time>2011-11-19T14:54:00Z</time>
      </trkpt>
      <trkpt lat="44.73329" lon="5.62318">
        <ele>1380.11</ele>
        <time>2011-11-19T14:54:05Z</time>
      </trkpt>
      <trkpt lat="44.73322" lon="5.62302">
        <ele>1378.67</ele>
        <time>2011-11-19T14:54:18Z</time>
      </trkpt>
      <trkpt lat="44.73311" lon="5.62285">
        <ele>1376.75</ele>
        <time>2011-11-19T14:54:31Z</time>
      </trkpt>
      <trkpt lat="44.73306" lon="5.62279">
        <ele>1375.3</ele>
        <time>2011-11-19T14:54:43Z</time>
      </trkpt>
      <trkpt lat="44.73306" lon="5.62279">
        <ele>1375.3</ele>
        <time>2011-11-19T14:54:44Z</time>
      </trkpt>
      <trkpt lat="44.7329" lon="5.62262">
        <ele>1373.38</ele>
        <time>2011-11-19T14:54:57Z</time>
      </trkpt>
      <trkpt lat="44.73271" lon="5.62244">
        <ele>1370.5</ele>
        <time>2011-11-19T14:55:12Z</time>
      </trkpt>
      <trkpt lat="44.73257" lon="5.62232">
        <ele>1369.05</ele>
        <time>2011-11-19T14:55:23Z</time>
      </trkpt>
      <trkpt lat="44.7325" lon="5.62228">
        <ele>1368.57</ele>
        <time>2011-11-19T14:55:30Z</time>
      </trkpt>
      <trkpt lat="44.73246" lon="5.62224">
        <ele>1367.61</ele>
        <time>2011-11-19T14:55:34Z</time>
      </trkpt>
      <trkpt lat="44.73229" lon="5.62202">
        <ele>1366.17</ele>
        <time>2011-11-19T14:55:50Z</time>
      </trkpt>
      <trkpt lat="44.73222" lon="5.62189">
        <ele>1365.21</ele>
        <time>2011-11-19T14:56:01Z</time>
      </trkpt>
      <trkpt lat="44.73222" lon="5.62186">
        <ele>1364.25</ele>
        <time>2011-11-19T14:56:03Z</time>
      </trkpt>
      <trkpt lat="44.73215" lon="5.62176">
        <ele>1364.25</ele>
        <time>2011-11-19T14:56:11Z</time>
      </trkpt>
      <trkpt lat="44.73208" lon="5.62166">
        <ele>1362.81</ele>
        <time>2011-11-19T14:56:17Z</time>
      </trkpt>
      <trkpt lat="44.73197" lon="5.62156">
        <ele>1362.33</ele>
        <time>2011-11-19T14:56:26Z</time>
      </trkpt>
      <trkpt lat="44.7319" lon="5.62152">
        <ele>1362.81</ele>
        <time>2011-11-19T14:56:32Z</time>
      </trkpt>
      <trkpt lat="44.73178" lon="5.62143">
        <ele>1361.84</ele>
        <time>2011-11-19T14:56:42Z</time>
      </trkpt>
      <trkpt lat="44.73173" lon="5.6214">
        <ele>1360.4</ele>
        <time>2011-11-19T14:56:48Z</time>
      </trkpt>
      <trkpt lat="44.73169" lon="5.62136">
        <ele>1360.88</ele>
        <time>2011-11-19T14:56:52Z</time>
      </trkpt>
      <trkpt lat="44.73163" lon="5.62131">
        <ele>1359.44</ele>
        <time>2011-11-19T14:56:58Z</time>
      </trkpt>
      <trkpt lat="44.7316" lon="5.62127">
        <ele>1359.92</ele>
        <time>2011-11-19T14:57:01Z</time>
      </trkpt>
      <trkpt lat="44.73152" lon="5.6212">
        <ele>1358</ele>
        <time>2011-11-19T14:57:10Z</time>
      </trkpt>
      <trkpt lat="44.73148" lon="5.62117">
        <ele>1358.48</ele>
        <time>2011-11-19T14:57:14Z</time>
      </trkpt>
      <trkpt lat="44.73137" lon="5.62114">
        <ele>1357.04</ele>
        <time>2011-11-19T14:57:25Z</time>
      </trkpt>
      <trkpt lat="44.73123" lon="5.62109">
        <ele>1356.56</ele>
        <time>2011-11-19T14:57:35Z</time>
      </trkpt>
      <trkpt lat="44.73109" lon="5.62099">
        <ele>1355.12</ele>
        <time>2011-11-19T14:57:48Z</time>
      </trkpt>
      <trkpt lat="44.73096" lon="5.62086">
        <ele>1353.19</ele>
        <time>2011-11-19T14:57:59Z</time>
      </trkpt>
      <trkpt lat="44.73085" lon="5.62074">
        <ele>1350.79</ele>
        <time>2011-11-19T14:58:10Z</time>
      </trkpt>
      <trkpt lat="44.73082" lon="5.6207">
        <ele>1349.83</ele>
        <time>2011-11-19T14:58:14Z</time>
      </trkpt>
      <trkpt lat="44.73072" lon="5.62053">
        <ele>1348.39</ele>
        <time>2011-11-19T14:58:29Z</time>
      </trkpt>
      <trkpt lat="44.73069" lon="5.62048">
        <ele>1347.91</ele>
        <time>2011-11-19T14:58:34Z</time>
      </trkpt>
      <trkpt lat="44.73067" lon="5.62043">
        <ele>1347.91</ele>
        <time>2011-11-19T14:58:38Z</time>
      </trkpt>
      <trkpt lat="44.73064" lon="5.62033">
        <ele>1345.98</ele>
        <time>2011-11-19T14:58:44Z</time>
      </trkpt>
      <trkpt lat="44.73065" lon="5.62025">
        <ele>1345.5</ele>
        <time>2011-11-19T14:58:48Z</time>
      </trkpt>
      <trkpt lat="44.73068" lon="5.62014">
        <ele>1344.54</ele>
        <time>2011-11-19T14:58:56Z</time>
      </trkpt>
      <trkpt lat="44.73072" lon="5.61999">
        <ele>1343.1</ele>
        <time>2011-11-19T14:59:05Z</time>
      </trkpt>
      <trkpt lat="44.73074" lon="5.61993">
        <ele>1342.62</ele>
        <time>2011-11-19T14:59:09Z</time>
      </trkpt>
      <trkpt lat="44.73077" lon="5.61984">
        <ele>1341.66</ele>
        <time>2011-11-19T14:59:15Z</time>
      </trkpt>
      <trkpt lat="44.73077" lon="5.61976">
        <ele>1340.7</ele>
        <time>2011-11-19T14:59:18Z</time>
      </trkpt>
      <trkpt lat="44.73078" lon="5.61971">
        <ele>1340.22</ele>
        <time>2011-11-19T14:59:21Z</time>
      </trkpt>
      <trkpt lat="44.73077" lon="5.61958">
        <ele>1338.77</ele>
        <time>2011-11-19T14:59:28Z</time>
      </trkpt>
      <trkpt lat="44.73064" lon="5.61941">
        <ele>1337.81</ele>
        <time>2011-11-19T14:59:40Z</time>
      </trkpt>
      <trkpt lat="44.73063" lon="5.6194">
        <ele>1337.81</ele>
        <time>2011-11-19T14:59:41Z</time>
      </trkpt>
      <trkpt lat="44.73059" lon="5.61932">
        <ele>1337.33</ele>
        <time>2011-11-19T14:59:47Z</time>
      </trkpt>
      <trkpt lat="44.73059" lon="5.61926">
        <ele>1336.85</ele>
        <time>2011-11-19T14:59:51Z</time>
      </trkpt>
      <trkpt lat="44.7306" lon="5.61912">
        <ele>1336.37</ele>
        <time>2011-11-19T14:59:59Z</time>
      </trkpt>
      <trkpt lat="44.73055" lon="5.61904">
        <ele>1335.41</ele>
        <time>2011-11-19T15:00:06Z</time>
      </trkpt>
      <trkpt lat="44.73047" lon="5.619">
        <ele>1333.49</ele>
        <time>2011-11-19T15:00:12Z</time>
      </trkpt>
      <trkpt lat="44.7303" lon="5.61886">
        <ele>1332.04</ele>
        <time>2011-11-19T15:00:25Z</time>
      </trkpt>
      <trkpt lat="44.73026" lon="5.61876">
        <ele>1331.08</ele>
        <time>2011-11-19T15:00:33Z</time>
      </trkpt>
      <trkpt lat="44.73024" lon="5.61867">
        <ele>1330.12</ele>
        <time>2011-11-19T15:00:40Z</time>
      </trkpt>
      <trkpt lat="44.73015" lon="5.61859">
        <ele>1329.64</ele>
        <time>2011-11-19T15:00:48Z</time>
      </trkpt>
      <trkpt lat="44.73005" lon="5.61846">
        <ele>1329.64</ele>
        <time>2011-11-19T15:00:59Z</time>
      </trkpt>
      <trkpt lat="44.72994" lon="5.61832">
        <ele>1330.12</ele>
        <time>2011-11-19T15:01:10Z</time>
      </trkpt>
      <trkpt lat="44.72988" lon="5.61829">
        <ele>1329.64</ele>
        <time>2011-11-19T15:01:18Z</time>
      </trkpt>
      <trkpt lat="44.72981" lon="5.61835">
        <ele>1330.6</ele>
        <time>2011-11-19T15:01:32Z</time>
      </trkpt>
    </trkseg>
  </trk>
</gpx>